Time,TemperatureF,DewpointF,PressureIn,WindDirection,WindDirectionDegrees,WindSpeedMPH,WindSpeedGustMPH,Humidity,HourlyPrecipIn,Conditions,Clouds,dailyrainin,SoftwareType,DateUTC
2013-02-10 00:00:00,63.6,56.3,30.11,ENE,74,3.0,11.0,77,0.00,,---,0.00,VWS V13.00,2013-02-10 05:00:00,
2013-02-10 00:01:00,63.6,56.3,30.11,ENE,70,9.0,11.0,77,0.00,,---,0.00,VWS V13.00,2013-02-10 05:01:00,
2013-02-10 00:02:00,63.6,56.3,30.11,East,79,5.0,11.0,77,0.00,,---,0.00,VWS V13.00,2013-02-10 05:02:00,
2013-02-10 00:03:00,63.6,56.3,30.11,East,91,6.0,11.0,77,0.00,,---,0.00,VWS V13.00,2013-02-10 05:03:00,
2013-02-10 00:04:00,63.6,56.3,30.11,ENE,71,4.0,11.0,77,0.00,,---,0.00,VWS V13.00,2013-02-10 05:04:00,
2013-02-10 00:05:00,63.6,56.3,30.11,East,85,6.0,11.0,77,0.00,,---,0.00,VWS V13.00,2013-02-10 05:05:00,
2013-02-10 00:06:00,63.6,56.3,30.11,East,80,7.0,9.0,77,0.00,,---,0.00,VWS V13.00,2013-02-10 05:06:00,
2013-02-10 00:07:00,63.6,56.3,30.11,ENE,71,4.0,9.0,77,0.00,,---,0.00,VWS V13.00,2013-02-10 05:07:00,
2013-02-10 00:08:00,63.6,56.3,30.11,East,79,8.0,11.0,77,0.00,,---,0.00,VWS V13.00,2013-02-10 05:08:00,
2013-02-10 00:09:00,63.6,56.3,30.11,ENE,67,4.0,11.0,77,0.00,,---,0.00,VWS V13.00,2013-02-10 05:09:00,
2013-02-10 00:10:00,63.6,56.3,30.11,ENE,78,2.0,11.0,77,0.00,,---,0.00,VWS V13.00,2013-02-10 05:10:00,
2013-02-10 00:11:00,63.6,56.3,30.11,ENE,77,5.0,6.0,77,0.00,,---,0.00,VWS V13.00,2013-02-10 05:11:00,
2013-02-10 00:12:00,63.6,56.3,30.11,ENE,71,5.0,6.0,77,0.00,,---,0.00,VWS V13.00,2013-02-10 05:12:00,
2013-02-10 00:13:00,63.6,56.3,30.11,ENE,71,5.0,6.0,77,0.00,,---,0.00,VWS V13.00,2013-02-10 05:13:00,
2013-02-10 00:14:00,63.6,56.3,30.11,ENE,63,5.0,6.0,77,0.00,,---,0.00,VWS V13.00,2013-02-10 05:14:00,
2013-02-10 00:15:00,63.4,56.4,30.10,East,88,7.0,7.0,78,0.00,,---,0.00,VWS V13.00,2013-02-10 05:15:00,
2013-02-10 00:16:00,63.4,56.4,30.10,ENE,67,5.0,7.0,78,0.00,,---,0.00,VWS V13.00,2013-02-10 05:16:00,
2013-02-10 00:17:00,63.4,56.4,30.10,ENE,67,5.0,10.0,78,0.00,,---,0.00,VWS V13.00,2013-02-10 05:17:00,
2013-02-10 00:18:00,63.4,56.4,30.10,ENE,67,2.0,10.0,78,0.00,,---,0.00,VWS V13.00,2013-02-10 05:18:00,
2013-02-10 00:19:00,63.4,56.4,30.10,ENE,65,4.0,10.0,78,0.00,,---,0.00,VWS V13.00,2013-02-10 05:19:00,
2013-02-10 00:20:00,63.4,56.4,30.10,East,81,9.0,11.0,78,0.00,,---,0.00,VWS V13.00,2013-02-10 05:20:00,
2013-02-10 00:21:00,63.4,56.4,30.10,East,84,9.0,11.0,78,0.00,,---,0.00,VWS V13.00,2013-02-10 05:21:00,
2013-02-10 00:22:00,63.4,56.4,30.10,ENE,68,5.0,11.0,78,0.00,,---,0.00,VWS V13.00,2013-02-10 05:22:00,
2013-02-10 00:23:00,63.4,56.4,30.10,ENE,72,6.0,12.0,78,0.00,,---,0.00,VWS V13.00,2013-02-10 05:23:00,
2013-02-10 00:24:00,63.4,56.4,30.10,NE,56,11.0,12.0,78,0.00,,---,0.00,VWS V13.00,2013-02-10 05:24:00,
2013-02-10 00:25:00,63.4,56.4,30.10,East,85,5.0,12.0,78,0.00,,---,0.00,VWS V13.00,2013-02-10 05:25:00,
2013-02-10 00:26:00,63.4,56.4,30.10,East,80,5.0,9.0,78,0.00,,---,0.00,VWS V13.00,2013-02-10 05:26:00,
2013-02-10 00:27:00,63.4,56.4,30.10,East,82,7.0,10.0,78,0.00,,---,0.00,VWS V13.00,2013-02-10 05:27:00,
2013-02-10 00:28:00,63.4,56.4,30.10,ENE,65,8.0,10.0,78,0.00,,---,0.00,VWS V13.00,2013-02-10 05:28:00,
2013-02-10 00:29:00,63.4,56.4,30.10,ENE,62,6.0,10.0,78,0.00,,---,0.00,VWS V13.00,2013-02-10 05:29:00,
2013-02-10 00:30:00,63.4,56.4,30.10,East,85,9.0,10.0,78,0.00,,---,0.00,VWS V13.00,2013-02-10 05:30:00,
2013-02-10 00:31:00,63.4,56.4,30.10,ENE,59,3.0,8.0,78,0.00,,---,0.00,VWS V13.00,2013-02-10 05:31:00,
2013-02-10 00:32:00,63.4,56.4,30.10,ENE,68,10.0,10.0,78,0.00,,---,0.00,VWS V13.00,2013-02-10 05:32:00,
2013-02-10 00:33:00,63.4,56.4,30.10,ENE,73,6.0,10.0,78,0.00,,---,0.00,VWS V13.00,2013-02-10 05:33:00,
2013-02-10 00:34:00,63.4,56.4,30.10,ENE,69,5.0,10.0,78,0.00,,---,0.00,VWS V13.00,2013-02-10 05:34:00,
2013-02-10 00:35:00,63.4,56.4,30.10,NE,46,5.0,10.0,78,0.00,,---,0.00,VWS V13.00,2013-02-10 05:35:00,
2013-02-10 00:36:00,63.2,56.2,30.10,ENE,65,4.0,9.0,78,0.00,,---,0.00,VWS V13.00,2013-02-10 05:36:00,
2013-02-10 00:37:00,63.2,56.2,30.10,East,88,5.0,9.0,78,0.00,,---,0.00,VWS V13.00,2013-02-10 05:37:00,
2013-02-10 00:38:00,63.2,56.2,30.10,ENE,75,4.0,9.0,78,0.00,,---,0.00,VWS V13.00,2013-02-10 05:38:00,
2013-02-10 00:39:00,63.2,56.2,30.10,East,82,5.0,9.0,78,0.00,,---,0.00,VWS V13.00,2013-02-10 05:39:00,
2013-02-10 00:40:00,63.2,56.2,30.10,ENE,62,5.0,9.0,78,0.00,,---,0.00,VWS V13.00,2013-02-10 05:40:00,
2013-02-10 00:41:00,63.2,56.2,30.10,ENE,62,4.0,5.0,78,0.00,,---,0.00,VWS V13.00,2013-02-10 05:41:00,
2013-02-10 00:42:00,63.2,56.2,30.10,ENE,75,6.0,7.0,78,0.00,,---,0.00,VWS V13.00,2013-02-10 05:42:00,
2013-02-10 00:43:00,63.2,56.2,30.10,ENE,65,4.0,12.0,78,0.00,,---,0.00,VWS V13.00,2013-02-10 05:43:00,
2013-02-10 00:44:00,63.2,56.6,30.10,ENE,65,9.0,12.0,79,0.00,,---,0.00,VWS V13.00,2013-02-10 05:44:00,
2013-02-10 00:45:00,63.2,56.6,30.10,ENE,77,5.0,12.0,79,0.00,,---,0.00,VWS V13.00,2013-02-10 05:45:00,
2013-02-10 00:46:00,63.2,56.6,30.10,East,86,5.0,7.0,79,0.00,,---,0.00,VWS V13.00,2013-02-10 05:46:00,
2013-02-10 00:47:00,63.2,56.6,30.10,East,81,5.0,12.0,79,0.00,,---,0.00,VWS V13.00,2013-02-10 05:47:00,
2013-02-10 00:48:00,63.2,56.6,30.10,ENE,75,5.0,12.0,79,0.00,,---,0.00,VWS V13.00,2013-02-10 05:48:00,
2013-02-10 00:49:00,63.2,56.6,30.10,ENE,76,5.0,12.0,79,0.00,,---,0.00,VWS V13.00,2013-02-10 05:49:00,
2013-02-10 00:50:00,63.2,56.6,30.10,ENE,69,3.0,12.0,79,0.00,,---,0.00,VWS V13.00,2013-02-10 05:50:00,
2013-02-10 00:51:00,63.2,56.6,30.10,ENE,64,7.0,7.0,79,0.00,,---,0.00,VWS V13.00,2013-02-10 05:51:00,
2013-02-10 00:52:00,63.2,56.6,30.10,ENE,60,9.0,9.0,79,0.00,,---,0.00,VWS V13.00,2013-02-10 05:52:00,
2013-02-10 00:53:00,63.2,56.6,30.10,East,95,9.0,10.0,79,0.00,,---,0.00,VWS V13.00,2013-02-10 05:53:00,
2013-02-10 00:54:00,63.2,56.6,30.10,East,90,6.0,10.0,79,0.00,,---,0.00,VWS V13.00,2013-02-10 05:54:00,
2013-02-10 00:55:00,63.2,56.6,30.10,ENE,58,10.0,10.0,79,0.00,,---,0.00,VWS V13.00,2013-02-10 05:55:00,
2013-02-10 00:56:00,63.1,56.5,30.10,ENE,67,6.0,10.0,79,0.00,,---,0.00,VWS V13.00,2013-02-10 05:56:00,
2013-02-10 00:57:00,63.1,56.5,30.10,ENE,74,5.0,11.0,79,0.00,,---,0.00,VWS V13.00,2013-02-10 05:57:00,
2013-02-10 00:58:00,63.1,56.5,30.10,East,92,7.0,11.0,79,0.00,,---,0.00,VWS V13.00,2013-02-10 05:58:00,
2013-02-10 00:59:00,63.1,56.5,30.10,ENE,72,5.0,11.0,79,0.00,,---,0.00,VWS V13.00,2013-02-10 05:59:00,
2013-02-10 01:00:00,63.1,56.5,30.10,East,86,3.0,11.0,79,0.00,,---,0.00,VWS V13.00,2013-02-10 06:00:00,
2013-02-10 01:01:00,63.1,56.5,30.10,ENE,64,11.0,12.0,79,0.00,,---,0.00,VWS V13.00,2013-02-10 06:01:00,
2013-02-10 01:02:00,63.1,56.5,30.10,East,82,5.0,12.0,79,0.00,,---,0.00,VWS V13.00,2013-02-10 06:02:00,
2013-02-10 01:03:00,63.1,56.5,30.10,East,90,10.0,12.0,79,0.00,,---,0.00,VWS V13.00,2013-02-10 06:03:00,
2013-02-10 01:04:00,63.1,56.5,30.10,East,95,9.0,12.0,79,0.00,,---,0.00,VWS V13.00,2013-02-10 06:04:00,
2013-02-10 01:05:00,63.1,56.5,30.10,East,81,5.0,12.0,79,0.00,,---,0.00,VWS V13.00,2013-02-10 06:05:00,
2013-02-10 01:06:00,63.1,56.5,30.10,East,88,9.0,9.0,79,0.00,,---,0.00,VWS V13.00,2013-02-10 06:06:00,
2013-02-10 01:07:00,63.1,56.5,30.10,East,86,4.0,12.0,79,0.00,,---,0.00,VWS V13.00,2013-02-10 06:07:00,
2013-02-10 01:08:00,63.1,56.5,30.10,ENE,77,3.0,12.0,79,0.00,,---,0.00,VWS V13.00,2013-02-10 06:08:00,
2013-02-10 01:09:00,63.1,56.5,30.10,East,100,5.0,12.0,79,0.00,,---,0.00,VWS V13.00,2013-02-10 06:09:00,
2013-02-10 01:10:00,63.1,56.5,30.10,East,84,5.0,12.0,79,0.00,,---,0.00,VWS V13.00,2013-02-10 06:10:00,
2013-02-10 01:11:00,63.1,56.5,30.10,ENE,74,9.0,10.0,79,0.00,,---,0.00,VWS V13.00,2013-02-10 06:11:00,
2013-02-10 01:12:00,63.1,56.5,30.10,ENE,68,10.0,10.0,79,0.00,,---,0.00,VWS V13.00,2013-02-10 06:12:00,
2013-02-10 01:13:00,63.1,56.5,30.10,ENE,78,6.0,11.0,79,0.00,,---,0.00,VWS V13.00,2013-02-10 06:13:00,
2013-02-10 01:14:00,63.1,56.5,30.10,NE,55,5.0,11.0,79,0.00,,---,0.00,VWS V13.00,2013-02-10 06:14:00,
2013-02-10 01:15:00,63.1,56.5,30.10,East,80,6.0,11.0,79,0.00,,---,0.00,VWS V13.00,2013-02-10 06:15:00,
2013-02-10 01:16:00,63.1,56.5,30.10,East,86,4.0,10.0,79,0.00,,---,0.00,VWS V13.00,2013-02-10 06:16:00,
2013-02-10 01:17:00,63.1,56.5,30.10,East,93,3.0,10.0,79,0.00,,---,0.00,VWS V13.00,2013-02-10 06:17:00,
2013-02-10 01:18:00,63.1,56.8,30.10,East,88,5.0,10.0,80,0.00,,---,0.00,VWS V13.00,2013-02-10 06:18:00,
2013-02-10 01:19:00,63.1,56.8,30.10,East,82,4.0,10.0,80,0.00,,---,0.00,VWS V13.00,2013-02-10 06:19:00,
2013-02-10 01:20:00,63.1,56.8,30.10,East,86,4.0,10.0,80,0.00,,---,0.00,VWS V13.00,2013-02-10 06:20:00,
2013-02-10 01:21:00,63.1,56.8,30.10,ENE,74,5.0,5.0,80,0.00,,---,0.00,VWS V13.00,2013-02-10 06:21:00,
2013-02-10 01:22:00,63.1,56.8,30.10,ENE,75,7.0,11.0,80,0.00,,---,0.00,VWS V13.00,2013-02-10 06:22:00,
2013-02-10 01:23:00,63.1,56.8,30.10,East,82,7.0,11.0,80,0.00,,---,0.00,VWS V13.00,2013-02-10 06:23:00,
2013-02-10 01:24:00,63.1,56.8,30.10,East,92,8.0,11.0,80,0.00,,---,0.00,VWS V13.00,2013-02-10 06:24:00,
2013-02-10 01:25:00,63.1,56.8,30.10,ENE,69,5.0,11.0,80,0.00,,---,0.00,VWS V13.00,2013-02-10 06:25:00,
2013-02-10 01:26:00,63.1,56.8,30.10,ENE,69,3.0,5.0,80,0.00,,---,0.00,VWS V13.00,2013-02-10 06:26:00,
2013-02-10 01:27:00,63.1,56.8,30.10,ENE,75,7.0,8.0,80,0.00,,---,0.00,VWS V13.00,2013-02-10 06:27:00,
2013-02-10 01:28:00,63.1,56.8,30.10,ENE,66,7.0,9.0,80,0.00,,---,0.00,VWS V13.00,2013-02-10 06:28:00,
2013-02-10 01:29:00,62.9,56.6,30.10,ENE,62,4.0,9.0,80,0.00,,---,0.00,VWS V13.00,2013-02-10 06:29:00,
2013-02-10 01:30:00,62.9,56.6,30.10,East,88,6.0,9.0,80,0.00,,---,0.00,VWS V13.00,2013-02-10 06:30:00,
2013-02-10 01:31:00,62.9,57.0,30.10,East,82,5.0,7.0,81,0.00,,---,0.00,VWS V13.00,2013-02-10 06:31:00,
2013-02-10 01:32:00,62.9,57.0,30.10,ENE,70,5.0,7.0,81,0.00,,---,0.00,VWS V13.00,2013-02-10 06:32:00,
2013-02-10 01:33:00,62.9,57.0,30.10,East,98,6.0,10.0,81,0.00,,---,0.00,VWS V13.00,2013-02-10 06:33:00,
2013-02-10 01:34:00,62.9,57.0,30.10,East,94,3.0,10.0,81,0.00,,---,0.00,VWS V13.00,2013-02-10 06:34:00,
2013-02-10 01:35:00,62.9,57.0,30.10,East,84,7.0,10.0,81,0.00,,---,0.00,VWS V13.00,2013-02-10 06:35:00,
2013-02-10 01:36:00,62.9,57.0,30.10,East,88,4.0,7.0,81,0.00,,---,0.00,VWS V13.00,2013-02-10 06:36:00,
2013-02-10 01:37:00,62.9,57.0,30.10,East,80,6.0,7.0,81,0.00,,---,0.00,VWS V13.00,2013-02-10 06:37:00,
2013-02-10 01:38:00,62.9,57.0,30.10,East,80,4.0,7.0,81,0.00,,---,0.00,VWS V13.00,2013-02-10 06:38:00,
2013-02-10 01:39:00,62.9,57.0,30.10,East,80,7.0,7.0,81,0.00,,---,0.00,VWS V13.00,2013-02-10 06:39:00,
2013-02-10 01:40:00,62.9,57.0,30.10,East,88,3.0,7.0,81,0.00,,---,0.00,VWS V13.00,2013-02-10 06:40:00,
2013-02-10 01:41:00,62.9,57.0,30.10,East,90,5.0,7.0,81,0.00,,---,0.00,VWS V13.00,2013-02-10 06:41:00,
2013-02-10 01:42:00,62.9,57.0,30.10,East,96,6.0,7.0,81,0.00,,---,0.00,VWS V13.00,2013-02-10 06:42:00,
2013-02-10 01:43:00,62.9,57.0,30.10,ENE,69,4.0,7.0,81,0.00,,---,0.00,VWS V13.00,2013-02-10 06:43:00,
2013-02-10 01:44:00,62.9,57.3,30.10,ENE,69,4.0,7.0,82,0.00,,---,0.00,VWS V13.00,2013-02-10 06:44:00,
2013-02-10 01:45:00,62.9,57.3,30.09,ENE,69,4.0,7.0,82,0.00,,---,0.00,VWS V13.00,2013-02-10 06:45:00,
2013-02-10 01:46:00,62.9,57.3,30.09,ENE,70,6.0,6.0,82,0.00,,---,0.00,VWS V13.00,2013-02-10 06:46:00,
2013-02-10 01:47:00,62.9,57.3,30.09,ENE,73,4.0,6.0,82,0.00,,---,0.00,VWS V13.00,2013-02-10 06:47:00,
2013-02-10 01:48:00,62.9,57.3,30.09,ENE,70,4.0,7.0,82,0.00,,---,0.00,VWS V13.00,2013-02-10 06:48:00,
2013-02-10 01:49:00,62.8,57.2,30.09,ENE,71,3.0,7.0,82,0.00,,---,0.00,VWS V13.00,2013-02-10 06:49:00,
2013-02-10 01:50:00,62.8,57.2,30.09,East,79,9.0,9.0,82,0.00,,---,0.00,VWS V13.00,2013-02-10 06:50:00,
2013-02-10 01:51:00,62.9,57.3,30.09,ENE,74,5.0,9.0,82,0.00,,---,0.00,VWS V13.00,2013-02-10 06:51:00,
2013-02-10 01:52:00,62.9,57.3,30.09,East,86,9.0,9.0,82,0.00,,---,0.00,VWS V13.00,2013-02-10 06:52:00,
2013-02-10 01:53:00,62.9,57.3,30.09,East,96,6.0,11.0,82,0.00,,---,0.00,VWS V13.00,2013-02-10 06:53:00,
2013-02-10 01:54:00,62.9,57.3,30.09,ENE,76,3.0,11.0,82,0.00,,---,0.00,VWS V13.00,2013-02-10 06:54:00,
2013-02-10 01:55:00,62.9,57.3,30.09,ENE,76,4.0,11.0,82,0.00,,---,0.00,VWS V13.00,2013-02-10 06:55:00,
2013-02-10 01:56:00,62.9,57.3,30.09,ENE,59,5.0,6.0,82,0.00,,---,0.00,VWS V13.00,2013-02-10 06:56:00,
2013-02-10 01:57:00,62.9,57.3,30.09,East,82,2.0,9.0,82,0.00,,---,0.00,VWS V13.00,2013-02-10 06:57:00,
2013-02-10 01:58:00,62.9,57.3,30.09,ENE,71,6.0,9.0,82,0.00,,---,0.00,VWS V13.00,2013-02-10 06:58:00,
2013-02-10 01:59:00,62.9,57.3,30.09,East,86,5.0,9.0,82,0.00,,---,0.00,VWS V13.00,2013-02-10 06:59:00,
2013-02-10 02:00:00,62.9,57.3,30.09,East,92,7.0,9.0,82,0.00,,---,0.00,VWS V13.00,2013-02-10 07:00:00,
2013-02-10 02:01:00,62.9,57.3,30.09,ENE,78,6.0,7.0,82,0.00,,---,0.00,VWS V13.00,2013-02-10 07:01:00,
2013-02-10 02:02:00,62.9,57.3,30.09,ENE,66,9.0,9.0,82,0.00,,---,0.00,VWS V13.00,2013-02-10 07:02:00,
2013-02-10 02:03:00,62.9,57.3,30.09,East,89,6.0,9.0,82,0.00,,---,0.00,VWS V13.00,2013-02-10 07:03:00,
2013-02-10 02:04:00,62.9,57.3,30.09,East,91,4.0,9.0,82,0.00,,---,0.00,VWS V13.00,2013-02-10 07:04:00,
2013-02-10 02:05:00,62.9,57.3,30.09,East,84,5.0,9.0,82,0.00,,---,0.00,VWS V13.00,2013-02-10 07:05:00,
2013-02-10 02:06:00,62.9,57.3,30.09,ENE,70,6.0,7.0,82,0.00,,---,0.00,VWS V13.00,2013-02-10 07:06:00,
2013-02-10 02:07:00,62.9,57.3,30.09,NE,55,5.0,7.0,82,0.00,,---,0.00,VWS V13.00,2013-02-10 07:07:00,
2013-02-10 02:08:00,62.9,57.3,30.09,ENE,73,3.0,7.0,82,0.00,,---,0.00,VWS V13.00,2013-02-10 07:08:00,
2013-02-10 02:09:00,62.9,57.3,30.09,East,86,4.0,7.0,82,0.00,,---,0.00,VWS V13.00,2013-02-10 07:09:00,
2013-02-10 02:10:00,62.9,57.3,30.09,East,85,3.0,7.0,82,0.00,,---,0.00,VWS V13.00,2013-02-10 07:10:00,
2013-02-10 02:11:00,62.9,57.3,30.09,East,93,6.0,10.0,82,0.00,,---,0.00,VWS V13.00,2013-02-10 07:11:00,
2013-02-10 02:12:00,62.9,57.3,30.09,East,88,5.0,10.0,82,0.00,,---,0.00,VWS V13.00,2013-02-10 07:12:00,
2013-02-10 02:13:00,62.9,57.3,30.09,East,83,6.0,10.0,82,0.00,,---,0.00,VWS V13.00,2013-02-10 07:13:00,
2013-02-10 02:14:00,62.9,57.3,30.09,East,89,2.0,10.0,82,0.00,,---,0.00,VWS V13.00,2013-02-10 07:14:00,
2013-02-10 02:15:00,62.9,56.6,30.09,East,90,4.0,10.0,80,0.00,,---,0.00,VWS V13.00,2013-02-10 07:15:00,
2013-02-10 02:16:00,62.9,57.3,30.09,East,97,7.0,9.0,82,0.00,,---,0.00,VWS V13.00,2013-02-10 07:16:00,
2013-02-10 02:17:00,62.9,57.3,30.09,East,82,7.0,9.0,82,0.00,,---,0.00,VWS V13.00,2013-02-10 07:17:00,
2013-02-10 02:18:00,63.1,57.5,30.09,East,86,4.0,9.0,82,0.00,,---,0.00,VWS V13.00,2013-02-10 07:18:00,
2013-02-10 02:19:00,63.1,57.5,30.09,East,84,6.0,9.0,82,0.00,,---,0.00,VWS V13.00,2013-02-10 07:19:00,
2013-02-10 02:20:00,63.1,57.5,30.09,East,82,10.0,10.0,82,0.00,,---,0.00,VWS V13.00,2013-02-10 07:20:00,
2013-02-10 02:21:00,63.1,57.5,30.09,East,90,4.0,10.0,82,0.00,,---,0.00,VWS V13.00,2013-02-10 07:21:00,
2013-02-10 02:22:00,63.1,57.5,30.09,East,100,6.0,10.0,82,0.00,,---,0.00,VWS V13.00,2013-02-10 07:22:00,
2013-02-10 02:23:00,63.1,57.5,30.09,East,89,4.0,10.0,82,0.00,,---,0.00,VWS V13.00,2013-02-10 07:23:00,
2013-02-10 02:24:00,63.1,57.5,30.09,East,91,3.0,10.0,82,0.00,,---,0.00,VWS V13.00,2013-02-10 07:24:00,
2013-02-10 02:25:00,63.1,57.5,30.09,ENE,73,6.0,10.0,82,0.00,,---,0.00,VWS V13.00,2013-02-10 07:25:00,
2013-02-10 02:26:00,63.1,57.5,30.09,ENE,63,3.0,10.0,82,0.00,,---,0.00,VWS V13.00,2013-02-10 07:26:00,
2013-02-10 02:27:00,63.1,57.5,30.09,East,94,4.0,10.0,82,0.00,,---,0.00,VWS V13.00,2013-02-10 07:27:00,
2013-02-10 02:28:00,63.1,57.5,30.09,ENE,74,10.0,11.0,82,0.00,,---,0.00,VWS V13.00,2013-02-10 07:28:00,
2013-02-10 02:29:00,63.1,57.5,30.09,East,80,7.0,11.0,82,0.00,,---,0.00,VWS V13.00,2013-02-10 07:29:00,
2013-02-10 02:30:00,63.1,57.5,30.09,East,85,6.0,11.0,82,0.00,,---,0.00,VWS V13.00,2013-02-10 07:30:00,
2013-02-10 02:31:00,63.1,57.5,30.09,East,90,6.0,8.0,82,0.00,,---,0.00,VWS V13.00,2013-02-10 07:31:00,
2013-02-10 02:32:00,63.1,57.5,30.09,East,82,4.0,10.0,82,0.00,,---,0.00,VWS V13.00,2013-02-10 07:32:00,
2013-02-10 02:33:00,63.1,57.5,30.09,ENE,61,6.0,10.0,82,0.00,,---,0.00,VWS V13.00,2013-02-10 07:33:00,
2013-02-10 02:34:00,63.1,57.5,30.09,East,96,10.0,10.0,82,0.00,,---,0.00,VWS V13.00,2013-02-10 07:34:00,
2013-02-10 02:35:00,63.1,57.5,30.09,ESE,102,8.0,10.0,82,0.00,,---,0.00,VWS V13.00,2013-02-10 07:35:00,
2013-02-10 02:36:00,63.1,57.5,30.09,ENE,59,7.0,10.0,82,0.00,,---,0.00,VWS V13.00,2013-02-10 07:36:00,
2013-02-10 02:37:00,63.1,57.5,30.09,ENE,77,3.0,10.0,82,0.00,,---,0.00,VWS V13.00,2013-02-10 07:37:00,
2013-02-10 02:38:00,63.1,57.5,30.09,East,89,8.0,10.0,82,0.00,,---,0.00,VWS V13.00,2013-02-10 07:38:00,
2013-02-10 02:39:00,63.1,57.5,30.09,ENE,67,9.0,10.0,82,0.00,,---,0.00,VWS V13.00,2013-02-10 07:39:00,
2013-02-10 02:40:00,63.1,57.5,30.09,East,83,6.0,11.0,82,0.00,,---,0.00,VWS V13.00,2013-02-10 07:40:00,
2013-02-10 02:41:00,63.1,57.5,30.09,East,89,4.0,9.0,82,0.00,,---,0.00,VWS V13.00,2013-02-10 07:41:00,
2013-02-10 02:42:00,63.1,57.5,30.09,East,93,8.0,10.0,82,0.00,,---,0.00,VWS V13.00,2013-02-10 07:42:00,
2013-02-10 02:43:00,63.2,57.6,30.09,East,82,7.0,10.0,82,0.00,,---,0.00,VWS V13.00,2013-02-10 07:43:00,
2013-02-10 02:44:00,63.2,57.6,30.09,East,83,6.0,10.0,82,0.00,,---,0.00,VWS V13.00,2013-02-10 07:44:00,
2013-02-10 02:45:00,63.2,57.6,30.09,NE,46,4.0,10.0,82,0.00,,---,0.00,VWS V13.00,2013-02-10 07:45:00,
2013-02-10 02:46:00,63.2,57.6,30.09,ENE,77,6.0,8.0,82,0.00,,---,0.00,VWS V13.00,2013-02-10 07:46:00,
2013-02-10 02:47:00,63.1,57.5,30.09,ENE,78,2.0,10.0,82,0.00,,---,0.00,VWS V13.00,2013-02-10 07:47:00,
2013-02-10 02:48:00,63.1,57.5,30.09,East,94,6.0,10.0,82,0.00,,---,0.00,VWS V13.00,2013-02-10 07:48:00,
2013-02-10 02:49:00,63.1,57.5,30.09,ENE,69,4.0,10.0,82,0.00,,---,0.00,VWS V13.00,2013-02-10 07:49:00,
2013-02-10 02:50:00,63.1,57.5,30.09,ENE,64,6.0,10.0,82,0.00,,---,0.00,VWS V13.00,2013-02-10 07:50:00,
2013-02-10 02:51:00,63.1,57.5,30.09,East,86,4.0,7.0,82,0.00,,---,0.00,VWS V13.00,2013-02-10 07:51:00,
2013-02-10 02:52:00,63.1,57.5,30.09,East,86,5.0,7.0,82,0.00,,---,0.00,VWS V13.00,2013-02-10 07:52:00,
2013-02-10 02:53:00,63.1,57.5,30.09,East,83,6.0,7.0,82,0.00,,---,0.00,VWS V13.00,2013-02-10 07:53:00,
2013-02-10 02:54:00,63.1,57.9,30.09,ENE,67,4.0,8.0,83,0.00,,---,0.00,VWS V13.00,2013-02-10 07:54:00,
2013-02-10 02:55:00,63.1,57.9,30.09,ENE,71,4.0,8.0,83,0.00,,---,0.00,VWS V13.00,2013-02-10 07:55:00,
2013-02-10 02:56:00,63.1,57.9,30.09,ENE,71,3.0,4.0,83,0.00,,---,0.00,VWS V13.00,2013-02-10 07:56:00,
2013-02-10 02:57:00,63.1,57.9,30.09,ENE,71,3.0,5.0,83,0.00,,---,0.00,VWS V13.00,2013-02-10 07:57:00,
2013-02-10 02:58:00,63.1,57.9,30.09,ENE,74,5.0,6.0,83,0.00,,---,0.00,VWS V13.00,2013-02-10 07:58:00,
2013-02-10 02:59:00,62.9,57.7,30.09,ENE,76,6.0,6.0,83,0.00,,---,0.00,VWS V13.00,2013-02-10 07:59:00,
2013-02-10 03:00:00,62.9,57.7,30.09,East,84,5.0,6.0,83,0.00,,---,0.00,VWS V13.00,2013-02-10 08:00:00,
2013-02-10 03:01:00,62.9,57.7,30.09,East,84,4.0,7.0,83,0.00,,---,0.00,VWS V13.00,2013-02-10 08:01:00,
2013-02-10 03:02:00,62.9,57.7,30.09,East,95,4.0,9.0,83,0.00,,---,0.00,VWS V13.00,2013-02-10 08:02:00,
2013-02-10 03:03:00,62.9,57.7,30.09,ENE,76,7.0,9.0,83,0.00,,---,0.00,VWS V13.00,2013-02-10 08:03:00,
2013-02-10 03:04:00,62.9,57.7,30.09,ENE,74,6.0,9.0,83,0.00,,---,0.00,VWS V13.00,2013-02-10 08:04:00,
2013-02-10 03:05:00,62.9,57.7,30.09,NE,55,4.0,9.0,83,0.00,,---,0.00,VWS V13.00,2013-02-10 08:05:00,
2013-02-10 03:06:00,62.9,57.7,30.09,ENE,74,7.0,10.0,83,0.00,,---,0.00,VWS V13.00,2013-02-10 08:06:00,
2013-02-10 03:07:00,62.9,57.7,30.09,ENE,75,5.0,10.0,83,0.00,,---,0.00,VWS V13.00,2013-02-10 08:07:00,
2013-02-10 03:08:00,62.9,57.7,30.09,East,81,7.0,10.0,83,0.00,,---,0.00,VWS V13.00,2013-02-10 08:08:00,
2013-02-10 03:09:00,62.9,57.7,30.09,East,96,9.0,10.0,83,0.00,,---,0.00,VWS V13.00,2013-02-10 08:09:00,
2013-02-10 03:10:00,62.9,57.7,30.09,East,92,6.0,10.0,83,0.00,,---,0.00,VWS V13.00,2013-02-10 08:10:00,
2013-02-10 03:11:00,62.9,57.7,30.09,ENE,66,4.0,8.0,83,0.00,,---,0.00,VWS V13.00,2013-02-10 08:11:00,
2013-02-10 03:12:00,62.9,57.7,30.09,ENE,67,4.0,8.0,83,0.00,,---,0.00,VWS V13.00,2013-02-10 08:12:00,
2013-02-10 03:13:00,62.9,57.7,30.09,ENE,66,5.0,8.0,83,0.00,,---,0.00,VWS V13.00,2013-02-10 08:13:00,
2013-02-10 03:14:00,62.9,57.7,30.09,NE,51,6.0,10.0,83,0.00,,---,0.00,VWS V13.00,2013-02-10 08:14:00,
2013-02-10 03:15:00,62.9,57.7,30.09,ENE,69,4.0,10.0,83,0.00,,---,0.00,VWS V13.00,2013-02-10 08:15:00,
2013-02-10 03:16:00,62.9,57.7,30.09,ENE,71,4.0,7.0,83,0.00,,---,0.00,VWS V13.00,2013-02-10 08:16:00,
2013-02-10 03:17:00,62.9,57.7,30.09,ENE,72,4.0,7.0,83,0.00,,---,0.00,VWS V13.00,2013-02-10 08:17:00,
2013-02-10 03:18:00,62.9,58.0,30.09,ENE,71,3.0,7.0,84,0.00,,---,0.00,VWS V13.00,2013-02-10 08:18:00,
2013-02-10 03:19:00,62.9,58.0,30.09,ENE,78,7.0,7.0,84,0.00,,---,0.00,VWS V13.00,2013-02-10 08:19:00,
2013-02-10 03:20:00,62.9,58.0,30.09,ENE,72,4.0,7.0,84,0.00,,---,0.00,VWS V13.00,2013-02-10 08:20:00,
2013-02-10 03:21:00,62.9,58.0,30.09,East,80,5.0,7.0,84,0.00,,---,0.00,VWS V13.00,2013-02-10 08:21:00,
2013-02-10 03:22:00,62.9,58.0,30.09,ESE,104,8.0,8.0,84,0.00,,---,0.00,VWS V13.00,2013-02-10 08:22:00,
2013-02-10 03:23:00,62.9,58.0,30.09,East,86,4.0,9.0,84,0.00,,---,0.00,VWS V13.00,2013-02-10 08:23:00,
2013-02-10 03:24:00,62.9,58.0,30.09,East,86,4.0,9.0,84,0.00,,---,0.00,VWS V13.00,2013-02-10 08:24:00,
2013-02-10 03:25:00,62.9,58.0,30.09,ENE,78,5.0,9.0,84,0.00,,---,0.00,VWS V13.00,2013-02-10 08:25:00,
2013-02-10 03:26:00,62.9,58.0,30.09,ENE,71,4.0,9.0,84,0.00,,---,0.00,VWS V13.00,2013-02-10 08:26:00,
2013-02-10 03:27:00,62.9,58.0,30.09,East,83,4.0,9.0,84,0.00,,---,0.00,VWS V13.00,2013-02-10 08:27:00,
2013-02-10 03:28:00,62.9,58.0,30.09,East,86,3.0,9.0,84,0.00,,---,0.00,VWS V13.00,2013-02-10 08:28:00,
2013-02-10 03:29:00,62.9,58.0,30.09,East,82,5.0,9.0,84,0.00,,---,0.00,VWS V13.00,2013-02-10 08:29:00,
2013-02-10 03:30:00,62.9,58.0,30.09,East,82,4.0,9.0,84,0.00,,---,0.00,VWS V13.00,2013-02-10 08:30:00,
2013-02-10 03:31:00,62.9,58.0,30.09,East,86,7.0,10.0,84,0.00,,---,0.00,VWS V13.00,2013-02-10 08:31:00,
2013-02-10 03:32:00,62.9,58.0,30.09,East,91,5.0,10.0,84,0.00,,---,0.00,VWS V13.00,2013-02-10 08:32:00,
2013-02-10 03:33:00,62.9,58.0,30.09,East,86,6.0,10.0,84,0.00,,---,0.00,VWS V13.00,2013-02-10 08:33:00,
2013-02-10 03:34:00,62.9,58.0,30.09,East,83,5.0,10.0,84,0.00,,---,0.00,VWS V13.00,2013-02-10 08:34:00,
2013-02-10 03:35:00,62.9,58.0,30.09,East,84,5.0,10.0,84,0.00,,---,0.00,VWS V13.00,2013-02-10 08:35:00,
2013-02-10 03:36:00,62.9,58.0,30.09,East,79,1.0,6.0,84,0.00,,---,0.00,VWS V13.00,2013-02-10 08:36:00,
2013-02-10 03:37:00,62.9,58.0,30.09,East,80,5.0,7.0,84,0.00,,---,0.00,VWS V13.00,2013-02-10 08:37:00,
2013-02-10 03:38:00,62.9,58.0,30.09,ENE,61,7.0,9.0,84,0.00,,---,0.00,VWS V13.00,2013-02-10 08:38:00,
2013-02-10 03:39:00,62.9,58.0,30.09,ENE,75,5.0,9.0,84,0.00,,---,0.00,VWS V13.00,2013-02-10 08:39:00,
2013-02-10 03:40:00,62.9,58.0,30.09,ENE,68,2.0,9.0,84,0.00,,---,0.00,VWS V13.00,2013-02-10 08:40:00,
2013-02-10 03:41:00,62.9,58.0,30.09,ENE,61,5.0,11.0,84,0.00,,---,0.00,VWS V13.00,2013-02-10 08:41:00,
2013-02-10 03:42:00,62.9,58.0,30.09,East,84,4.0,11.0,84,0.00,,---,0.00,VWS V13.00,2013-02-10 08:42:00,
2013-02-10 03:43:00,62.9,58.0,30.09,ENE,73,5.0,11.0,84,0.00,,---,0.00,VWS V13.00,2013-02-10 08:43:00,
2013-02-10 03:44:00,62.9,58.0,30.09,ENE,76,3.0,11.0,84,0.00,,---,0.00,VWS V13.00,2013-02-10 08:44:00,
2013-02-10 03:45:00,62.9,58.0,30.09,ENE,73,5.0,11.0,84,0.00,,---,0.00,VWS V13.00,2013-02-10 08:45:00,
2013-02-10 03:46:00,62.9,58.0,30.09,ENE,73,4.0,5.0,84,0.00,,---,0.00,VWS V13.00,2013-02-10 08:46:00,
2013-02-10 03:47:00,62.9,58.0,30.09,East,81,8.0,8.0,84,0.00,,---,0.00,VWS V13.00,2013-02-10 08:47:00,
2013-02-10 03:48:00,62.9,58.0,30.09,East,80,5.0,8.0,84,0.00,,---,0.00,VWS V13.00,2013-02-10 08:48:00,
2013-02-10 03:49:00,62.9,58.0,30.09,ENE,76,5.0,8.0,84,0.00,,---,0.00,VWS V13.00,2013-02-10 08:49:00,
2013-02-10 03:50:00,62.9,58.0,30.09,East,79,7.0,8.0,84,0.00,,---,0.00,VWS V13.00,2013-02-10 08:50:00,
2013-02-10 03:51:00,62.9,58.0,30.09,NE,55,5.0,6.0,84,0.00,,---,0.00,VWS V13.00,2013-02-10 08:51:00,
2013-02-10 03:52:00,62.9,58.0,30.09,NE,42,8.0,10.0,84,0.00,,---,0.00,VWS V13.00,2013-02-10 08:52:00,
2013-02-10 03:53:00,62.9,58.0,30.09,East,85,3.0,10.0,84,0.00,,---,0.00,VWS V13.00,2013-02-10 08:53:00,
2013-02-10 03:54:00,62.9,58.0,30.09,East,90,5.0,10.0,84,0.00,,---,0.00,VWS V13.00,2013-02-10 08:54:00,
2013-02-10 03:55:00,62.9,58.0,30.09,ENE,68,7.0,10.0,84,0.00,,---,0.00,VWS V13.00,2013-02-10 08:55:00,
2013-02-10 03:56:00,62.9,58.0,30.09,ENE,64,4.0,9.0,84,0.00,,---,0.00,VWS V13.00,2013-02-10 08:56:00,
2013-02-10 03:57:00,62.9,58.0,30.09,ENE,69,6.0,9.0,84,0.00,,---,0.00,VWS V13.00,2013-02-10 08:57:00,
2013-02-10 03:58:00,62.9,58.0,30.09,ENE,73,6.0,9.0,84,0.00,,---,0.00,VWS V13.00,2013-02-10 08:58:00,
2013-02-10 03:59:00,62.9,58.0,30.09,ENE,75,6.0,9.0,84,0.00,,---,0.00,VWS V13.00,2013-02-10 08:59:00,
2013-02-10 04:00:00,62.9,58.0,30.09,ENE,77,3.0,9.0,84,0.00,,---,0.00,VWS V13.00,2013-02-10 09:00:00,
2013-02-10 04:01:00,62.9,58.0,30.09,East,88,6.0,6.0,84,0.00,,---,0.00,VWS V13.00,2013-02-10 09:01:00,
2013-02-10 04:02:00,62.9,58.0,30.09,East,80,9.0,10.0,84,0.00,,---,0.00,VWS V13.00,2013-02-10 09:02:00,
2013-02-10 04:03:00,62.9,58.0,30.09,ESE,106,5.0,10.0,84,0.00,,---,0.00,VWS V13.00,2013-02-10 09:03:00,
2013-02-10 04:04:00,62.9,58.0,30.09,ENE,69,5.0,10.0,84,0.00,,---,0.00,VWS V13.00,2013-02-10 09:04:00,
2013-02-10 04:05:00,62.9,58.0,30.09,ENE,69,4.0,10.0,84,0.00,,---,0.00,VWS V13.00,2013-02-10 09:05:00,
2013-02-10 04:06:00,62.9,58.0,30.09,East,94,6.0,8.0,84,0.00,,---,0.00,VWS V13.00,2013-02-10 09:06:00,
2013-02-10 04:07:00,62.9,58.0,30.09,East,92,4.0,8.0,84,0.00,,---,0.00,VWS V13.00,2013-02-10 09:07:00,
2013-02-10 04:08:00,62.9,58.0,30.09,ENE,68,6.0,8.0,84,0.00,,---,0.00,VWS V13.00,2013-02-10 09:08:00,
2013-02-10 04:09:00,62.9,58.0,30.09,ENE,66,4.0,8.0,84,0.00,,---,0.00,VWS V13.00,2013-02-10 09:09:00,
2013-02-10 04:10:00,62.9,58.0,30.09,East,85,10.0,10.0,84,0.00,,---,0.00,VWS V13.00,2013-02-10 09:10:00,
2013-02-10 04:11:00,62.9,58.0,30.09,East,94,4.0,10.0,84,0.00,,---,0.00,VWS V13.00,2013-02-10 09:11:00,
2013-02-10 04:12:00,62.9,58.0,30.09,ENE,74,4.0,10.0,84,0.00,,---,0.00,VWS V13.00,2013-02-10 09:12:00,
2013-02-10 04:13:00,62.9,58.0,30.09,East,82,3.0,10.0,84,0.00,,---,0.00,VWS V13.00,2013-02-10 09:13:00,
2013-02-10 04:14:00,62.9,58.0,30.09,East,95,3.0,10.0,84,0.00,,---,0.00,VWS V13.00,2013-02-10 09:14:00,
2013-02-10 04:15:00,62.9,58.0,30.09,East,92,9.0,12.0,84,0.00,,---,0.00,VWS V13.00,2013-02-10 09:15:00,
2013-02-10 04:16:00,62.9,58.0,30.09,East,81,5.0,9.0,84,0.00,,---,0.00,VWS V13.00,2013-02-10 09:16:00,
2013-02-10 04:17:00,62.9,58.0,30.09,ENE,69,7.0,9.0,84,0.00,,---,0.00,VWS V13.00,2013-02-10 09:17:00,
2013-02-10 04:18:00,62.9,58.0,30.09,East,80,5.0,9.0,84,0.00,,---,0.00,VWS V13.00,2013-02-10 09:18:00,
2013-02-10 04:19:00,62.9,58.0,30.09,ENE,75,3.0,9.0,84,0.00,,---,0.00,VWS V13.00,2013-02-10 09:19:00,
2013-02-10 04:20:00,62.9,58.0,30.09,ENE,59,4.0,10.0,84,0.00,,---,0.00,VWS V13.00,2013-02-10 09:20:00,
2013-02-10 04:21:00,62.9,58.0,30.09,East,96,9.0,10.0,84,0.00,,---,0.00,VWS V13.00,2013-02-10 09:21:00,
2013-02-10 04:22:00,62.9,58.0,30.09,East,92,2.0,11.0,84,0.00,,---,0.00,VWS V13.00,2013-02-10 09:22:00,
2013-02-10 04:23:00,62.9,58.0,30.09,East,89,6.0,11.0,84,0.00,,---,0.00,VWS V13.00,2013-02-10 09:23:00,
2013-02-10 04:24:00,62.9,58.0,30.09,East,89,5.0,11.0,84,0.00,,---,0.00,VWS V13.00,2013-02-10 09:24:00,
2013-02-10 04:25:00,62.9,58.0,30.09,East,94,6.0,11.0,84,0.00,,---,0.00,VWS V13.00,2013-02-10 09:25:00,
2013-02-10 04:26:00,62.9,58.0,30.09,East,91,4.0,10.0,84,0.00,,---,0.00,VWS V13.00,2013-02-10 09:26:00,
2013-02-10 04:27:00,62.9,58.0,30.09,ENE,61,5.0,10.0,84,0.00,,---,0.00,VWS V13.00,2013-02-10 09:27:00,
2013-02-10 04:28:00,62.9,58.0,30.09,ENE,77,5.0,10.0,84,0.00,,---,0.00,VWS V13.00,2013-02-10 09:28:00,
2013-02-10 04:29:00,62.9,58.0,30.09,East,91,5.0,10.0,84,0.00,,---,0.00,VWS V13.00,2013-02-10 09:29:00,
2013-02-10 04:30:00,62.9,58.0,30.09,East,91,6.0,10.0,84,0.00,,---,0.00,VWS V13.00,2013-02-10 09:30:00,
2013-02-10 04:31:00,62.9,58.0,30.09,ENE,62,5.0,6.0,84,0.00,,---,0.00,VWS V13.00,2013-02-10 09:31:00,
2013-02-10 04:32:00,62.9,58.0,30.09,ENE,73,5.0,7.0,84,0.00,,---,0.00,VWS V13.00,2013-02-10 09:32:00,
2013-02-10 04:33:00,62.9,58.0,30.09,East,97,6.0,9.0,84,0.00,,---,0.00,VWS V13.00,2013-02-10 09:33:00,
2013-02-10 04:34:00,62.9,58.0,30.09,ESE,108,5.0,9.0,84,0.00,,---,0.00,VWS V13.00,2013-02-10 09:34:00,
2013-02-10 04:35:00,62.9,58.0,30.09,East,96,5.0,9.0,84,0.00,,---,0.00,VWS V13.00,2013-02-10 09:35:00,
2013-02-10 04:36:00,62.9,58.0,30.09,East,97,6.0,7.0,84,0.00,,---,0.00,VWS V13.00,2013-02-10 09:36:00,
2013-02-10 04:37:00,62.8,57.9,30.09,East,96,9.0,9.0,84,0.00,,---,0.00,VWS V13.00,2013-02-10 09:37:00,
2013-02-10 04:38:00,62.8,57.9,30.09,East,87,6.0,9.0,84,0.00,,---,0.00,VWS V13.00,2013-02-10 09:38:00,
2013-02-10 04:39:00,62.8,57.9,30.09,East,85,7.0,9.0,84,0.00,,---,0.00,VWS V13.00,2013-02-10 09:39:00,
2013-02-10 04:40:00,62.8,57.9,30.09,East,86,3.0,9.0,84,0.00,,---,0.00,VWS V13.00,2013-02-10 09:40:00,
2013-02-10 04:41:00,62.8,57.9,30.09,East,79,6.0,9.0,84,0.00,,---,0.00,VWS V13.00,2013-02-10 09:41:00,
2013-02-10 04:42:00,62.8,58.2,30.09,East,90,5.0,9.0,85,0.00,,---,0.00,VWS V13.00,2013-02-10 09:42:00,
2013-02-10 04:43:00,62.8,58.2,30.09,ENE,67,4.0,9.0,85,0.00,,---,0.00,VWS V13.00,2013-02-10 09:43:00,
2013-02-10 04:44:00,62.8,58.2,30.09,East,91,5.0,9.0,85,0.00,,---,0.00,VWS V13.00,2013-02-10 09:44:00,
2013-02-10 04:45:00,62.8,58.2,30.09,ENE,67,6.0,9.0,85,0.00,,---,0.00,VWS V13.00,2013-02-10 09:45:00,
2013-02-10 04:46:00,62.8,58.2,30.09,East,82,5.0,7.0,85,0.00,,---,0.00,VWS V13.00,2013-02-10 09:46:00,
2013-02-10 04:47:00,62.8,58.2,30.09,ENE,61,3.0,7.0,85,0.00,,---,0.00,VWS V13.00,2013-02-10 09:47:00,
2013-02-10 04:48:00,62.8,58.2,30.09,ENE,57,6.0,7.0,85,0.00,,---,0.00,VWS V13.00,2013-02-10 09:48:00,
2013-02-10 04:49:00,62.8,58.2,30.09,East,80,3.0,9.0,85,0.00,,---,0.00,VWS V13.00,2013-02-10 09:49:00,
2013-02-10 04:50:00,62.8,58.2,30.09,East,101,4.0,9.0,85,0.00,,---,0.00,VWS V13.00,2013-02-10 09:50:00,
2013-02-10 04:51:00,62.8,58.2,30.09,East,82,4.0,6.0,85,0.00,,---,0.00,VWS V13.00,2013-02-10 09:51:00,
2013-02-10 04:52:00,62.8,58.2,30.09,East,98,4.0,8.0,85,0.00,,---,0.00,VWS V13.00,2013-02-10 09:52:00,
2013-02-10 04:53:00,62.8,58.2,30.09,East,86,5.0,8.0,85,0.00,,---,0.00,VWS V13.00,2013-02-10 09:53:00,
2013-02-10 04:54:00,62.8,58.2,30.09,ENE,76,8.0,11.0,85,0.00,,---,0.00,VWS V13.00,2013-02-10 09:54:00,
2013-02-10 04:55:00,62.8,58.2,30.09,ENE,62,6.0,11.0,85,0.00,,---,0.00,VWS V13.00,2013-02-10 09:55:00,
2013-02-10 04:56:00,62.8,58.2,30.09,ENE,72,6.0,6.0,85,0.00,,---,0.00,VWS V13.00,2013-02-10 09:56:00,
2013-02-10 04:57:00,62.8,58.2,30.09,ENE,69,4.0,6.0,85,0.00,,---,0.00,VWS V13.00,2013-02-10 09:57:00,
2013-02-10 04:58:00,62.8,58.2,30.09,East,92,4.0,7.0,85,0.00,,---,0.00,VWS V13.00,2013-02-10 09:58:00,
2013-02-10 04:59:00,62.8,58.2,30.09,East,84,3.0,7.0,85,0.00,,---,0.00,VWS V13.00,2013-02-10 09:59:00,
2013-02-10 05:00:00,62.8,58.2,30.09,ENE,68,4.0,7.0,85,0.00,,---,0.00,VWS V13.00,2013-02-10 10:00:00,
2013-02-10 05:01:00,62.8,58.2,30.09,East,96,5.0,9.0,85,0.00,,---,0.00,VWS V13.00,2013-02-10 10:01:00,
2013-02-10 05:02:00,62.8,58.2,30.09,East,96,5.0,9.0,85,0.00,,---,0.00,VWS V13.00,2013-02-10 10:02:00,
2013-02-10 05:03:00,62.6,58.0,30.09,East,91,3.0,9.0,85,0.00,,---,0.00,VWS V13.00,2013-02-10 10:03:00,
2013-02-10 05:04:00,62.6,58.0,30.09,East,82,7.0,9.0,85,0.00,,---,0.00,VWS V13.00,2013-02-10 10:04:00,
2013-02-10 05:05:00,62.6,58.0,30.09,ENE,77,5.0,9.0,85,0.00,,---,0.00,VWS V13.00,2013-02-10 10:05:00,
2013-02-10 05:06:00,62.6,58.0,30.09,East,91,5.0,10.0,85,0.00,,---,0.00,VWS V13.00,2013-02-10 10:06:00,
2013-02-10 05:07:00,62.6,58.0,30.09,ENE,67,3.0,10.0,85,0.00,,---,0.00,VWS V13.00,2013-02-10 10:07:00,
2013-02-10 05:08:00,62.6,58.0,30.09,East,94,2.0,10.0,85,0.00,,---,0.00,VWS V13.00,2013-02-10 10:08:00,
2013-02-10 05:09:00,62.6,58.0,30.09,East,91,4.0,10.0,85,0.00,,---,0.00,VWS V13.00,2013-02-10 10:09:00,
2013-02-10 05:10:00,62.6,58.0,30.09,ENE,78,6.0,10.0,85,0.00,,---,0.00,VWS V13.00,2013-02-10 10:10:00,
2013-02-10 05:11:00,62.6,58.0,30.09,ENE,73,4.0,7.0,85,0.00,,---,0.00,VWS V13.00,2013-02-10 10:11:00,
2013-02-10 05:12:00,62.6,58.0,30.09,East,92,10.0,10.0,85,0.00,,---,0.00,VWS V13.00,2013-02-10 10:12:00,
2013-02-10 05:13:00,62.6,58.0,30.09,East,98,6.0,10.0,85,0.00,,---,0.00,VWS V13.00,2013-02-10 10:13:00,
2013-02-10 05:14:00,62.6,58.0,30.09,East,93,4.0,10.0,85,0.00,,---,0.00,VWS V13.00,2013-02-10 10:14:00,
2013-02-10 05:15:00,62.6,58.0,30.09,East,92,5.0,10.0,85,0.00,,---,0.00,VWS V13.00,2013-02-10 10:15:00,
2013-02-10 05:16:00,62.6,58.0,30.09,East,89,4.0,5.0,85,0.00,,---,0.00,VWS V13.00,2013-02-10 10:16:00,
2013-02-10 05:17:00,62.6,58.0,30.09,East,86,5.0,7.0,85,0.00,,---,0.00,VWS V13.00,2013-02-10 10:17:00,
2013-02-10 05:18:00,62.6,58.0,30.09,East,89,3.0,7.0,85,0.00,,---,0.00,VWS V13.00,2013-02-10 10:18:00,
2013-02-10 05:19:00,62.6,58.0,30.09,East,85,5.0,8.0,85,0.00,,---,0.00,VWS V13.00,2013-02-10 10:19:00,
2013-02-10 05:20:00,62.6,58.0,30.09,ENE,74,4.0,8.0,85,0.00,,---,0.00,VWS V13.00,2013-02-10 10:20:00,
2013-02-10 05:21:00,62.6,58.0,30.09,ENE,76,5.0,5.0,85,0.00,,---,0.00,VWS V13.00,2013-02-10 10:21:00,
2013-02-10 05:22:00,62.6,58.0,30.09,East,85,4.0,9.0,85,0.00,,---,0.00,VWS V13.00,2013-02-10 10:22:00,
2013-02-10 05:23:00,62.6,58.0,30.09,SSE,156,5.0,10.0,85,0.00,,---,0.00,VWS V13.00,2013-02-10 10:23:00,
2013-02-10 05:24:00,62.6,58.0,30.09,East,80,3.0,10.0,85,0.00,,---,0.00,VWS V13.00,2013-02-10 10:24:00,
2013-02-10 05:25:00,62.6,58.0,30.09,East,80,4.0,10.0,85,0.00,,---,0.00,VWS V13.00,2013-02-10 10:25:00,
2013-02-10 05:26:00,62.5,57.9,30.09,East,80,4.0,5.0,85,0.00,,---,0.00,VWS V13.00,2013-02-10 10:26:00,
2013-02-10 05:27:00,62.5,57.9,30.09,ENE,74,6.0,7.0,85,0.00,,---,0.00,VWS V13.00,2013-02-10 10:27:00,
2013-02-10 05:28:00,62.5,57.9,30.09,East,82,4.0,7.0,85,0.00,,---,0.00,VWS V13.00,2013-02-10 10:28:00,
2013-02-10 05:29:00,62.5,57.9,30.09,East,90,5.0,7.0,85,0.00,,---,0.00,VWS V13.00,2013-02-10 10:29:00,
2013-02-10 05:30:00,62.5,57.9,30.09,East,80,5.0,7.0,85,0.00,,---,0.00,VWS V13.00,2013-02-10 10:30:00,
2013-02-10 05:31:00,62.6,58.0,30.09,East,90,4.0,6.0,85,0.00,,---,0.00,VWS V13.00,2013-02-10 10:31:00,
2013-02-10 05:32:00,62.6,58.0,30.09,East,83,7.0,7.0,85,0.00,,---,0.00,VWS V13.00,2013-02-10 10:32:00,
2013-02-10 05:33:00,62.6,58.0,30.09,ENE,63,6.0,7.0,85,0.00,,---,0.00,VWS V13.00,2013-02-10 10:33:00,
2013-02-10 05:34:00,62.6,58.0,30.09,ENE,65,4.0,7.0,85,0.00,,---,0.00,VWS V13.00,2013-02-10 10:34:00,
2013-02-10 05:35:00,62.6,58.0,30.09,ENE,65,4.0,7.0,85,0.00,,---,0.00,VWS V13.00,2013-02-10 10:35:00,
2013-02-10 05:36:00,62.6,58.0,30.09,ENE,65,4.0,7.0,85,0.00,,---,0.00,VWS V13.00,2013-02-10 10:36:00,
2013-02-10 05:37:00,62.6,58.0,30.09,ENE,65,3.0,7.0,85,0.00,,---,0.00,VWS V13.00,2013-02-10 10:37:00,
2013-02-10 05:38:00,62.5,57.9,30.09,ENE,72,5.0,7.0,85,0.00,,---,0.00,VWS V13.00,2013-02-10 10:38:00,
2013-02-10 05:39:00,62.5,57.9,30.09,ENE,77,3.0,7.0,85,0.00,,---,0.00,VWS V13.00,2013-02-10 10:39:00,
2013-02-10 05:40:00,62.5,57.9,30.09,ENE,75,6.0,7.0,85,0.00,,---,0.00,VWS V13.00,2013-02-10 10:40:00,
2013-02-10 05:41:00,62.5,58.3,30.09,ENE,76,5.0,6.0,86,0.00,,---,0.00,VWS V13.00,2013-02-10 10:41:00,
2013-02-10 05:42:00,62.6,58.0,30.09,East,84,6.0,6.0,85,0.00,,---,0.00,VWS V13.00,2013-02-10 10:42:00,
2013-02-10 05:43:00,62.6,58.0,30.09,East,92,4.0,6.0,85,0.00,,---,0.00,VWS V13.00,2013-02-10 10:43:00,
2013-02-10 05:44:00,62.6,58.0,30.09,East,94,4.0,6.0,85,0.00,,---,0.00,VWS V13.00,2013-02-10 10:44:00,
2013-02-10 05:45:00,62.6,58.0,30.10,East,89,3.0,6.0,85,0.00,,---,0.00,VWS V13.00,2013-02-10 10:45:00,
2013-02-10 05:46:00,62.6,58.0,30.10,East,82,5.0,6.0,85,0.00,,---,0.00,VWS V13.00,2013-02-10 10:46:00,
2013-02-10 05:47:00,62.5,57.9,30.10,East,84,3.0,7.0,85,0.00,,---,0.00,VWS V13.00,2013-02-10 10:47:00,
2013-02-10 05:48:00,62.5,57.9,30.10,East,83,3.0,7.0,85,0.00,,---,0.00,VWS V13.00,2013-02-10 10:48:00,
2013-02-10 05:49:00,62.5,58.3,30.10,East,79,4.0,7.0,86,0.00,,---,0.00,VWS V13.00,2013-02-10 10:49:00,
2013-02-10 05:50:00,62.5,58.3,30.10,East,79,4.0,7.0,86,0.00,,---,0.00,VWS V13.00,2013-02-10 10:50:00,
2013-02-10 05:51:00,62.5,58.3,30.10,East,80,3.0,6.0,86,0.00,,---,0.00,VWS V13.00,2013-02-10 10:51:00,
2013-02-10 05:52:00,62.6,58.4,30.10,East,80,3.0,6.0,86,0.00,,---,0.00,VWS V13.00,2013-02-10 10:52:00,
2013-02-10 05:53:00,62.6,58.4,30.10,East,80,5.0,8.0,86,0.00,,---,0.00,VWS V13.00,2013-02-10 10:53:00,
2013-02-10 05:54:00,62.6,58.4,30.10,East,86,6.0,8.0,86,0.00,,---,0.00,VWS V13.00,2013-02-10 10:54:00,
2013-02-10 05:55:00,62.6,58.4,30.10,East,94,6.0,8.0,86,0.00,,---,0.00,VWS V13.00,2013-02-10 10:55:00,
2013-02-10 05:56:00,62.6,58.0,30.10,East,90,1.0,7.0,85,0.00,,---,0.00,VWS V13.00,2013-02-10 10:56:00,
2013-02-10 05:57:00,62.6,58.0,30.10,East,92,6.0,7.0,85,0.00,,---,0.00,VWS V13.00,2013-02-10 10:57:00,
2013-02-10 05:58:00,62.6,58.0,30.10,East,92,1.0,7.0,85,0.00,,---,0.00,VWS V13.00,2013-02-10 10:58:00,
2013-02-10 05:59:00,62.6,58.0,30.10,East,89,2.0,7.0,85,0.00,,---,0.00,VWS V13.00,2013-02-10 10:59:00,
2013-02-10 06:00:00,62.6,58.0,30.11,East,90,2.0,7.0,85,0.00,,---,0.00,VWS V13.00,2013-02-10 11:00:00,
2013-02-10 06:01:00,62.6,58.0,30.11,East,90,2.0,3.0,85,0.00,,---,0.00,VWS V13.00,2013-02-10 11:01:00,
2013-02-10 06:02:00,62.6,58.0,30.11,East,90,3.0,4.0,85,0.00,,---,0.00,VWS V13.00,2013-02-10 11:02:00,
2013-02-10 06:03:00,62.6,58.0,30.11,East,87,3.0,6.0,85,0.00,,---,0.00,VWS V13.00,2013-02-10 11:03:00,
2013-02-10 06:04:00,62.6,58.0,30.11,East,86,4.0,6.0,85,0.00,,---,0.00,VWS V13.00,2013-02-10 11:04:00,
2013-02-10 06:05:00,62.6,58.0,30.11,East,86,4.0,6.0,85,0.00,,---,0.00,VWS V13.00,2013-02-10 11:05:00,
2013-02-10 06:06:00,62.6,58.0,30.11,East,80,5.0,7.0,85,0.00,,---,0.00,VWS V13.00,2013-02-10 11:06:00,
2013-02-10 06:07:00,62.6,58.0,30.11,ENE,63,6.0,7.0,85,0.00,,---,0.00,VWS V13.00,2013-02-10 11:07:00,
2013-02-10 06:08:00,62.6,58.0,30.11,ENE,63,5.0,7.0,85,0.00,,---,0.00,VWS V13.00,2013-02-10 11:08:00,
2013-02-10 06:09:00,62.6,58.0,30.11,ENE,63,3.0,7.0,85,0.00,,---,0.00,VWS V13.00,2013-02-10 11:09:00,
2013-02-10 06:10:00,62.6,58.0,30.11,ENE,63,2.0,7.0,85,0.00,,---,0.00,VWS V13.00,2013-02-10 11:10:00,
2013-02-10 06:11:00,62.6,58.0,30.11,ENE,63,4.0,4.0,85,0.00,,---,0.00,VWS V13.00,2013-02-10 11:11:00,
2013-02-10 06:12:00,62.6,58.0,30.11,ENE,63,2.0,5.0,85,0.00,,---,0.00,VWS V13.00,2013-02-10 11:12:00,
2013-02-10 06:13:00,62.6,58.0,30.11,ENE,63,2.0,5.0,85,0.00,,---,0.00,VWS V13.00,2013-02-10 11:13:00,
2013-02-10 06:14:00,62.6,58.0,30.12,ENE,63,3.0,5.0,85,0.00,,---,0.00,VWS V13.00,2013-02-10 11:14:00,
2013-02-10 06:15:00,62.6,58.0,30.12,ENE,63,3.0,5.0,85,0.00,,---,0.00,VWS V13.00,2013-02-10 11:15:00,
2013-02-10 06:16:00,62.6,58.0,30.12,ENE,65,3.0,5.0,85,0.00,,---,0.00,VWS V13.00,2013-02-10 11:16:00,
2013-02-10 06:17:00,62.6,58.0,30.12,ENE,65,2.0,5.0,85,0.00,,---,0.00,VWS V13.00,2013-02-10 11:17:00,
2013-02-10 06:18:00,62.6,58.0,30.12,ENE,65,3.0,5.0,85,0.00,,---,0.00,VWS V13.00,2013-02-10 11:18:00,
2013-02-10 06:19:00,62.6,58.0,30.12,ENE,65,3.0,5.0,85,0.00,,---,0.00,VWS V13.00,2013-02-10 11:19:00,
2013-02-10 06:20:00,62.6,58.0,30.12,ENE,65,2.0,5.0,85,0.00,,---,0.00,VWS V13.00,2013-02-10 11:20:00,
2013-02-10 06:21:00,62.6,58.0,30.12,ENE,65,4.0,4.0,85,0.00,,---,0.00,VWS V13.00,2013-02-10 11:21:00,
2013-02-10 06:22:00,62.5,57.9,30.12,ENE,68,3.0,5.0,85,0.00,,---,0.00,VWS V13.00,2013-02-10 11:22:00,
2013-02-10 06:23:00,62.5,57.9,30.12,ENE,72,3.0,6.0,85,0.00,,---,0.00,VWS V13.00,2013-02-10 11:23:00,
2013-02-10 06:24:00,62.5,58.3,30.12,ENE,72,2.0,6.0,86,0.00,,---,0.00,VWS V13.00,2013-02-10 11:24:00,
2013-02-10 06:25:00,62.5,58.3,30.12,ENE,72,0.0,6.0,86,0.00,,---,0.00,VWS V13.00,2013-02-10 11:25:00,
2013-02-10 06:26:00,62.5,57.9,30.12,ENE,72,5.0,5.0,85,0.00,,---,0.00,VWS V13.00,2013-02-10 11:26:00,
2013-02-10 06:27:00,62.5,58.3,30.12,ENE,72,3.0,5.0,86,0.00,,---,0.00,VWS V13.00,2013-02-10 11:27:00,
2013-02-10 06:28:00,62.5,58.3,30.12,ENE,72,2.0,5.0,86,0.00,,---,0.00,VWS V13.00,2013-02-10 11:28:00,
2013-02-10 06:29:00,62.5,58.3,30.12,ENE,73,3.0,5.0,86,0.00,,---,0.00,VWS V13.00,2013-02-10 11:29:00,
2013-02-10 06:30:00,62.5,58.3,30.12,ENE,73,1.0,5.0,86,0.00,,---,0.00,VWS V13.00,2013-02-10 11:30:00,
2013-02-10 06:31:00,62.5,58.3,30.12,ENE,73,5.0,6.0,86,0.00,,---,0.00,VWS V13.00,2013-02-10 11:31:00,
2013-02-10 06:32:00,62.5,58.3,30.12,ENE,73,3.0,6.0,86,0.00,,---,0.00,VWS V13.00,2013-02-10 11:32:00,
2013-02-10 06:33:00,62.5,58.3,30.12,ENE,73,3.0,6.0,86,0.00,,---,0.00,VWS V13.00,2013-02-10 11:33:00,
2013-02-10 06:34:00,62.5,58.3,30.12,ENE,73,4.0,6.0,86,0.00,,---,0.00,VWS V13.00,2013-02-10 11:34:00,
2013-02-10 06:35:00,62.5,58.3,30.12,ENE,73,3.0,6.0,86,0.00,,---,0.00,VWS V13.00,2013-02-10 11:35:00,
2013-02-10 06:36:00,62.5,58.3,30.12,ENE,73,5.0,5.0,86,0.00,,---,0.00,VWS V13.00,2013-02-10 11:36:00,
2013-02-10 06:37:00,62.5,58.3,30.12,ENE,73,2.0,5.0,86,0.00,,---,0.00,VWS V13.00,2013-02-10 11:37:00,
2013-02-10 06:38:00,62.5,58.3,30.12,ENE,73,3.0,6.0,86,0.00,,---,0.00,VWS V13.00,2013-02-10 11:38:00,
2013-02-10 06:39:00,62.5,58.3,30.12,ENE,73,1.0,6.0,86,0.00,,---,0.00,VWS V13.00,2013-02-10 11:39:00,
2013-02-10 06:40:00,62.5,58.3,30.12,ENE,73,3.0,6.0,86,0.00,,---,0.00,VWS V13.00,2013-02-10 11:40:00,
2013-02-10 06:41:00,62.6,58.4,30.12,ENE,73,4.0,4.0,86,0.00,,---,0.00,VWS V13.00,2013-02-10 11:41:00,
2013-02-10 06:42:00,62.6,58.4,30.12,ENE,74,3.0,5.0,86,0.00,,---,0.00,VWS V13.00,2013-02-10 11:42:00,
2013-02-10 06:43:00,62.6,58.4,30.12,ENE,74,4.0,5.0,86,0.00,,---,0.00,VWS V13.00,2013-02-10 11:43:00,
2013-02-10 06:44:00,62.6,58.4,30.13,ENE,74,1.0,5.0,86,0.00,,---,0.00,VWS V13.00,2013-02-10 11:44:00,
2013-02-10 06:45:00,62.6,58.4,30.13,ENE,74,3.0,5.0,86,0.00,,---,0.00,VWS V13.00,2013-02-10 11:45:00,
2013-02-10 06:46:00,62.6,58.4,30.13,ENE,74,3.0,6.0,86,0.00,,---,0.00,VWS V13.00,2013-02-10 11:46:00,
2013-02-10 06:47:00,62.6,58.4,30.13,ENE,73,0.0,6.0,86,0.00,,---,0.00,VWS V13.00,2013-02-10 11:47:00,
2013-02-10 06:48:00,62.6,58.4,30.13,ENE,73,4.0,6.0,86,0.00,,---,0.00,VWS V13.00,2013-02-10 11:48:00,
2013-02-10 06:49:00,62.6,58.4,30.13,ENE,76,4.0,6.0,86,0.00,,---,0.00,VWS V13.00,2013-02-10 11:49:00,
2013-02-10 06:50:00,62.6,58.4,30.13,ENE,76,3.0,6.0,86,0.00,,---,0.00,VWS V13.00,2013-02-10 11:50:00,
2013-02-10 06:51:00,62.8,58.6,30.13,ENE,76,2.0,3.0,86,0.00,,---,0.00,VWS V13.00,2013-02-10 11:51:00,
2013-02-10 06:52:00,62.8,58.6,30.13,ENE,76,2.0,3.0,86,0.00,,---,0.00,VWS V13.00,2013-02-10 11:52:00,
2013-02-10 06:53:00,62.8,58.6,30.13,East,79,3.0,7.0,86,0.00,,---,0.00,VWS V13.00,2013-02-10 11:53:00,
2013-02-10 06:54:00,62.8,58.6,30.13,East,79,5.0,7.0,86,0.00,,---,0.00,VWS V13.00,2013-02-10 11:54:00,
2013-02-10 06:55:00,62.8,58.6,30.13,East,79,5.0,7.0,86,0.00,,---,0.00,VWS V13.00,2013-02-10 11:55:00,
2013-02-10 06:56:00,62.8,58.6,30.13,East,80,6.0,6.0,86,0.00,,---,0.00,VWS V13.00,2013-02-10 11:56:00,
2013-02-10 06:57:00,62.8,58.6,30.13,East,82,5.0,6.0,86,0.00,,---,0.00,VWS V13.00,2013-02-10 11:57:00,
2013-02-10 06:58:00,62.8,58.6,30.13,East,82,5.0,6.0,86,0.00,,---,0.00,VWS V13.00,2013-02-10 11:58:00,
2013-02-10 06:59:00,62.8,58.6,30.13,East,82,3.0,6.0,86,0.00,,---,0.00,VWS V13.00,2013-02-10 11:59:00,
2013-02-10 07:00:00,62.8,58.6,30.13,East,82,4.0,6.0,86,0.00,,---,0.00,VWS V13.00,2013-02-10 12:00:00,
2013-02-10 07:01:00,62.8,58.6,30.13,East,94,5.0,7.0,86,0.00,,---,0.00,VWS V13.00,2013-02-10 12:01:00,
2013-02-10 07:02:00,62.9,58.7,30.13,East,93,2.0,7.0,86,0.00,,---,0.00,VWS V13.00,2013-02-10 12:02:00,
2013-02-10 07:03:00,62.9,58.7,30.13,East,90,5.0,7.0,86,0.00,,---,0.00,VWS V13.00,2013-02-10 12:03:00,
2013-02-10 07:04:00,62.9,58.7,30.13,East,90,1.0,7.0,86,0.00,,---,0.00,VWS V13.00,2013-02-10 12:04:00,
2013-02-10 07:05:00,62.9,58.7,30.13,East,90,2.0,7.0,86,0.00,,---,0.00,VWS V13.00,2013-02-10 12:05:00,
2013-02-10 07:06:00,62.9,58.3,30.13,East,86,5.0,5.0,85,0.00,,---,0.00,VWS V13.00,2013-02-10 12:06:00,
2013-02-10 07:07:00,62.9,58.3,30.13,East,90,3.0,7.0,85,0.00,,---,0.00,VWS V13.00,2013-02-10 12:07:00,
2013-02-10 07:08:00,62.9,58.3,30.13,East,89,3.0,7.0,85,0.00,,---,0.00,VWS V13.00,2013-02-10 12:08:00,
2013-02-10 07:09:00,62.9,58.3,30.13,East,88,2.0,7.0,85,0.00,,---,0.00,VWS V13.00,2013-02-10 12:09:00,
2013-02-10 07:10:00,62.9,58.3,30.13,East,89,4.0,7.0,85,0.00,,---,0.00,VWS V13.00,2013-02-10 12:10:00,
2013-02-10 07:11:00,62.9,58.3,30.13,East,89,2.0,5.0,85,0.00,,---,0.00,VWS V13.00,2013-02-10 12:11:00,
2013-02-10 07:12:00,63.1,58.5,30.13,ENE,74,7.0,7.0,85,0.00,,---,0.00,VWS V13.00,2013-02-10 12:12:00,
2013-02-10 07:13:00,63.1,58.5,30.13,East,88,5.0,7.0,85,0.00,,---,0.00,VWS V13.00,2013-02-10 12:13:00,
2013-02-10 07:14:00,63.1,58.5,30.13,East,84,3.0,7.0,85,0.00,,---,0.00,VWS V13.00,2013-02-10 12:14:00,
2013-02-10 07:15:00,63.1,58.5,30.13,East,84,3.0,7.0,85,0.00,,---,0.00,VWS V13.00,2013-02-10 12:15:00,
2013-02-10 07:16:00,63.2,58.6,30.13,East,90,6.0,7.0,85,0.00,,---,0.00,VWS V13.00,2013-02-10 12:16:00,
2013-02-10 07:17:00,63.2,58.6,30.13,East,84,5.0,7.0,85,0.00,,---,0.00,VWS V13.00,2013-02-10 12:17:00,
2013-02-10 07:18:00,63.2,58.6,30.13,East,84,6.0,7.0,85,0.00,,---,0.00,VWS V13.00,2013-02-10 12:18:00,
2013-02-10 07:19:00,63.4,58.8,30.13,East,88,6.0,7.0,85,0.00,,---,0.00,VWS V13.00,2013-02-10 12:19:00,
2013-02-10 07:20:00,63.4,58.8,30.13,East,80,7.0,9.0,85,0.00,,---,0.00,VWS V13.00,2013-02-10 12:20:00,
2013-02-10 07:21:00,63.6,59.0,30.13,East,80,5.0,5.0,85,0.00,,---,0.00,VWS V13.00,2013-02-10 12:21:00,
2013-02-10 07:22:00,63.6,58.7,30.13,East,82,5.0,6.0,84,0.00,,---,0.00,VWS V13.00,2013-02-10 12:22:00,
2013-02-10 07:23:00,63.7,58.8,30.13,East,83,3.0,6.0,84,0.00,,---,0.00,VWS V13.00,2013-02-10 12:23:00,
2013-02-10 07:24:00,63.7,58.8,30.13,ENE,76,6.0,6.0,84,0.00,,---,0.00,VWS V13.00,2013-02-10 12:24:00,
2013-02-10 07:25:00,63.9,59.0,30.13,East,79,4.0,6.0,84,0.00,,---,0.00,VWS V13.00,2013-02-10 12:25:00,
2013-02-10 07:26:00,63.9,59.0,30.13,East,80,3.0,6.0,84,0.00,,---,0.00,VWS V13.00,2013-02-10 12:26:00,
2013-02-10 07:27:00,64.0,59.1,30.13,East,80,3.0,6.0,84,0.00,,---,0.00,VWS V13.00,2013-02-10 12:27:00,
2013-02-10 07:28:00,64.2,59.3,30.13,East,80,7.0,7.0,84,0.00,,---,0.00,VWS V13.00,2013-02-10 12:28:00,
2013-02-10 07:29:00,64.2,58.9,30.14,East,91,5.0,7.0,83,0.00,,---,0.00,VWS V13.00,2013-02-10 12:29:00,
2013-02-10 07:30:00,64.3,59.0,30.14,East,91,6.0,7.0,83,0.00,,---,0.00,VWS V13.00,2013-02-10 12:30:00,
2013-02-10 07:31:00,64.5,59.2,30.14,East,90,3.0,6.0,83,0.00,,---,0.00,VWS V13.00,2013-02-10 12:31:00,
2013-02-10 07:32:00,64.5,59.2,30.14,East,89,2.0,6.0,83,0.00,,---,0.00,VWS V13.00,2013-02-10 12:32:00,
2013-02-10 07:33:00,64.7,59.1,30.14,East,89,2.0,6.0,82,0.00,,---,0.00,VWS V13.00,2013-02-10 12:33:00,
2013-02-10 07:34:00,64.8,59.2,30.14,East,96,5.0,8.0,82,0.00,,---,0.00,VWS V13.00,2013-02-10 12:34:00,
2013-02-10 07:35:00,64.8,59.2,30.14,East,92,3.0,8.0,82,0.00,,---,0.00,VWS V13.00,2013-02-10 12:35:00,
2013-02-10 07:36:00,65.0,59.4,30.14,East,89,4.0,5.0,82,0.00,,---,0.00,VWS V13.00,2013-02-10 12:36:00,
2013-02-10 07:37:00,65.1,59.5,30.14,East,90,1.0,6.0,82,0.00,,---,0.00,VWS V13.00,2013-02-10 12:37:00,
2013-02-10 07:38:00,65.3,59.7,30.14,East,80,6.0,6.0,82,0.00,,---,0.00,VWS V13.00,2013-02-10 12:38:00,
2013-02-10 07:39:00,65.3,59.3,30.14,East,95,5.0,6.0,81,0.00,,---,0.00,VWS V13.00,2013-02-10 12:39:00,
2013-02-10 07:40:00,65.5,59.5,30.14,East,89,2.0,7.0,81,0.00,,---,0.00,VWS V13.00,2013-02-10 12:40:00,
2013-02-10 07:41:00,65.6,59.3,30.14,ENE,71,3.0,7.0,80,0.00,,---,0.00,VWS V13.00,2013-02-10 12:41:00,
2013-02-10 07:42:00,65.8,59.8,30.14,East,89,6.0,7.0,81,0.00,,---,0.00,VWS V13.00,2013-02-10 12:42:00,
2013-02-10 07:43:00,65.8,59.5,30.14,ENE,65,4.0,9.0,80,0.00,,---,0.00,VWS V13.00,2013-02-10 12:43:00,
2013-02-10 07:44:00,65.9,59.2,30.14,ENE,75,3.0,10.0,79,0.00,,---,0.00,VWS V13.00,2013-02-10 12:44:00,
2013-02-10 07:45:00,65.9,59.2,30.14,East,99,9.0,10.0,79,0.00,,---,0.00,VWS V13.00,2013-02-10 12:45:00,
2013-02-10 07:46:00,66.1,59.4,30.14,ESE,111,4.0,11.0,79,0.00,,---,0.00,VWS V13.00,2013-02-10 12:46:00,
2013-02-10 07:47:00,66.1,59.4,30.14,East,99,4.0,11.0,79,0.00,,---,0.00,VWS V13.00,2013-02-10 12:47:00,
2013-02-10 07:48:00,66.3,59.6,30.14,East,90,4.0,11.0,79,0.00,,---,0.00,VWS V13.00,2013-02-10 12:48:00,
2013-02-10 07:49:00,66.3,59.6,30.14,East,80,4.0,11.0,79,0.00,,---,0.00,VWS V13.00,2013-02-10 12:49:00,
2013-02-10 07:50:00,66.4,59.3,30.14,East,90,4.0,11.0,78,0.00,,---,0.00,VWS V13.00,2013-02-10 12:50:00,
2013-02-10 07:51:00,66.6,59.5,30.14,East,94,6.0,7.0,78,0.00,,---,0.00,VWS V13.00,2013-02-10 12:51:00,
2013-02-10 07:52:00,66.6,59.5,30.14,East,98,3.0,7.0,78,0.00,,---,0.00,VWS V13.00,2013-02-10 12:52:00,
2013-02-10 07:53:00,66.8,59.7,30.14,East,89,4.0,7.0,78,0.00,,---,0.00,VWS V13.00,2013-02-10 12:53:00,
2013-02-10 07:54:00,66.9,59.8,30.14,East,96,6.0,7.0,78,0.00,,---,0.00,VWS V13.00,2013-02-10 12:54:00,
2013-02-10 07:55:00,66.9,59.5,30.14,East,83,5.0,11.0,77,0.00,,---,0.00,VWS V13.00,2013-02-10 12:55:00,
2013-02-10 07:56:00,67.1,59.7,30.14,ENE,78,6.0,10.0,77,0.00,,---,0.00,VWS V13.00,2013-02-10 12:56:00,
2013-02-10 07:57:00,67.1,59.7,30.14,ENE,77,5.0,10.0,77,0.00,,---,0.00,VWS V13.00,2013-02-10 12:57:00,
2013-02-10 07:58:00,67.2,59.8,30.14,ESE,111,6.0,10.0,77,0.00,,---,0.00,VWS V13.00,2013-02-10 12:58:00,
2013-02-10 07:59:00,67.4,59.6,30.14,ESE,110,4.0,10.0,76,0.00,,---,0.00,VWS V13.00,2013-02-10 12:59:00,
2013-02-10 08:00:00,67.4,59.6,30.15,ESE,105,5.0,10.0,76,0.00,,---,0.00,VWS V13.00,2013-02-10 13:00:00,
2013-02-10 08:01:00,67.6,59.8,30.15,East,97,6.0,6.0,76,0.00,,---,0.00,VWS V13.00,2013-02-10 13:01:00,
2013-02-10 08:02:00,67.6,59.8,30.15,ENE,78,4.0,7.0,76,0.00,,---,0.00,VWS V13.00,2013-02-10 13:02:00,
2013-02-10 08:03:00,67.7,59.9,30.15,East,80,5.0,7.0,76,0.00,,---,0.00,VWS V13.00,2013-02-10 13:03:00,
2013-02-10 08:04:00,67.9,59.7,30.15,SE,130,4.0,7.0,75,0.00,,---,0.00,VWS V13.00,2013-02-10 13:04:00,
2013-02-10 08:05:00,67.9,59.7,30.15,ESE,110,6.0,7.0,75,0.00,,---,0.00,VWS V13.00,2013-02-10 13:05:00,
2013-02-10 08:06:00,68.0,59.8,30.15,East,98,4.0,6.0,75,0.00,,---,0.00,VWS V13.00,2013-02-10 13:06:00,
2013-02-10 08:07:00,68.0,59.8,30.15,East,92,4.0,6.0,75,0.00,,---,0.00,VWS V13.00,2013-02-10 13:07:00,
2013-02-10 08:08:00,68.2,60.0,30.15,SE,132,4.0,10.0,75,0.00,,---,0.00,VWS V13.00,2013-02-10 13:08:00,
2013-02-10 08:09:00,68.2,59.6,30.15,SE,132,8.0,10.0,74,0.00,,---,0.00,VWS V13.00,2013-02-10 13:09:00,
2013-02-10 08:10:00,68.2,59.6,30.15,ESE,107,4.0,10.0,74,0.00,,---,0.00,VWS V13.00,2013-02-10 13:10:00,
2013-02-10 08:11:00,68.4,59.8,30.15,East,82,6.0,6.0,74,0.00,,---,0.00,VWS V13.00,2013-02-10 13:11:00,
2013-02-10 08:12:00,68.4,59.8,30.15,East,94,8.0,8.0,74,0.00,,---,0.00,VWS V13.00,2013-02-10 13:12:00,
2013-02-10 08:13:00,68.5,59.9,30.15,East,98,12.0,12.0,74,0.00,,---,0.00,VWS V13.00,2013-02-10 13:13:00,
2013-02-10 08:14:00,68.5,59.9,30.15,ESE,111,4.0,12.0,74,0.00,,---,0.00,VWS V13.00,2013-02-10 13:14:00,
2013-02-10 08:15:00,68.5,59.9,30.15,East,84,6.0,12.0,74,0.00,,---,0.00,VWS V13.00,2013-02-10 13:15:00,
2013-02-10 08:16:00,68.5,59.9,30.15,East,82,5.0,9.0,74,0.00,,---,0.00,VWS V13.00,2013-02-10 13:16:00,
2013-02-10 08:17:00,68.7,59.7,30.15,East,92,7.0,10.0,73,0.00,,---,0.00,VWS V13.00,2013-02-10 13:17:00,
2013-02-10 08:18:00,68.7,59.7,30.15,ENE,73,4.0,10.0,73,0.00,,---,0.00,VWS V13.00,2013-02-10 13:18:00,
2013-02-10 08:19:00,68.7,59.7,30.15,East,79,5.0,10.0,73,0.00,,---,0.00,VWS V13.00,2013-02-10 13:19:00,
2013-02-10 08:20:00,68.7,59.7,30.15,ENE,63,6.0,10.0,73,0.00,,---,0.00,VWS V13.00,2013-02-10 13:20:00,
2013-02-10 08:21:00,68.9,59.9,30.15,East,97,4.0,10.0,73,0.00,,---,0.00,VWS V13.00,2013-02-10 13:21:00,
2013-02-10 08:22:00,68.9,59.9,30.15,East,81,5.0,10.0,73,0.00,,---,0.00,VWS V13.00,2013-02-10 13:22:00,
2013-02-10 08:23:00,68.9,59.9,30.15,East,82,4.0,10.0,73,0.00,,---,0.00,VWS V13.00,2013-02-10 13:23:00,
2013-02-10 08:24:00,69.0,60.0,30.15,ENE,76,7.0,10.0,73,0.00,,---,0.00,VWS V13.00,2013-02-10 13:24:00,
2013-02-10 08:25:00,69.2,59.8,30.15,ENE,74,7.0,11.0,72,0.00,,---,0.00,VWS V13.00,2013-02-10 13:25:00,
2013-02-10 08:26:00,69.2,59.8,30.15,East,94,6.0,9.0,72,0.00,,---,0.00,VWS V13.00,2013-02-10 13:26:00,
2013-02-10 08:27:00,69.4,60.0,30.15,ESE,113,4.0,10.0,72,0.00,,---,0.00,VWS V13.00,2013-02-10 13:27:00,
2013-02-10 08:28:00,69.4,60.0,30.15,ESE,103,7.0,10.0,72,0.00,,---,0.00,VWS V13.00,2013-02-10 13:28:00,
2013-02-10 08:29:00,69.5,59.7,30.17,SE,140,6.0,11.0,71,0.00,,---,0.00,VWS V13.00,2013-02-10 13:29:00,
2013-02-10 08:30:00,69.5,59.7,30.17,SE,140,3.0,11.0,71,0.00,,---,0.00,VWS V13.00,2013-02-10 13:30:00,
2013-02-10 08:31:00,69.7,59.9,30.17,East,97,5.0,10.0,71,0.00,,---,0.00,VWS V13.00,2013-02-10 13:31:00,
2013-02-10 08:32:00,69.7,59.9,30.17,East,85,7.0,10.0,71,0.00,,---,0.00,VWS V13.00,2013-02-10 13:32:00,
2013-02-10 08:33:00,69.9,60.1,30.17,East,90,4.0,10.0,71,0.00,,---,0.00,VWS V13.00,2013-02-10 13:33:00,
2013-02-10 08:34:00,70.0,60.2,30.17,East,88,6.0,11.0,71,0.00,,---,0.00,VWS V13.00,2013-02-10 13:34:00,
2013-02-10 08:35:00,70.0,59.8,30.17,ENE,64,9.0,11.0,70,0.00,,---,0.00,VWS V13.00,2013-02-10 13:35:00,
2013-02-10 08:36:00,70.0,59.8,30.17,SE,138,5.0,11.0,70,0.00,,---,0.00,VWS V13.00,2013-02-10 13:36:00,
2013-02-10 08:37:00,70.2,60.0,30.17,SE,142,5.0,11.0,70,0.00,,---,0.00,VWS V13.00,2013-02-10 13:37:00,
2013-02-10 08:38:00,70.2,60.0,30.17,SE,136,7.0,11.0,70,0.00,,---,0.00,VWS V13.00,2013-02-10 13:38:00,
2013-02-10 08:39:00,70.2,60.0,30.17,East,99,3.0,11.0,70,0.00,,---,0.00,VWS V13.00,2013-02-10 13:39:00,
2013-02-10 08:40:00,70.4,60.2,30.17,East,87,13.0,13.0,70,0.00,,---,0.00,VWS V13.00,2013-02-10 13:40:00,
2013-02-10 08:41:00,70.4,59.8,30.17,East,95,5.0,13.0,69,0.00,,---,0.00,VWS V13.00,2013-02-10 13:41:00,
2013-02-10 08:42:00,70.4,60.2,30.17,SE,138,3.0,13.0,70,0.00,,---,0.00,VWS V13.00,2013-02-10 13:42:00,
2013-02-10 08:43:00,70.5,60.3,30.17,SE,128,7.0,13.0,70,0.00,,---,0.00,VWS V13.00,2013-02-10 13:43:00,
2013-02-10 08:44:00,70.5,59.8,30.17,SSE,156,16.0,16.0,69,0.00,,---,0.00,VWS V13.00,2013-02-10 13:44:00,
2013-02-10 08:45:00,70.5,59.8,30.17,SE,137,5.0,16.0,69,0.00,,---,0.00,VWS V13.00,2013-02-10 13:45:00,
2013-02-10 08:46:00,70.7,60.5,30.17,ESE,110,5.0,6.0,70,0.00,,---,0.00,VWS V13.00,2013-02-10 13:46:00,
2013-02-10 08:47:00,70.7,60.5,30.17,East,96,5.0,10.0,70,0.00,,---,0.00,VWS V13.00,2013-02-10 13:47:00,
2013-02-10 08:48:00,70.7,60.5,30.17,East,90,4.0,10.0,70,0.00,,---,0.00,VWS V13.00,2013-02-10 13:48:00,
2013-02-10 08:49:00,70.9,60.2,30.17,East,93,5.0,10.0,69,0.00,,---,0.00,VWS V13.00,2013-02-10 13:49:00,
2013-02-10 08:50:00,71.0,60.7,30.17,ESE,111,4.0,10.0,70,0.00,,---,0.00,VWS V13.00,2013-02-10 13:50:00,
2013-02-10 08:51:00,71.2,60.5,30.17,East,92,4.0,12.0,69,0.00,,---,0.00,VWS V13.00,2013-02-10 13:51:00,
2013-02-10 08:52:00,71.2,60.5,30.17,ESE,111,4.0,12.0,69,0.00,,---,0.00,VWS V13.00,2013-02-10 13:52:00,
2013-02-10 08:53:00,71.4,60.3,30.17,ESE,103,4.0,12.0,68,0.00,,---,0.00,VWS V13.00,2013-02-10 13:53:00,
2013-02-10 08:54:00,71.5,60.4,30.17,SE,133,6.0,12.0,68,0.00,,---,0.00,VWS V13.00,2013-02-10 13:54:00,
2013-02-10 08:55:00,71.5,60.4,30.17,ESE,117,8.0,12.0,68,0.00,,---,0.00,VWS V13.00,2013-02-10 13:55:00,
2013-02-10 08:56:00,71.7,60.6,30.17,East,88,7.0,11.0,68,0.00,,---,0.00,VWS V13.00,2013-02-10 13:56:00,
2013-02-10 08:57:00,71.7,60.2,30.17,ESE,119,4.0,13.0,67,0.00,,---,0.00,VWS V13.00,2013-02-10 13:57:00,
2013-02-10 08:58:00,71.9,60.4,30.17,East,92,12.0,13.0,67,0.00,,---,0.00,VWS V13.00,2013-02-10 13:58:00,
2013-02-10 08:59:00,71.7,60.2,30.17,SE,130,4.0,13.0,67,0.00,,---,0.00,VWS V13.00,2013-02-10 13:59:00,
2013-02-10 09:00:00,71.9,60.8,30.17,East,93,5.0,13.0,68,0.00,,---,0.00,VWS V13.00,2013-02-10 14:00:00,
2013-02-10 09:01:00,71.9,60.8,30.17,East,85,7.0,15.0,68,0.00,,---,0.00,VWS V13.00,2013-02-10 14:01:00,
2013-02-10 09:02:00,71.9,60.4,30.17,ESE,115,7.0,15.0,67,0.00,,---,0.00,VWS V13.00,2013-02-10 14:02:00,
2013-02-10 09:03:00,71.9,60.4,30.17,East,83,12.0,15.0,67,0.00,,---,0.00,VWS V13.00,2013-02-10 14:03:00,
2013-02-10 09:04:00,71.9,60.4,30.17,East,101,5.0,15.0,67,0.00,,---,0.00,VWS V13.00,2013-02-10 14:04:00,
2013-02-10 09:05:00,71.9,60.4,30.17,ENE,76,7.0,15.0,67,0.00,,---,0.00,VWS V13.00,2013-02-10 14:05:00,
2013-02-10 09:06:00,71.9,60.4,30.17,East,98,7.0,14.0,67,0.00,,---,0.00,VWS V13.00,2013-02-10 14:06:00,
2013-02-10 09:07:00,72.0,60.5,30.17,East,87,10.0,14.0,67,0.00,,---,0.00,VWS V13.00,2013-02-10 14:07:00,
2013-02-10 09:08:00,72.0,60.5,30.17,East,94,12.0,14.0,67,0.00,,---,0.00,VWS V13.00,2013-02-10 14:08:00,
2013-02-10 09:09:00,72.0,60.5,30.17,East,80,6.0,16.0,67,0.00,,---,0.00,VWS V13.00,2013-02-10 14:09:00,
2013-02-10 09:10:00,72.0,60.5,30.17,ESE,105,10.0,16.0,67,0.00,,---,0.00,VWS V13.00,2013-02-10 14:10:00,
2013-02-10 09:11:00,72.0,60.5,30.17,ENE,78,9.0,14.0,67,0.00,,---,0.00,VWS V13.00,2013-02-10 14:11:00,
2013-02-10 09:12:00,72.2,60.7,30.17,East,82,11.0,15.0,67,0.00,,---,0.00,VWS V13.00,2013-02-10 14:12:00,
2013-02-10 09:13:00,72.2,60.7,30.17,ESE,113,10.0,15.0,67,0.00,,---,0.00,VWS V13.00,2013-02-10 14:13:00,
2013-02-10 09:14:00,72.2,60.7,30.17,ESE,103,8.0,15.0,67,0.00,,---,0.00,VWS V13.00,2013-02-10 14:14:00,
2013-02-10 09:15:00,72.2,60.7,30.17,ESE,120,12.0,15.0,67,0.00,,---,0.00,VWS V13.00,2013-02-10 14:15:00,
2013-02-10 09:16:00,72.2,60.7,30.17,ESE,116,9.0,12.0,67,0.00,,---,0.00,VWS V13.00,2013-02-10 14:16:00,
2013-02-10 09:17:00,72.2,60.7,30.17,ESE,117,5.0,12.0,67,0.00,,---,0.00,VWS V13.00,2013-02-10 14:17:00,
2013-02-10 09:18:00,72.0,60.5,30.17,ENE,65,6.0,15.0,67,0.00,,---,0.00,VWS V13.00,2013-02-10 14:18:00,
2013-02-10 09:19:00,72.0,60.5,30.17,ESE,105,6.0,15.0,67,0.00,,---,0.00,VWS V13.00,2013-02-10 14:19:00,
2013-02-10 09:20:00,72.2,60.7,30.17,East,80,11.0,17.0,67,0.00,,---,0.00,VWS V13.00,2013-02-10 14:20:00,
2013-02-10 09:21:00,72.2,60.7,30.17,ESE,111,6.0,11.0,67,0.00,,---,0.00,VWS V13.00,2013-02-10 14:21:00,
2013-02-10 09:22:00,72.2,60.7,30.17,East,86,7.0,13.0,67,0.00,,---,0.00,VWS V13.00,2013-02-10 14:22:00,
2013-02-10 09:23:00,72.2,60.7,30.17,ENE,65,6.0,13.0,67,0.00,,---,0.00,VWS V13.00,2013-02-10 14:23:00,
2013-02-10 09:24:00,72.4,60.8,30.17,SSE,167,9.0,13.0,67,0.00,,---,0.00,VWS V13.00,2013-02-10 14:24:00,
2013-02-10 09:25:00,72.4,60.8,30.17,ESE,109,11.0,13.0,67,0.00,,---,0.00,VWS V13.00,2013-02-10 14:25:00,
2013-02-10 09:26:00,72.4,60.8,30.17,East,94,14.0,14.0,67,0.00,,---,0.00,VWS V13.00,2013-02-10 14:26:00,
2013-02-10 09:27:00,72.4,60.8,30.17,East,95,7.0,14.0,67,0.00,,---,0.00,VWS V13.00,2013-02-10 14:27:00,
2013-02-10 09:28:00,72.4,60.8,30.17,East,101,11.0,14.0,67,0.00,,---,0.00,VWS V13.00,2013-02-10 14:28:00,
2013-02-10 09:29:00,72.5,60.9,30.17,East,82,5.0,14.0,67,0.00,,---,0.00,VWS V13.00,2013-02-10 14:29:00,
2013-02-10 09:30:00,72.5,60.9,30.17,ENE,76,13.0,14.0,67,0.00,,---,0.00,VWS V13.00,2013-02-10 14:30:00,
2013-02-10 09:31:00,72.5,60.5,30.17,East,101,14.0,15.0,66,0.00,,---,0.00,VWS V13.00,2013-02-10 14:31:00,
2013-02-10 09:32:00,72.7,60.7,30.17,ESE,115,5.0,15.0,66,0.00,,---,0.00,VWS V13.00,2013-02-10 14:32:00,
2013-02-10 09:33:00,72.9,61.3,30.17,SE,145,7.0,15.0,67,0.00,,---,0.00,VWS V13.00,2013-02-10 14:33:00,
2013-02-10 09:34:00,72.9,60.9,30.17,SE,129,13.0,15.0,66,0.00,,---,0.00,VWS V13.00,2013-02-10 14:34:00,
2013-02-10 09:35:00,72.9,60.9,30.17,SE,136,4.0,15.0,66,0.00,,---,0.00,VWS V13.00,2013-02-10 14:35:00,
2013-02-10 09:36:00,73.1,61.1,30.17,SE,143,10.0,12.0,66,0.00,,---,0.00,VWS V13.00,2013-02-10 14:36:00,
2013-02-10 09:37:00,73.2,61.2,30.17,SE,136,4.0,12.0,66,0.00,,---,0.00,VWS V13.00,2013-02-10 14:37:00,
2013-02-10 09:38:00,73.4,61.4,30.17,East,101,10.0,12.0,66,0.00,,---,0.00,VWS V13.00,2013-02-10 14:38:00,
2013-02-10 09:39:00,73.4,60.9,30.17,East,85,15.0,15.0,65,0.00,,---,0.00,VWS V13.00,2013-02-10 14:39:00,
2013-02-10 09:40:00,73.4,60.9,30.17,SE,126,10.0,15.0,65,0.00,,---,0.00,VWS V13.00,2013-02-10 14:40:00,
2013-02-10 09:41:00,73.6,61.1,30.17,SE,133,9.0,14.0,65,0.00,,---,0.00,VWS V13.00,2013-02-10 14:41:00,
2013-02-10 09:42:00,73.6,61.1,30.17,ESE,120,5.0,14.0,65,0.00,,---,0.00,VWS V13.00,2013-02-10 14:42:00,
2013-02-10 09:43:00,73.7,61.2,30.17,East,99,13.0,16.0,65,0.00,,---,0.00,VWS V13.00,2013-02-10 14:43:00,
2013-02-10 09:44:00,73.7,61.2,30.17,SSE,149,11.0,16.0,65,0.00,,---,0.00,VWS V13.00,2013-02-10 14:44:00,
2013-02-10 09:45:00,73.7,61.2,30.17,ESE,120,9.0,16.0,65,0.00,,---,0.00,VWS V13.00,2013-02-10 14:45:00,
2013-02-10 09:46:00,73.7,61.2,30.17,East,90,11.0,12.0,65,0.00,,---,0.00,VWS V13.00,2013-02-10 14:46:00,
2013-02-10 09:47:00,73.7,61.2,30.17,SE,146,10.0,16.0,65,0.00,,---,0.00,VWS V13.00,2013-02-10 14:47:00,
2013-02-10 09:48:00,73.7,61.2,30.17,ENE,66,10.0,16.0,65,0.00,,---,0.00,VWS V13.00,2013-02-10 14:48:00,
2013-02-10 09:49:00,73.7,61.2,30.17,East,94,6.0,16.0,65,0.00,,---,0.00,VWS V13.00,2013-02-10 14:49:00,
2013-02-10 09:50:00,73.7,60.3,30.17,East,95,9.0,16.0,63,0.00,,---,0.00,VWS V13.00,2013-02-10 14:50:00,
2013-02-10 09:51:00,73.9,61.4,30.17,ESE,108,9.0,11.0,65,0.00,,---,0.00,VWS V13.00,2013-02-10 14:51:00,
2013-02-10 09:52:00,73.9,61.4,30.17,East,82,7.0,11.0,65,0.00,,---,0.00,VWS V13.00,2013-02-10 14:52:00,
2013-02-10 09:53:00,73.9,61.4,30.17,SE,132,7.0,12.0,65,0.00,,---,0.00,VWS V13.00,2013-02-10 14:53:00,
2013-02-10 09:54:00,74.1,61.6,30.17,ESE,109,10.0,12.0,65,0.00,,---,0.00,VWS V13.00,2013-02-10 14:54:00,
2013-02-10 09:55:00,74.1,61.6,30.17,East,92,6.0,12.0,65,0.00,,---,0.00,VWS V13.00,2013-02-10 14:55:00,
2013-02-10 09:56:00,74.1,61.6,30.17,East,100,3.0,11.0,65,0.00,,---,0.00,VWS V13.00,2013-02-10 14:56:00,
2013-02-10 09:57:00,74.3,61.8,30.17,SE,138,6.0,11.0,65,0.00,,---,0.00,VWS V13.00,2013-02-10 14:57:00,
2013-02-10 09:58:00,74.4,61.4,30.17,ENE,71,5.0,11.0,64,0.00,,---,0.00,VWS V13.00,2013-02-10 14:58:00,
2013-02-10 09:59:00,74.4,61.9,30.17,SE,128,11.0,15.0,65,0.00,,---,0.00,VWS V13.00,2013-02-10 14:59:00,
2013-02-10 10:00:00,74.6,61.6,30.17,SE,132,4.0,16.0,64,0.00,,---,0.00,VWS V13.00,2013-02-10 15:00:00,
2013-02-10 10:01:00,74.6,61.2,30.17,East,100,12.0,16.0,63,0.00,,---,0.00,VWS V13.00,2013-02-10 15:01:00,
2013-02-10 10:02:00,74.6,61.6,30.17,SE,124,12.0,16.0,64,0.00,,---,0.00,VWS V13.00,2013-02-10 15:02:00,
2013-02-10 10:03:00,74.6,61.6,30.17,ESE,110,15.0,16.0,64,0.00,,---,0.00,VWS V13.00,2013-02-10 15:03:00,
2013-02-10 10:04:00,74.6,61.6,30.17,SE,136,9.0,19.0,64,0.00,,---,0.00,VWS V13.00,2013-02-10 15:04:00,
2013-02-10 10:05:00,74.6,61.6,30.17,ESE,112,6.0,19.0,64,0.00,,---,0.00,VWS V13.00,2013-02-10 15:05:00,
2013-02-10 10:06:00,74.6,61.6,30.17,ESE,109,5.0,17.0,64,0.00,,---,0.00,VWS V13.00,2013-02-10 15:06:00,
2013-02-10 10:07:00,74.6,62.1,30.17,East,81,11.0,17.0,65,0.00,,---,0.00,VWS V13.00,2013-02-10 15:07:00,
2013-02-10 10:08:00,74.8,61.8,30.17,SE,144,10.0,17.0,64,0.00,,---,0.00,VWS V13.00,2013-02-10 15:08:00,
2013-02-10 10:09:00,74.8,61.8,30.17,East,80,4.0,17.0,64,0.00,,---,0.00,VWS V13.00,2013-02-10 15:09:00,
2013-02-10 10:10:00,74.9,61.9,30.17,NE,55,11.0,17.0,64,0.00,,---,0.00,VWS V13.00,2013-02-10 15:10:00,
2013-02-10 10:11:00,74.9,61.9,30.17,ESE,123,12.0,15.0,64,0.00,,---,0.00,VWS V13.00,2013-02-10 15:11:00,
2013-02-10 10:12:00,74.9,61.5,30.17,SE,127,12.0,15.0,63,0.00,,---,0.00,VWS V13.00,2013-02-10 15:12:00,
2013-02-10 10:13:00,74.9,61.5,30.17,SSE,148,8.0,15.0,63,0.00,,---,0.00,VWS V13.00,2013-02-10 15:13:00,
2013-02-10 10:14:00,75.1,61.7,30.17,SSE,163,7.0,15.0,63,0.00,,---,0.00,VWS V13.00,2013-02-10 15:14:00,
2013-02-10 10:15:00,75.1,61.7,30.17,SE,124,4.0,15.0,63,0.00,,---,0.00,VWS V13.00,2013-02-10 15:15:00,
2013-02-10 10:16:00,75.1,62.1,30.17,ESE,116,3.0,6.0,64,0.00,,---,0.00,VWS V13.00,2013-02-10 15:16:00,
2013-02-10 10:17:00,75.1,62.1,30.17,ESE,112,12.0,16.0,64,0.00,,---,0.00,VWS V13.00,2013-02-10 15:17:00,
2013-02-10 10:18:00,75.1,61.7,30.17,SE,142,6.0,16.0,63,0.00,,---,0.00,VWS V13.00,2013-02-10 15:18:00,
2013-02-10 10:19:00,75.3,61.8,30.17,East,90,10.0,16.0,63,0.00,,---,0.00,VWS V13.00,2013-02-10 15:19:00,
2013-02-10 10:20:00,75.3,61.8,30.17,ESE,108,9.0,16.0,63,0.00,,---,0.00,VWS V13.00,2013-02-10 15:20:00,
2013-02-10 10:21:00,75.3,61.4,30.17,ESE,111,9.0,15.0,62,0.00,,---,0.00,VWS V13.00,2013-02-10 15:21:00,
2013-02-10 10:22:00,75.3,61.8,30.17,East,99,6.0,15.0,63,0.00,,---,0.00,VWS V13.00,2013-02-10 15:22:00,
2013-02-10 10:23:00,75.3,61.8,30.17,East,96,5.0,15.0,63,0.00,,---,0.00,VWS V13.00,2013-02-10 15:23:00,
2013-02-10 10:24:00,75.3,61.8,30.17,ESE,111,13.0,15.0,63,0.00,,---,0.00,VWS V13.00,2013-02-10 15:24:00,
2013-02-10 10:25:00,75.5,62.0,30.17,ESE,107,5.0,15.0,63,0.00,,---,0.00,VWS V13.00,2013-02-10 15:25:00,
2013-02-10 10:26:00,75.5,62.0,30.17,ENE,78,6.0,11.0,63,0.00,,---,0.00,VWS V13.00,2013-02-10 15:26:00,
2013-02-10 10:27:00,75.5,62.0,30.17,ESE,109,7.0,14.0,63,0.00,,---,0.00,VWS V13.00,2013-02-10 15:27:00,
2013-02-10 10:28:00,75.6,62.1,30.17,SE,131,12.0,20.0,63,0.00,,---,0.00,VWS V13.00,2013-02-10 15:28:00,
2013-02-10 10:29:00,75.6,61.7,30.16,SE,140,12.0,20.0,62,0.00,,---,0.00,VWS V13.00,2013-02-10 15:29:00,
2013-02-10 10:30:00,75.6,62.1,30.16,ESE,110,8.0,20.0,63,0.00,,---,0.00,VWS V13.00,2013-02-10 15:30:00,
2013-02-10 10:31:00,75.6,62.1,30.16,SE,130,5.0,15.0,63,0.00,,---,0.00,VWS V13.00,2013-02-10 15:31:00,
2013-02-10 10:32:00,75.6,62.1,30.16,ESE,109,3.0,15.0,63,0.00,,---,0.00,VWS V13.00,2013-02-10 15:32:00,
2013-02-10 10:33:00,75.8,62.3,30.16,East,90,8.0,15.0,63,0.00,,---,0.00,VWS V13.00,2013-02-10 15:33:00,
2013-02-10 10:34:00,75.8,61.9,30.16,ESE,111,11.0,15.0,62,0.00,,---,0.00,VWS V13.00,2013-02-10 15:34:00,
2013-02-10 10:35:00,75.8,61.9,30.16,SE,128,9.0,15.0,62,0.00,,---,0.00,VWS V13.00,2013-02-10 15:35:00,
2013-02-10 10:36:00,76.0,62.0,30.16,ESE,121,9.0,10.0,62,0.00,,---,0.00,VWS V13.00,2013-02-10 15:36:00,
2013-02-10 10:37:00,76.2,62.2,30.16,ESE,120,13.0,13.0,62,0.00,,---,0.00,VWS V13.00,2013-02-10 15:37:00,
2013-02-10 10:38:00,76.2,62.2,30.16,ESE,107,11.0,14.0,62,0.00,,---,0.00,VWS V13.00,2013-02-10 15:38:00,
2013-02-10 10:39:00,76.3,62.3,30.16,ESE,122,4.0,14.0,62,0.00,,---,0.00,VWS V13.00,2013-02-10 15:39:00,
2013-02-10 10:40:00,76.3,62.3,30.16,SE,140,12.0,14.0,62,0.00,,---,0.00,VWS V13.00,2013-02-10 15:40:00,
2013-02-10 10:41:00,76.5,62.5,30.16,SE,136,7.0,16.0,62,0.00,,---,0.00,VWS V13.00,2013-02-10 15:41:00,
2013-02-10 10:42:00,76.5,62.5,30.16,East,98,4.0,16.0,62,0.00,,---,0.00,VWS V13.00,2013-02-10 15:42:00,
2013-02-10 10:43:00,76.5,62.5,30.16,ESE,121,10.0,16.0,62,0.00,,---,0.00,VWS V13.00,2013-02-10 15:43:00,
2013-02-10 10:44:00,76.5,62.1,30.16,East,101,8.0,16.0,61,0.00,,---,0.00,VWS V13.00,2013-02-10 15:44:00,
2013-02-10 10:45:00,76.5,62.5,30.16,ESE,119,7.0,16.0,62,0.00,,---,0.00,VWS V13.00,2013-02-10 15:45:00,
2013-02-10 10:46:00,76.7,62.2,30.16,East,87,9.0,12.0,61,0.00,,---,0.00,VWS V13.00,2013-02-10 15:46:00,
2013-02-10 10:47:00,76.7,62.7,30.16,East,84,10.0,12.0,62,0.00,,---,0.00,VWS V13.00,2013-02-10 15:47:00,
2013-02-10 10:48:00,76.7,62.7,30.16,SE,140,7.0,12.0,62,0.00,,---,0.00,VWS V13.00,2013-02-10 15:48:00,
2013-02-10 10:49:00,76.9,62.4,30.16,ESE,106,6.0,12.0,61,0.00,,---,0.00,VWS V13.00,2013-02-10 15:49:00,
2013-02-10 10:50:00,76.9,62.4,30.16,East,96,8.0,12.0,61,0.00,,---,0.00,VWS V13.00,2013-02-10 15:50:00,
2013-02-10 10:51:00,76.9,62.4,30.16,SE,142,12.0,12.0,61,0.00,,---,0.00,VWS V13.00,2013-02-10 15:51:00,
2013-02-10 10:52:00,76.9,62.0,30.16,ESE,121,11.0,15.0,60,0.00,,---,0.00,VWS V13.00,2013-02-10 15:52:00,
2013-02-10 10:53:00,77.0,62.5,30.16,SE,142,7.0,15.0,61,0.00,,---,0.00,VWS V13.00,2013-02-10 15:53:00,
2013-02-10 10:54:00,77.0,62.1,30.16,SE,138,9.0,15.0,60,0.00,,---,0.00,VWS V13.00,2013-02-10 15:54:00,
2013-02-10 10:55:00,77.0,63.0,30.16,ENE,76,7.0,15.0,62,0.00,,---,0.00,VWS V13.00,2013-02-10 15:55:00,
2013-02-10 10:56:00,77.0,62.5,30.16,ESE,122,4.0,13.0,61,0.00,,---,0.00,VWS V13.00,2013-02-10 15:56:00,
2013-02-10 10:57:00,77.2,62.7,30.16,SE,128,5.0,13.0,61,0.00,,---,0.00,VWS V13.00,2013-02-10 15:57:00,
2013-02-10 10:58:00,77.2,62.7,30.16,ESE,113,12.0,13.0,61,0.00,,---,0.00,VWS V13.00,2013-02-10 15:58:00,
2013-02-10 10:59:00,77.4,62.4,30.16,SE,125,4.0,13.0,60,0.00,,---,0.00,VWS V13.00,2013-02-10 15:59:00,
2013-02-10 11:00:00,77.6,62.6,30.16,ESE,105,7.0,13.0,60,0.00,,---,0.00,VWS V13.00,2013-02-10 16:00:00,
2013-02-10 11:01:00,77.6,62.2,30.16,ESE,110,9.0,12.0,59,0.00,,---,0.00,VWS V13.00,2013-02-10 16:01:00,
2013-02-10 11:02:00,77.7,62.2,30.16,ESE,118,13.0,13.0,59,0.00,,---,0.00,VWS V13.00,2013-02-10 16:02:00,
2013-02-10 11:03:00,77.7,62.7,30.16,SE,145,12.0,15.0,60,0.00,,---,0.00,VWS V13.00,2013-02-10 16:03:00,
2013-02-10 11:04:00,77.7,62.2,30.16,SE,141,10.0,15.0,59,0.00,,---,0.00,VWS V13.00,2013-02-10 16:04:00,
2013-02-10 11:05:00,77.7,62.2,30.16,ESE,105,6.0,15.0,59,0.00,,---,0.00,VWS V13.00,2013-02-10 16:05:00,
2013-02-10 11:06:00,77.7,62.7,30.16,SE,141,10.0,11.0,60,0.00,,---,0.00,VWS V13.00,2013-02-10 16:06:00,
2013-02-10 11:07:00,77.7,62.7,30.16,ESE,115,6.0,13.0,60,0.00,,---,0.00,VWS V13.00,2013-02-10 16:07:00,
2013-02-10 11:08:00,77.7,62.7,30.16,SSE,148,8.0,13.0,60,0.00,,---,0.00,VWS V13.00,2013-02-10 16:08:00,
2013-02-10 11:09:00,77.7,62.2,30.16,SSE,161,14.0,18.0,59,0.00,,---,0.00,VWS V13.00,2013-02-10 16:09:00,
2013-02-10 11:10:00,77.6,62.2,30.16,SE,144,5.0,18.0,59,0.00,,---,0.00,VWS V13.00,2013-02-10 16:10:00,
2013-02-10 11:11:00,77.6,63.1,30.16,SE,135,9.0,9.0,61,0.00,,---,0.00,VWS V13.00,2013-02-10 16:11:00,
2013-02-10 11:12:00,77.7,62.7,30.16,ESE,118,7.0,10.0,60,0.00,,---,0.00,VWS V13.00,2013-02-10 16:12:00,
2013-02-10 11:13:00,77.7,62.7,30.16,East,93,10.0,16.0,60,0.00,,---,0.00,VWS V13.00,2013-02-10 16:13:00,
2013-02-10 11:14:00,77.9,62.9,30.15,SE,142,5.0,16.0,60,0.00,,---,0.00,VWS V13.00,2013-02-10 16:14:00,
2013-02-10 11:15:00,78.1,63.1,30.15,ESE,109,5.0,16.0,60,0.00,,---,0.00,VWS V13.00,2013-02-10 16:15:00,
2013-02-10 11:16:00,78.1,63.1,30.15,SSE,150,11.0,11.0,60,0.00,,---,0.00,VWS V13.00,2013-02-10 16:16:00,
2013-02-10 11:17:00,78.1,62.1,30.15,East,91,6.0,14.0,58,0.00,,---,0.00,VWS V13.00,2013-02-10 16:17:00,
2013-02-10 11:18:00,78.3,62.8,30.15,East,86,9.0,14.0,59,0.00,,---,0.00,VWS V13.00,2013-02-10 16:18:00,
2013-02-10 11:19:00,78.4,62.9,30.15,SE,128,9.0,14.0,59,0.00,,---,0.00,VWS V13.00,2013-02-10 16:19:00,
2013-02-10 11:20:00,78.4,62.9,30.15,East,82,15.0,15.0,59,0.00,,---,0.00,VWS V13.00,2013-02-10 16:20:00,
2013-02-10 11:21:00,78.4,62.4,30.15,SE,138,4.0,15.0,58,0.00,,---,0.00,VWS V13.00,2013-02-10 16:21:00,
2013-02-10 11:22:00,78.6,62.6,30.15,East,93,11.0,15.0,58,0.00,,---,0.00,VWS V13.00,2013-02-10 16:22:00,
2013-02-10 11:23:00,78.6,62.6,30.15,SE,136,7.0,15.0,58,0.00,,---,0.00,VWS V13.00,2013-02-10 16:23:00,
2013-02-10 11:24:00,78.6,62.6,30.15,ESE,105,10.0,15.0,58,0.00,,---,0.00,VWS V13.00,2013-02-10 16:24:00,
2013-02-10 11:25:00,78.6,62.6,30.15,ESE,111,17.0,17.0,58,0.00,,---,0.00,VWS V13.00,2013-02-10 16:25:00,
2013-02-10 11:26:00,78.6,62.6,30.15,ESE,109,6.0,17.0,58,0.00,,---,0.00,VWS V13.00,2013-02-10 16:26:00,
2013-02-10 11:27:00,78.6,62.6,30.15,East,97,7.0,17.0,58,0.00,,---,0.00,VWS V13.00,2013-02-10 16:27:00,
2013-02-10 11:28:00,78.6,62.6,30.15,SSE,150,12.0,17.0,58,0.00,,---,0.00,VWS V13.00,2013-02-10 16:28:00,
2013-02-10 11:29:00,78.6,62.6,30.15,SE,146,13.0,17.0,58,0.00,,---,0.00,VWS V13.00,2013-02-10 16:29:00,
2013-02-10 11:30:00,78.4,62.9,30.15,SE,135,5.0,17.0,59,0.00,,---,0.00,VWS V13.00,2013-02-10 16:30:00,
2013-02-10 11:31:00,78.3,62.8,30.15,SSE,147,9.0,16.0,59,0.00,,---,0.00,VWS V13.00,2013-02-10 16:31:00,
2013-02-10 11:32:00,78.3,62.8,30.15,SSE,162,14.0,16.0,59,0.00,,---,0.00,VWS V13.00,2013-02-10 16:32:00,
2013-02-10 11:33:00,78.1,62.6,30.15,SE,139,10.0,16.0,59,0.00,,---,0.00,VWS V13.00,2013-02-10 16:33:00,
2013-02-10 11:34:00,78.1,62.1,30.15,SE,142,10.0,18.0,58,0.00,,---,0.00,VWS V13.00,2013-02-10 16:34:00,
2013-02-10 11:35:00,77.9,62.4,30.15,ESE,104,6.0,18.0,59,0.00,,---,0.00,VWS V13.00,2013-02-10 16:35:00,
2013-02-10 11:36:00,77.9,62.4,30.15,SE,132,9.0,14.0,59,0.00,,---,0.00,VWS V13.00,2013-02-10 16:36:00,
2013-02-10 11:37:00,78.1,62.6,30.15,SE,128,10.0,14.0,59,0.00,,---,0.00,VWS V13.00,2013-02-10 16:37:00,
2013-02-10 11:38:00,78.1,62.1,30.15,SE,142,11.0,14.0,58,0.00,,---,0.00,VWS V13.00,2013-02-10 16:38:00,
2013-02-10 11:39:00,78.1,62.6,30.15,SSE,157,7.0,14.0,59,0.00,,---,0.00,VWS V13.00,2013-02-10 16:39:00,
2013-02-10 11:40:00,78.3,62.8,30.15,SE,130,12.0,14.0,59,0.00,,---,0.00,VWS V13.00,2013-02-10 16:40:00,
2013-02-10 11:41:00,78.3,62.8,30.15,SE,144,3.0,15.0,59,0.00,,---,0.00,VWS V13.00,2013-02-10 16:41:00,
2013-02-10 11:42:00,78.4,62.4,30.15,SE,144,11.0,15.0,58,0.00,,---,0.00,VWS V13.00,2013-02-10 16:42:00,
2013-02-10 11:43:00,78.6,62.6,30.15,East,87,4.0,15.0,58,0.00,,---,0.00,VWS V13.00,2013-02-10 16:43:00,
2013-02-10 11:44:00,78.6,62.6,30.15,ESE,103,9.0,15.0,58,0.00,,---,0.00,VWS V13.00,2013-02-10 16:44:00,
2013-02-10 11:45:00,78.8,62.8,30.14,SE,132,10.0,15.0,58,0.00,,---,0.00,VWS V13.00,2013-02-10 16:45:00,
2013-02-10 11:46:00,78.8,62.8,30.14,SSE,159,7.0,12.0,58,0.00,,---,0.00,VWS V13.00,2013-02-10 16:46:00,
2013-02-10 11:47:00,78.8,62.3,30.14,ESE,103,10.0,15.0,57,0.00,,---,0.00,VWS V13.00,2013-02-10 16:47:00,
2013-02-10 11:48:00,78.8,62.8,30.14,SE,124,10.0,15.0,58,0.00,,---,0.00,VWS V13.00,2013-02-10 16:48:00,
2013-02-10 11:49:00,78.8,62.3,30.14,East,101,4.0,15.0,57,0.00,,---,0.00,VWS V13.00,2013-02-10 16:49:00,
2013-02-10 11:50:00,78.8,62.3,30.14,ESE,120,11.0,15.0,57,0.00,,---,0.00,VWS V13.00,2013-02-10 16:50:00,
2013-02-10 11:51:00,78.8,62.3,30.14,SE,138,4.0,11.0,57,0.00,,---,0.00,VWS V13.00,2013-02-10 16:51:00,
2013-02-10 11:52:00,79.0,62.5,30.14,SSE,158,9.0,15.0,57,0.00,,---,0.00,VWS V13.00,2013-02-10 16:52:00,
2013-02-10 11:53:00,79.0,62.5,30.14,SE,127,11.0,16.0,57,0.00,,---,0.00,VWS V13.00,2013-02-10 16:53:00,
2013-02-10 11:54:00,79.2,62.7,30.14,ESE,112,10.0,16.0,57,0.00,,---,0.00,VWS V13.00,2013-02-10 16:54:00,
2013-02-10 11:55:00,79.2,62.7,30.14,SE,128,16.0,17.0,57,0.00,,---,0.00,VWS V13.00,2013-02-10 16:55:00,
2013-02-10 11:56:00,79.3,62.3,30.14,SE,131,10.0,12.0,56,0.00,,---,0.00,VWS V13.00,2013-02-10 16:56:00,
2013-02-10 11:57:00,79.3,62.8,30.14,ESE,110,9.0,13.0,57,0.00,,---,0.00,VWS V13.00,2013-02-10 16:57:00,
2013-02-10 11:58:00,79.3,62.3,30.14,SSE,160,8.0,15.0,56,0.00,,---,0.00,VWS V13.00,2013-02-10 16:58:00,
2013-02-10 11:59:00,79.3,62.8,30.14,SE,140,7.0,15.0,57,0.00,,---,0.00,VWS V13.00,2013-02-10 16:59:00,
2013-02-10 12:00:00,79.3,62.3,30.13,SE,140,17.0,17.0,56,0.00,,---,0.00,VWS V13.00,2013-02-10 17:00:00,
2013-02-10 12:01:00,79.2,62.2,30.13,SE,137,9.0,18.0,56,0.00,,---,0.00,VWS V13.00,2013-02-10 17:01:00,
2013-02-10 12:02:00,79.2,62.2,30.13,SE,145,7.0,18.0,56,0.00,,---,0.00,VWS V13.00,2013-02-10 17:02:00,
2013-02-10 12:03:00,79.2,62.7,30.13,SE,131,5.0,18.0,57,0.00,,---,0.00,VWS V13.00,2013-02-10 17:03:00,
2013-02-10 12:04:00,79.2,62.7,30.13,South,174,7.0,18.0,57,0.00,,---,0.00,VWS V13.00,2013-02-10 17:04:00,
2013-02-10 12:05:00,79.3,62.3,30.13,South,178,9.0,18.0,56,0.00,,---,0.00,VWS V13.00,2013-02-10 17:05:00,
2013-02-10 12:06:00,79.3,62.3,30.13,SSE,157,9.0,17.0,56,0.00,,---,0.00,VWS V13.00,2013-02-10 17:06:00,
2013-02-10 12:07:00,79.3,62.3,30.13,SE,145,11.0,17.0,56,0.00,,---,0.00,VWS V13.00,2013-02-10 17:07:00,
2013-02-10 12:08:00,79.5,62.5,30.13,SE,144,10.0,19.0,56,0.00,,---,0.00,VWS V13.00,2013-02-10 17:08:00,
2013-02-10 12:09:00,79.5,62.5,30.13,SSE,159,11.0,19.0,56,0.00,,---,0.00,VWS V13.00,2013-02-10 17:09:00,
2013-02-10 12:10:00,79.7,62.6,30.13,ESE,111,9.0,19.0,56,0.00,,---,0.00,VWS V13.00,2013-02-10 17:10:00,
2013-02-10 12:11:00,79.7,62.6,30.13,ESE,121,11.0,14.0,56,0.00,,---,0.00,VWS V13.00,2013-02-10 17:11:00,
2013-02-10 12:12:00,79.7,62.6,30.13,SE,129,3.0,14.0,56,0.00,,---,0.00,VWS V13.00,2013-02-10 17:12:00,
2013-02-10 12:13:00,79.9,62.8,30.13,SE,127,9.0,14.0,56,0.00,,---,0.00,VWS V13.00,2013-02-10 17:13:00,
2013-02-10 12:14:00,79.9,62.8,30.13,ESE,121,1.0,14.0,56,0.00,,---,0.00,VWS V13.00,2013-02-10 17:14:00,
2013-02-10 12:15:00,79.9,62.8,30.12,ESE,112,5.0,14.0,56,0.00,,---,0.00,VWS V13.00,2013-02-10 17:15:00,
2013-02-10 12:16:00,80.1,63.0,30.12,SE,134,9.0,13.0,56,0.00,,---,0.00,VWS V13.00,2013-02-10 17:16:00,
2013-02-10 12:17:00,80.2,62.6,30.12,ESE,119,9.0,15.0,55,0.00,,---,0.00,VWS V13.00,2013-02-10 17:17:00,
2013-02-10 12:18:00,80.2,62.6,30.12,SE,144,14.0,15.0,55,0.00,,---,0.00,VWS V13.00,2013-02-10 17:18:00,
2013-02-10 12:19:00,80.1,62.5,30.12,SE,142,10.0,15.0,55,0.00,,---,0.00,VWS V13.00,2013-02-10 17:19:00,
2013-02-10 12:20:00,80.1,63.0,30.12,SE,132,12.0,16.0,56,0.00,,---,0.00,VWS V13.00,2013-02-10 17:20:00,
2013-02-10 12:21:00,80.1,62.5,30.12,SE,146,7.0,21.0,55,0.00,,---,0.00,VWS V13.00,2013-02-10 17:21:00,
2013-02-10 12:22:00,80.1,63.0,30.12,ESE,121,9.0,21.0,56,0.00,,---,0.00,VWS V13.00,2013-02-10 17:22:00,
2013-02-10 12:23:00,80.1,62.5,30.12,East,98,13.0,21.0,55,0.00,,---,0.00,VWS V13.00,2013-02-10 17:23:00,
2013-02-10 12:24:00,80.2,62.6,30.12,SE,138,9.0,21.0,55,0.00,,---,0.00,VWS V13.00,2013-02-10 17:24:00,
2013-02-10 12:25:00,80.2,62.6,30.12,ESE,108,7.0,21.0,55,0.00,,---,0.00,VWS V13.00,2013-02-10 17:25:00,
2013-02-10 12:26:00,80.2,62.6,30.12,ESE,121,9.0,11.0,55,0.00,,---,0.00,VWS V13.00,2013-02-10 17:26:00,
2013-02-10 12:27:00,80.1,62.5,30.12,ESE,111,7.0,12.0,55,0.00,,---,0.00,VWS V13.00,2013-02-10 17:27:00,
2013-02-10 12:28:00,79.9,62.3,30.12,SSE,155,6.0,12.0,55,0.00,,---,0.00,VWS V13.00,2013-02-10 17:28:00,
2013-02-10 12:29:00,79.9,62.8,30.12,ESE,102,9.0,13.0,56,0.00,,---,0.00,VWS V13.00,2013-02-10 17:29:00,
2013-02-10 12:30:00,79.9,62.8,30.12,SE,126,9.0,16.0,56,0.00,,---,0.00,VWS V13.00,2013-02-10 17:30:00,
2013-02-10 12:31:00,79.9,62.3,30.12,SE,145,5.0,14.0,55,0.00,,---,0.00,VWS V13.00,2013-02-10 17:31:00,
2013-02-10 12:32:00,79.9,62.3,30.12,SE,131,4.0,14.0,55,0.00,,---,0.00,VWS V13.00,2013-02-10 17:32:00,
2013-02-10 12:33:00,79.9,62.3,30.12,SE,132,7.0,14.0,55,0.00,,---,0.00,VWS V13.00,2013-02-10 17:33:00,
2013-02-10 12:34:00,79.7,62.1,30.12,ESE,117,8.0,14.0,55,0.00,,---,0.00,VWS V13.00,2013-02-10 17:34:00,
2013-02-10 12:35:00,79.5,62.5,30.12,SE,126,9.0,14.0,56,0.00,,---,0.00,VWS V13.00,2013-02-10 17:35:00,
2013-02-10 12:36:00,79.3,62.3,30.12,SSE,154,8.0,10.0,56,0.00,,---,0.00,VWS V13.00,2013-02-10 17:36:00,
2013-02-10 12:37:00,79.2,62.7,30.12,SE,140,5.0,18.0,57,0.00,,---,0.00,VWS V13.00,2013-02-10 17:37:00,
2013-02-10 12:38:00,79.0,62.5,30.12,SSE,151,15.0,18.0,57,0.00,,---,0.00,VWS V13.00,2013-02-10 17:38:00,
2013-02-10 12:39:00,78.8,62.3,30.12,SSE,153,10.0,18.0,57,0.00,,---,0.00,VWS V13.00,2013-02-10 17:39:00,
2013-02-10 12:40:00,78.8,62.3,30.12,SE,140,11.0,18.0,57,0.00,,---,0.00,VWS V13.00,2013-02-10 17:40:00,
2013-02-10 12:41:00,78.6,62.1,30.12,SE,129,7.0,11.0,57,0.00,,---,0.00,VWS V13.00,2013-02-10 17:41:00,
2013-02-10 12:42:00,78.4,61.9,30.12,SE,128,5.0,12.0,57,0.00,,---,0.00,VWS V13.00,2013-02-10 17:42:00,
2013-02-10 12:43:00,78.4,62.4,30.12,SE,138,6.0,15.0,58,0.00,,---,0.00,VWS V13.00,2013-02-10 17:43:00,
2013-02-10 12:44:00,78.6,62.1,30.12,SE,136,6.0,15.0,57,0.00,,---,0.00,VWS V13.00,2013-02-10 17:44:00,
2013-02-10 12:45:00,78.6,61.6,30.11,SE,136,5.0,15.0,56,0.00,,---,0.00,VWS V13.00,2013-02-10 17:45:00,
2013-02-10 12:46:00,78.8,62.3,30.11,ESE,117,6.0,12.0,57,0.00,,---,0.00,VWS V13.00,2013-02-10 17:46:00,
2013-02-10 12:47:00,79.0,62.5,30.11,ESE,105,6.0,12.0,57,0.00,,---,0.00,VWS V13.00,2013-02-10 17:47:00,
2013-02-10 12:48:00,79.0,62.0,30.11,SSE,159,7.0,15.0,56,0.00,,---,0.00,VWS V13.00,2013-02-10 17:48:00,
2013-02-10 12:49:00,79.2,61.7,30.11,ESE,107,11.0,15.0,55,0.00,,---,0.00,VWS V13.00,2013-02-10 17:49:00,
2013-02-10 12:50:00,79.2,62.2,30.11,East,79,8.0,15.0,56,0.00,,---,0.00,VWS V13.00,2013-02-10 17:50:00,
2013-02-10 12:51:00,79.2,62.2,30.11,ESE,120,5.0,12.0,56,0.00,,---,0.00,VWS V13.00,2013-02-10 17:51:00,
2013-02-10 12:52:00,79.0,62.0,30.11,SE,135,16.0,16.0,56,0.00,,---,0.00,VWS V13.00,2013-02-10 17:52:00,
2013-02-10 12:53:00,79.0,62.0,30.11,SE,136,6.0,16.0,56,0.00,,---,0.00,VWS V13.00,2013-02-10 17:53:00,
2013-02-10 12:54:00,79.2,62.2,30.11,SE,135,5.0,16.0,56,0.00,,---,0.00,VWS V13.00,2013-02-10 17:54:00,
2013-02-10 12:55:00,79.2,62.2,30.11,ESE,113,9.0,16.0,56,0.00,,---,0.00,VWS V13.00,2013-02-10 17:55:00,
2013-02-10 12:56:00,79.2,62.2,30.11,ESE,119,9.0,13.0,56,0.00,,---,0.00,VWS V13.00,2013-02-10 17:56:00,
2013-02-10 12:57:00,79.3,62.3,30.11,ESE,118,6.0,13.0,56,0.00,,---,0.00,VWS V13.00,2013-02-10 17:57:00,
2013-02-10 12:58:00,79.5,62.5,30.11,SSE,155,13.0,13.0,56,0.00,,---,0.00,VWS V13.00,2013-02-10 17:58:00,
2013-02-10 12:59:00,79.7,62.1,30.10,SE,134,6.0,13.0,55,0.00,,---,0.00,VWS V13.00,2013-02-10 17:59:00,
2013-02-10 13:00:00,79.9,62.3,30.10,SSE,161,10.0,15.0,55,0.00,,---,0.00,VWS V13.00,2013-02-10 18:00:00,
2013-02-10 13:01:00,79.9,62.3,30.10,SSE,151,8.0,14.0,55,0.00,,---,0.00,VWS V13.00,2013-02-10 18:01:00,
2013-02-10 13:02:00,80.1,62.5,30.10,SSE,149,6.0,14.0,55,0.00,,---,0.00,VWS V13.00,2013-02-10 18:02:00,
2013-02-10 13:03:00,80.1,62.5,30.10,SE,140,7.0,15.0,55,0.00,,---,0.00,VWS V13.00,2013-02-10 18:03:00,
2013-02-10 13:04:00,80.1,62.0,30.10,ESE,119,5.0,17.0,54,0.00,,---,0.00,VWS V13.00,2013-02-10 18:04:00,
2013-02-10 13:05:00,80.1,62.5,30.10,SE,139,7.0,17.0,55,0.00,,---,0.00,VWS V13.00,2013-02-10 18:05:00,
2013-02-10 13:06:00,79.9,62.3,30.10,SE,146,12.0,15.0,55,0.00,,---,0.00,VWS V13.00,2013-02-10 18:06:00,
2013-02-10 13:07:00,79.7,62.1,30.10,SE,137,10.0,15.0,55,0.00,,---,0.00,VWS V13.00,2013-02-10 18:07:00,
2013-02-10 13:08:00,79.5,61.9,30.10,SE,135,6.0,15.0,55,0.00,,---,0.00,VWS V13.00,2013-02-10 18:08:00,
2013-02-10 13:09:00,79.3,61.8,30.10,SE,146,10.0,15.0,55,0.00,,---,0.00,VWS V13.00,2013-02-10 18:09:00,
2013-02-10 13:10:00,79.2,62.2,30.10,ESE,121,5.0,15.0,56,0.00,,---,0.00,VWS V13.00,2013-02-10 18:10:00,
2013-02-10 13:11:00,79.2,62.7,30.10,SE,136,3.0,11.0,57,0.00,,---,0.00,VWS V13.00,2013-02-10 18:11:00,
2013-02-10 13:12:00,79.0,62.0,30.10,SE,138,10.0,13.0,56,0.00,,---,0.00,VWS V13.00,2013-02-10 18:12:00,
2013-02-10 13:13:00,79.0,62.0,30.10,SE,138,7.0,14.0,56,0.00,,---,0.00,VWS V13.00,2013-02-10 18:13:00,
2013-02-10 13:14:00,79.0,62.0,30.10,ESE,115,3.0,14.0,56,0.00,,---,0.00,VWS V13.00,2013-02-10 18:14:00,
2013-02-10 13:15:00,79.0,62.0,30.09,ESE,116,5.0,14.0,56,0.00,,---,0.00,VWS V13.00,2013-02-10 18:15:00,
2013-02-10 13:16:00,79.0,62.5,30.09,SE,126,2.0,5.0,57,0.00,,---,0.00,VWS V13.00,2013-02-10 18:16:00,
2013-02-10 13:17:00,79.0,62.5,30.09,SSE,165,8.0,11.0,57,0.00,,---,0.00,VWS V13.00,2013-02-10 18:17:00,
2013-02-10 13:18:00,79.2,62.2,30.09,SE,132,3.0,11.0,56,0.00,,---,0.00,VWS V13.00,2013-02-10 18:18:00,
2013-02-10 13:19:00,79.2,62.2,30.09,SE,136,11.0,11.0,56,0.00,,---,0.00,VWS V13.00,2013-02-10 18:19:00,
2013-02-10 13:20:00,79.2,61.7,30.09,SSE,150,5.0,15.0,55,0.00,,---,0.00,VWS V13.00,2013-02-10 18:20:00,
2013-02-10 13:21:00,79.2,62.2,30.09,SSE,157,13.0,13.0,56,0.00,,---,0.00,VWS V13.00,2013-02-10 18:21:00,
2013-02-10 13:22:00,79.2,62.2,30.09,SE,132,6.0,13.0,56,0.00,,---,0.00,VWS V13.00,2013-02-10 18:22:00,
2013-02-10 13:23:00,79.2,62.2,30.09,ENE,78,6.0,13.0,56,0.00,,---,0.00,VWS V13.00,2013-02-10 18:23:00,
2013-02-10 13:24:00,79.2,62.2,30.09,ESE,105,5.0,13.0,56,0.00,,---,0.00,VWS V13.00,2013-02-10 18:24:00,
2013-02-10 13:25:00,79.2,62.2,30.09,SE,142,4.0,13.0,56,0.00,,---,0.00,VWS V13.00,2013-02-10 18:25:00,
2013-02-10 13:26:00,79.3,62.3,30.09,East,101,9.0,9.0,56,0.00,,---,0.00,VWS V13.00,2013-02-10 18:26:00,
2013-02-10 13:27:00,79.3,62.3,30.09,South,169,12.0,16.0,56,0.00,,---,0.00,VWS V13.00,2013-02-10 18:27:00,
2013-02-10 13:28:00,79.3,61.8,30.09,SE,143,11.0,16.0,55,0.00,,---,0.00,VWS V13.00,2013-02-10 18:28:00,
2013-02-10 13:29:00,79.3,61.8,30.09,SE,128,6.0,16.0,55,0.00,,---,0.00,VWS V13.00,2013-02-10 18:29:00,
2013-02-10 13:30:00,79.3,61.8,30.08,SE,134,5.0,16.0,55,0.00,,---,0.00,VWS V13.00,2013-02-10 18:30:00,
2013-02-10 13:31:00,79.3,61.8,30.08,SSE,153,7.0,12.0,55,0.00,,---,0.00,VWS V13.00,2013-02-10 18:31:00,
2013-02-10 13:32:00,79.3,61.8,30.08,ESE,123,6.0,12.0,55,0.00,,---,0.00,VWS V13.00,2013-02-10 18:32:00,
2013-02-10 13:33:00,79.3,61.8,30.08,East,80,5.0,12.0,55,0.00,,---,0.00,VWS V13.00,2013-02-10 18:33:00,
2013-02-10 13:34:00,79.2,62.2,30.08,ESE,114,4.0,12.0,56,0.00,,---,0.00,VWS V13.00,2013-02-10 18:34:00,
2013-02-10 13:35:00,79.2,62.2,30.08,ENE,76,5.0,12.0,56,0.00,,---,0.00,VWS V13.00,2013-02-10 18:35:00,
2013-02-10 13:36:00,79.2,62.2,30.08,East,94,5.0,10.0,56,0.00,,---,0.00,VWS V13.00,2013-02-10 18:36:00,
2013-02-10 13:37:00,79.2,62.2,30.08,SSE,151,6.0,12.0,56,0.00,,---,0.00,VWS V13.00,2013-02-10 18:37:00,
2013-02-10 13:38:00,79.2,61.7,30.08,SSE,148,5.0,14.0,55,0.00,,---,0.00,VWS V13.00,2013-02-10 18:38:00,
2013-02-10 13:39:00,79.2,61.7,30.08,SE,146,12.0,14.0,55,0.00,,---,0.00,VWS V13.00,2013-02-10 18:39:00,
2013-02-10 13:40:00,79.2,61.7,30.08,SE,138,9.0,14.0,55,0.00,,---,0.00,VWS V13.00,2013-02-10 18:40:00,
2013-02-10 13:41:00,79.2,60.6,30.08,SSE,154,3.0,14.0,53,0.00,,---,0.00,VWS V13.00,2013-02-10 18:41:00,
2013-02-10 13:42:00,79.2,61.7,30.08,SSE,147,8.0,14.0,55,0.00,,---,0.00,VWS V13.00,2013-02-10 18:42:00,
2013-02-10 13:43:00,79.2,61.7,30.08,SSE,149,7.0,14.0,55,0.00,,---,0.00,VWS V13.00,2013-02-10 18:43:00,
2013-02-10 13:44:00,79.2,61.7,30.08,SE,146,5.0,15.0,55,0.00,,---,0.00,VWS V13.00,2013-02-10 18:44:00,
2013-02-10 13:45:00,79.2,61.7,30.07,SE,141,13.0,15.0,55,0.00,,---,0.00,VWS V13.00,2013-02-10 18:45:00,
2013-02-10 13:46:00,79.2,61.7,30.07,ESE,117,4.0,13.0,55,0.00,,---,0.00,VWS V13.00,2013-02-10 18:46:00,
2013-02-10 13:47:00,79.2,62.2,30.07,SSE,148,11.0,13.0,56,0.00,,---,0.00,VWS V13.00,2013-02-10 18:47:00,
2013-02-10 13:48:00,79.2,62.2,30.07,SSE,147,9.0,13.0,56,0.00,,---,0.00,VWS V13.00,2013-02-10 18:48:00,
2013-02-10 13:49:00,79.2,62.2,30.07,ESE,111,6.0,13.0,56,0.00,,---,0.00,VWS V13.00,2013-02-10 18:49:00,
2013-02-10 13:50:00,79.2,62.2,30.07,East,94,8.0,13.0,56,0.00,,---,0.00,VWS V13.00,2013-02-10 18:50:00,
2013-02-10 13:51:00,79.3,61.8,30.07,ESE,119,6.0,11.0,55,0.00,,---,0.00,VWS V13.00,2013-02-10 18:51:00,
2013-02-10 13:52:00,79.3,61.8,30.07,ESE,108,8.0,12.0,55,0.00,,---,0.00,VWS V13.00,2013-02-10 18:52:00,
2013-02-10 13:53:00,79.5,61.9,30.07,East,100,4.0,12.0,55,0.00,,---,0.00,VWS V13.00,2013-02-10 18:53:00,
2013-02-10 13:54:00,79.5,61.9,30.07,East,89,6.0,13.0,55,0.00,,---,0.00,VWS V13.00,2013-02-10 18:54:00,
2013-02-10 13:55:00,79.7,62.1,30.07,ESE,105,7.0,13.0,55,0.00,,---,0.00,VWS V13.00,2013-02-10 18:55:00,
2013-02-10 13:56:00,79.7,62.1,30.07,SE,124,6.0,10.0,55,0.00,,---,0.00,VWS V13.00,2013-02-10 18:56:00,
2013-02-10 13:57:00,79.7,62.1,30.07,SSE,148,9.0,12.0,55,0.00,,---,0.00,VWS V13.00,2013-02-10 18:57:00,
2013-02-10 13:58:00,79.7,62.1,30.07,SE,135,12.0,12.0,55,0.00,,---,0.00,VWS V13.00,2013-02-10 18:58:00,
2013-02-10 13:59:00,79.5,61.9,30.07,SE,142,5.0,12.0,55,0.00,,---,0.00,VWS V13.00,2013-02-10 18:59:00,
2013-02-10 14:00:00,79.5,61.9,30.07,SE,139,7.0,12.0,55,0.00,,---,0.00,VWS V13.00,2013-02-10 19:00:00,
2013-02-10 14:01:00,79.3,61.8,30.07,SE,129,3.0,11.0,55,0.00,,---,0.00,VWS V13.00,2013-02-10 19:01:00,
2013-02-10 14:02:00,79.3,61.8,30.07,SSE,156,8.0,12.0,55,0.00,,---,0.00,VWS V13.00,2013-02-10 19:02:00,
2013-02-10 14:03:00,79.2,61.7,30.07,SE,141,5.0,12.0,55,0.00,,---,0.00,VWS V13.00,2013-02-10 19:03:00,
2013-02-10 14:04:00,79.2,61.7,30.07,SE,133,5.0,12.0,55,0.00,,---,0.00,VWS V13.00,2013-02-10 19:04:00,
2013-02-10 14:05:00,79.2,62.2,30.07,SSE,147,7.0,13.0,56,0.00,,---,0.00,VWS V13.00,2013-02-10 19:05:00,
2013-02-10 14:06:00,79.2,61.7,30.07,SE,130,3.0,9.0,55,0.00,,---,0.00,VWS V13.00,2013-02-10 19:06:00,
2013-02-10 14:07:00,79.2,62.2,30.07,ESE,116,12.0,12.0,56,0.00,,---,0.00,VWS V13.00,2013-02-10 19:07:00,
2013-02-10 14:08:00,79.2,61.7,30.07,ESE,117,4.0,12.0,55,0.00,,---,0.00,VWS V13.00,2013-02-10 19:08:00,
2013-02-10 14:09:00,79.2,62.2,30.07,SE,136,6.0,16.0,56,0.00,,---,0.00,VWS V13.00,2013-02-10 19:09:00,
2013-02-10 14:10:00,79.2,61.7,30.07,SE,143,5.0,16.0,55,0.00,,---,0.00,VWS V13.00,2013-02-10 19:10:00,
2013-02-10 14:11:00,79.2,61.7,30.07,SE,139,5.0,11.0,55,0.00,,---,0.00,VWS V13.00,2013-02-10 19:11:00,
2013-02-10 14:12:00,79.0,61.5,30.07,SE,137,7.0,11.0,55,0.00,,---,0.00,VWS V13.00,2013-02-10 19:12:00,
2013-02-10 14:13:00,79.0,61.5,30.07,ESE,113,2.0,11.0,55,0.00,,---,0.00,VWS V13.00,2013-02-10 19:13:00,
2013-02-10 14:14:00,79.0,61.5,30.07,ESE,118,5.0,11.0,55,0.00,,---,0.00,VWS V13.00,2013-02-10 19:14:00,
2013-02-10 14:15:00,79.0,61.5,30.07,SE,138,4.0,11.0,55,0.00,,---,0.00,VWS V13.00,2013-02-10 19:15:00,
2013-02-10 14:16:00,79.0,61.5,30.07,SSE,148,8.0,8.0,55,0.00,,---,0.00,VWS V13.00,2013-02-10 19:16:00,
2013-02-10 14:17:00,79.0,61.5,30.07,SE,142,1.0,8.0,55,0.00,,---,0.00,VWS V13.00,2013-02-10 19:17:00,
2013-02-10 14:18:00,79.2,61.7,30.07,SE,131,3.0,8.0,55,0.00,,---,0.00,VWS V13.00,2013-02-10 19:18:00,
2013-02-10 14:19:00,79.2,61.7,30.07,ESE,103,5.0,8.0,55,0.00,,---,0.00,VWS V13.00,2013-02-10 19:19:00,
2013-02-10 14:20:00,79.2,61.7,30.07,SE,126,5.0,12.0,55,0.00,,---,0.00,VWS V13.00,2013-02-10 19:20:00,
2013-02-10 14:21:00,79.2,61.7,30.07,SSE,151,7.0,8.0,55,0.00,,---,0.00,VWS V13.00,2013-02-10 19:21:00,
2013-02-10 14:22:00,79.2,61.7,30.07,SE,138,5.0,9.0,55,0.00,,---,0.00,VWS V13.00,2013-02-10 19:22:00,
2013-02-10 14:23:00,79.2,61.7,30.07,East,86,3.0,10.0,55,0.00,,---,0.00,VWS V13.00,2013-02-10 19:23:00,
2013-02-10 14:24:00,79.2,61.7,30.07,ESE,106,3.0,10.0,55,0.00,,---,0.00,VWS V13.00,2013-02-10 19:24:00,
2013-02-10 14:25:00,79.2,61.7,30.07,East,96,3.0,10.0,55,0.00,,---,0.00,VWS V13.00,2013-02-10 19:25:00,
2013-02-10 14:26:00,79.2,61.7,30.07,East,98,3.0,5.0,55,0.00,,---,0.00,VWS V13.00,2013-02-10 19:26:00,
2013-02-10 14:27:00,79.2,61.7,30.07,ESE,117,5.0,7.0,55,0.00,,---,0.00,VWS V13.00,2013-02-10 19:27:00,
2013-02-10 14:28:00,79.2,61.7,30.07,SE,137,4.0,11.0,55,0.00,,---,0.00,VWS V13.00,2013-02-10 19:28:00,
2013-02-10 14:29:00,79.2,61.7,30.07,SSE,149,7.0,11.0,55,0.00,,---,0.00,VWS V13.00,2013-02-10 19:29:00,
2013-02-10 14:30:00,79.2,61.7,30.07,East,94,4.0,11.0,55,0.00,,---,0.00,VWS V13.00,2013-02-10 19:30:00,
2013-02-10 14:31:00,79.2,61.7,30.07,East,85,6.0,7.0,55,0.00,,---,0.00,VWS V13.00,2013-02-10 19:31:00,
2013-02-10 14:32:00,79.2,61.7,30.07,SE,144,8.0,11.0,55,0.00,,---,0.00,VWS V13.00,2013-02-10 19:32:00,
2013-02-10 14:33:00,79.2,61.7,30.07,SE,134,4.0,11.0,55,0.00,,---,0.00,VWS V13.00,2013-02-10 19:33:00,
2013-02-10 14:34:00,79.2,61.7,30.07,SE,136,5.0,11.0,55,0.00,,---,0.00,VWS V13.00,2013-02-10 19:34:00,
2013-02-10 14:35:00,79.2,61.7,30.07,SSE,148,6.0,11.0,55,0.00,,---,0.00,VWS V13.00,2013-02-10 19:35:00,
2013-02-10 14:36:00,79.0,61.5,30.07,SE,128,6.0,11.0,55,0.00,,---,0.00,VWS V13.00,2013-02-10 19:36:00,
2013-02-10 14:37:00,79.0,61.0,30.07,SE,134,3.0,11.0,54,0.00,,---,0.00,VWS V13.00,2013-02-10 19:37:00,
2013-02-10 14:38:00,79.0,61.5,30.07,SSE,148,5.0,11.0,55,0.00,,---,0.00,VWS V13.00,2013-02-10 19:38:00,
2013-02-10 14:39:00,79.0,61.5,30.07,East,84,4.0,11.0,55,0.00,,---,0.00,VWS V13.00,2013-02-10 19:39:00,
2013-02-10 14:40:00,79.0,61.0,30.07,SE,144,6.0,11.0,54,0.00,,---,0.00,VWS V13.00,2013-02-10 19:40:00,
2013-02-10 14:41:00,79.0,61.5,30.07,ESE,103,6.0,12.0,55,0.00,,---,0.00,VWS V13.00,2013-02-10 19:41:00,
2013-02-10 14:42:00,79.0,61.5,30.07,East,95,13.0,13.0,55,0.00,,---,0.00,VWS V13.00,2013-02-10 19:42:00,
2013-02-10 14:43:00,79.0,61.0,30.07,SE,131,7.0,13.0,54,0.00,,---,0.00,VWS V13.00,2013-02-10 19:43:00,
2013-02-10 14:44:00,79.0,61.5,30.07,ESE,119,3.0,13.0,55,0.00,,---,0.00,VWS V13.00,2013-02-10 19:44:00,
2013-02-10 14:45:00,79.0,61.5,30.07,ESE,105,2.0,13.0,55,0.00,,---,0.00,VWS V13.00,2013-02-10 19:45:00,
2013-02-10 14:46:00,79.0,61.5,30.07,ESE,103,2.0,4.0,55,0.00,,---,0.00,VWS V13.00,2013-02-10 19:46:00,
2013-02-10 14:47:00,79.0,61.5,30.07,ESE,103,2.0,4.0,55,0.00,,---,0.00,VWS V13.00,2013-02-10 19:47:00,
2013-02-10 14:48:00,79.2,61.7,30.07,ESE,103,3.0,5.0,55,0.00,,---,0.00,VWS V13.00,2013-02-10 19:48:00,
2013-02-10 14:49:00,79.2,61.7,30.07,ESE,103,5.0,5.0,55,0.00,,---,0.00,VWS V13.00,2013-02-10 19:49:00,
2013-02-10 14:50:00,79.2,61.1,30.07,SE,142,5.0,8.0,54,0.00,,---,0.00,VWS V13.00,2013-02-10 19:50:00,
2013-02-10 14:51:00,79.2,61.1,30.07,East,86,4.0,7.0,54,0.00,,---,0.00,VWS V13.00,2013-02-10 19:51:00,
2013-02-10 14:52:00,79.2,61.7,30.07,East,84,9.0,9.0,55,0.00,,---,0.00,VWS V13.00,2013-02-10 19:52:00,
2013-02-10 14:53:00,79.2,61.1,30.07,SE,126,5.0,12.0,54,0.00,,---,0.00,VWS V13.00,2013-02-10 19:53:00,
2013-02-10 14:54:00,79.3,61.2,30.07,SE,138,8.0,12.0,54,0.00,,---,0.00,VWS V13.00,2013-02-10 19:54:00,
2013-02-10 14:56:00,79.3,61.2,30.07,East,94,6.0,9.0,54,0.00,,---,0.00,VWS V13.00,2013-02-10 19:56:00,
2013-02-10 14:57:00,79.3,61.2,30.07,East,86,9.0,9.0,54,0.00,,---,0.00,VWS V13.00,2013-02-10 19:57:00,
2013-02-10 14:58:00,79.3,61.2,30.07,East,96,6.0,9.0,54,0.00,,---,0.00,VWS V13.00,2013-02-10 19:58:00,
2013-02-10 14:59:00,79.3,61.2,30.07,SE,128,5.0,9.0,54,0.00,,---,0.00,VWS V13.00,2013-02-10 19:59:00,
2013-02-10 15:00:00,79.3,61.2,30.07,ENE,58,3.0,9.0,54,0.00,,---,0.00,VWS V13.00,2013-02-10 20:00:00,
2013-02-10 15:01:00,79.2,61.1,30.07,ESE,106,5.0,9.0,54,0.00,,---,0.00,VWS V13.00,2013-02-10 20:01:00,
2013-02-10 15:02:00,79.2,60.6,30.07,East,87,9.0,10.0,53,0.00,,---,0.00,VWS V13.00,2013-02-10 20:02:00,
2013-02-10 15:03:00,79.2,60.6,30.07,ESE,106,3.0,10.0,53,0.00,,---,0.00,VWS V13.00,2013-02-10 20:03:00,
2013-02-10 15:04:00,79.2,60.6,30.07,ESE,115,3.0,10.0,53,0.00,,---,0.00,VWS V13.00,2013-02-10 20:04:00,
2013-02-10 15:05:00,79.2,60.6,30.07,SSE,153,6.0,10.0,53,0.00,,---,0.00,VWS V13.00,2013-02-10 20:05:00,
2013-02-10 15:06:00,79.2,60.1,30.07,SE,136,4.0,10.0,52,0.00,,---,0.00,VWS V13.00,2013-02-10 20:06:00,
2013-02-10 15:07:00,79.2,60.6,30.07,SE,145,2.0,10.0,53,0.00,,---,0.00,VWS V13.00,2013-02-10 20:07:00,
2013-02-10 15:08:00,79.2,60.6,30.07,SE,144,2.0,10.0,53,0.00,,---,0.00,VWS V13.00,2013-02-10 20:08:00,
2013-02-10 15:09:00,79.2,60.6,30.07,SE,144,2.0,10.0,53,0.00,,---,0.00,VWS V13.00,2013-02-10 20:09:00,
2013-02-10 15:10:00,79.2,60.6,30.07,SE,127,3.0,10.0,53,0.00,,---,0.00,VWS V13.00,2013-02-10 20:10:00,
2013-02-10 15:11:00,79.2,60.6,30.07,ESE,123,3.0,5.0,53,0.00,,---,0.00,VWS V13.00,2013-02-10 20:11:00,
2013-02-10 15:12:00,79.2,60.6,30.07,SE,144,5.0,6.0,53,0.00,,---,0.00,VWS V13.00,2013-02-10 20:12:00,
2013-02-10 15:13:00,79.3,60.7,30.07,SE,142,1.0,6.0,53,0.00,,---,0.00,VWS V13.00,2013-02-10 20:13:00,
2013-02-10 15:14:00,79.3,60.7,30.07,SE,142,0.0,6.0,53,0.00,,---,0.00,VWS V13.00,2013-02-10 20:14:00,
2013-02-10 15:15:00,79.3,61.2,30.07,SE,142,0.0,6.0,54,0.00,,---,0.00,VWS V13.00,2013-02-10 20:15:00,
2013-02-10 15:16:00,79.3,61.2,30.07,SE,142,2.0,2.0,54,0.00,,---,0.00,VWS V13.00,2013-02-10 20:16:00,
2013-02-10 15:17:00,79.5,61.9,30.07,SE,142,1.0,2.0,55,0.00,,---,0.00,VWS V13.00,2013-02-10 20:17:00,
2013-02-10 15:18:00,79.5,63.0,30.07,SE,142,2.0,3.0,57,0.00,,---,0.00,VWS V13.00,2013-02-10 20:18:00,
2013-02-10 15:19:00,79.7,63.1,30.07,SE,142,1.0,3.0,57,0.00,,---,0.00,VWS V13.00,2013-02-10 20:19:00,
2013-02-10 15:20:00,79.7,63.1,30.07,SE,142,2.0,3.0,57,0.00,,---,0.00,VWS V13.00,2013-02-10 20:20:00,
2013-02-10 15:21:00,79.7,63.1,30.07,SE,142,3.0,4.0,57,0.00,,---,0.00,VWS V13.00,2013-02-10 20:21:00,
2013-02-10 15:22:00,79.9,63.3,30.07,SE,142,1.0,4.0,57,0.00,,---,0.00,VWS V13.00,2013-02-10 20:22:00,
2013-02-10 15:23:00,79.9,63.3,30.07,SW,214,1.0,4.0,57,0.00,,---,0.00,VWS V13.00,2013-02-10 20:23:00,
2013-02-10 15:24:00,80.1,63.0,30.07,WSW,238,4.0,6.0,56,0.00,,---,0.00,VWS V13.00,2013-02-10 20:24:00,
2013-02-10 15:25:00,80.1,63.0,30.07,WSW,238,2.0,6.0,56,0.00,,---,0.00,VWS V13.00,2013-02-10 20:25:00,
2013-02-10 15:26:00,80.1,63.0,30.07,WSW,238,1.0,3.0,56,0.00,,---,0.00,VWS V13.00,2013-02-10 20:26:00,
2013-02-10 15:27:00,80.1,63.0,30.07,WSW,238,0.0,3.0,56,0.00,,---,0.00,VWS V13.00,2013-02-10 20:27:00,
2013-02-10 15:28:00,80.1,63.0,30.07,WSW,238,1.0,3.0,56,0.00,,---,0.00,VWS V13.00,2013-02-10 20:28:00,
2013-02-10 15:29:00,80.1,63.0,30.07,WSW,238,2.0,5.0,56,0.00,,---,0.00,VWS V13.00,2013-02-10 20:29:00,
2013-02-10 15:30:00,80.2,63.6,30.07,SW,235,2.0,5.0,57,0.00,,---,0.00,VWS V13.00,2013-02-10 20:30:00,
2013-02-10 15:31:00,80.2,63.1,30.07,SW,236,2.0,5.0,56,0.00,,---,0.00,VWS V13.00,2013-02-10 20:31:00,
2013-02-10 15:32:00,80.2,63.6,30.07,SW,221,2.0,5.0,57,0.00,,---,0.00,VWS V13.00,2013-02-10 20:32:00,
2013-02-10 15:33:00,80.2,63.6,30.07,SW,221,2.0,5.0,57,0.00,,---,0.00,VWS V13.00,2013-02-10 20:33:00,
2013-02-10 15:34:00,80.2,63.6,30.07,SW,221,3.0,5.0,57,0.00,,---,0.00,VWS V13.00,2013-02-10 20:34:00,
2013-02-10 15:35:00,80.2,63.6,30.07,SW,221,2.0,5.0,57,0.00,,---,0.00,VWS V13.00,2013-02-10 20:35:00,
2013-02-10 15:36:00,80.2,63.6,30.07,SW,221,3.0,4.0,57,0.00,,---,0.00,VWS V13.00,2013-02-10 20:36:00,
2013-02-10 15:37:00,80.1,63.5,30.07,SW,221,1.0,4.0,57,0.00,,---,0.00,VWS V13.00,2013-02-10 20:37:00,
2013-02-10 15:38:00,80.1,63.5,30.07,SW,217,3.0,4.0,57,0.00,,---,0.00,VWS V13.00,2013-02-10 20:38:00,
2013-02-10 15:39:00,80.1,63.5,30.07,SSW,208,2.0,4.0,57,0.00,,---,0.00,VWS V13.00,2013-02-10 20:39:00,
2013-02-10 15:40:00,80.1,63.5,30.07,SSW,208,2.0,4.0,57,0.00,,---,0.00,VWS V13.00,2013-02-10 20:40:00,
2013-02-10 15:41:00,80.1,63.5,30.07,SSW,208,0.0,2.0,57,0.00,,---,0.00,VWS V13.00,2013-02-10 20:41:00,
2013-02-10 15:42:00,79.9,63.8,30.07,SSW,208,1.0,2.0,58,0.00,,---,0.00,VWS V13.00,2013-02-10 20:42:00,
2013-02-10 15:43:00,79.9,63.8,30.07,SSW,208,2.0,4.0,58,0.00,,---,0.00,VWS V13.00,2013-02-10 20:43:00,
2013-02-10 15:44:00,79.9,63.8,30.07,SSW,208,3.0,4.0,58,0.00,,---,0.00,VWS V13.00,2013-02-10 20:44:00,
2013-02-10 15:45:00,79.9,63.8,30.07,SSW,208,2.0,4.0,58,0.00,,---,0.00,VWS V13.00,2013-02-10 20:45:00,
2013-02-10 15:46:00,79.9,63.8,30.07,SW,228,0.0,5.0,58,0.00,,---,0.00,VWS V13.00,2013-02-10 20:46:00,
2013-02-10 15:47:00,79.9,63.8,30.07,SW,228,0.0,5.0,58,0.00,,---,0.00,VWS V13.00,2013-02-10 20:47:00,
2013-02-10 15:48:00,79.9,63.8,30.07,SW,228,1.0,5.0,58,0.00,,---,0.00,VWS V13.00,2013-02-10 20:48:00,
2013-02-10 15:49:00,79.7,63.6,30.07,SW,228,0.0,5.0,58,0.00,,---,0.00,VWS V13.00,2013-02-10 20:49:00,
2013-02-10 15:50:00,79.7,64.1,30.07,SW,228,1.0,5.0,59,0.00,,---,0.00,VWS V13.00,2013-02-10 20:50:00,
2013-02-10 15:51:00,79.7,63.6,30.07,SW,228,1.0,2.0,58,0.00,,---,0.00,VWS V13.00,2013-02-10 20:51:00,
2013-02-10 15:52:00,79.7,64.1,30.07,SW,228,1.0,2.0,59,0.00,,---,0.00,VWS V13.00,2013-02-10 20:52:00,
2013-02-10 15:53:00,79.7,63.6,30.07,SW,228,1.0,2.0,58,0.00,,---,0.00,VWS V13.00,2013-02-10 20:53:00,
2013-02-10 15:54:00,79.7,63.6,30.07,SW,228,1.0,3.0,58,0.00,,---,0.00,VWS V13.00,2013-02-10 20:54:00,
2013-02-10 15:55:00,79.7,64.1,30.07,SW,228,1.0,3.0,59,0.00,,---,0.00,VWS V13.00,2013-02-10 20:55:00,
2013-02-10 15:56:00,79.7,64.1,30.07,SW,228,1.0,3.0,59,0.00,,---,0.00,VWS V13.00,2013-02-10 20:56:00,
2013-02-10 15:57:00,79.5,63.9,30.07,SW,228,0.0,3.0,59,0.00,,---,0.00,VWS V13.00,2013-02-10 20:57:00,
2013-02-10 15:58:00,79.5,63.9,30.07,SW,228,1.0,3.0,59,0.00,,---,0.00,VWS V13.00,2013-02-10 20:58:00,
2013-02-10 15:59:00,79.5,63.9,30.08,SW,228,1.0,3.0,59,0.00,,---,0.00,VWS V13.00,2013-02-10 20:59:00,
2013-02-10 16:00:00,79.5,63.9,30.08,SW,228,2.0,3.0,59,0.00,,---,0.00,VWS V13.00,2013-02-10 21:00:00,
2013-02-10 16:01:00,79.5,63.4,30.08,SW,227,2.0,3.0,58,0.00,,---,0.00,VWS V13.00,2013-02-10 21:01:00,
2013-02-10 16:02:00,79.5,63.9,30.08,SW,227,0.0,3.0,59,0.00,,---,0.00,VWS V13.00,2013-02-10 21:02:00,
2013-02-10 16:03:00,79.3,63.3,30.08,SW,227,2.0,3.0,58,0.00,,---,0.00,VWS V13.00,2013-02-10 21:03:00,
2013-02-10 16:04:00,79.3,63.3,30.08,SW,218,1.0,4.0,58,0.00,,---,0.00,VWS V13.00,2013-02-10 21:04:00,
2013-02-10 16:05:00,79.3,63.3,30.08,SSW,201,2.0,4.0,58,0.00,,---,0.00,VWS V13.00,2013-02-10 21:05:00,
2013-02-10 16:06:00,79.3,63.3,30.08,SSW,201,0.0,2.0,58,0.00,,---,0.00,VWS V13.00,2013-02-10 21:06:00,
2013-02-10 16:07:00,79.3,63.3,30.08,SSW,201,2.0,2.0,58,0.00,,---,0.00,VWS V13.00,2013-02-10 21:07:00,
2013-02-10 16:08:00,79.3,63.3,30.08,SSW,201,0.0,2.0,58,0.00,,---,0.00,VWS V13.00,2013-02-10 21:08:00,
2013-02-10 16:09:00,79.3,63.3,30.08,SSW,201,1.0,2.0,58,0.00,,---,0.00,VWS V13.00,2013-02-10 21:09:00,
2013-02-10 16:10:00,79.3,62.8,30.08,SSW,201,1.0,3.0,57,0.00,,---,0.00,VWS V13.00,2013-02-10 21:10:00,
2013-02-10 16:11:00,79.3,62.8,30.08,SSW,201,2.0,2.0,57,0.00,,---,0.00,VWS V13.00,2013-02-10 21:11:00,
2013-02-10 16:12:00,79.2,62.7,30.08,SSW,201,1.0,2.0,57,0.00,,---,0.00,VWS V13.00,2013-02-10 21:12:00,
2013-02-10 16:13:00,79.2,62.7,30.08,SSW,201,0.0,2.0,57,0.00,,---,0.00,VWS V13.00,2013-02-10 21:13:00,
2013-02-10 16:14:00,79.2,63.2,30.07,SSW,201,0.0,2.0,58,0.00,,---,0.00,VWS V13.00,2013-02-10 21:14:00,
2013-02-10 16:15:00,79.2,63.2,30.07,SSW,201,1.0,3.0,58,0.00,,---,0.00,VWS V13.00,2013-02-10 21:15:00,
2013-02-10 16:16:00,79.2,63.7,30.07,SSW,201,0.0,3.0,59,0.00,,---,0.00,VWS V13.00,2013-02-10 21:16:00,
2013-02-10 16:17:00,79.0,63.0,30.07,SSW,201,2.0,3.0,58,0.00,,---,0.00,VWS V13.00,2013-02-10 21:17:00,
2013-02-10 16:18:00,79.0,63.0,30.07,SSW,201,1.0,3.0,58,0.00,,---,0.00,VWS V13.00,2013-02-10 21:18:00,
2013-02-10 16:19:00,79.0,63.0,30.07,SSW,201,2.0,3.0,58,0.00,,---,0.00,VWS V13.00,2013-02-10 21:19:00,
2013-02-10 16:20:00,79.0,63.0,30.07,SSW,201,0.0,3.0,58,0.00,,---,0.00,VWS V13.00,2013-02-10 21:20:00,
2013-02-10 16:21:00,79.0,63.0,30.07,SSW,201,0.0,2.0,58,0.00,,---,0.00,VWS V13.00,2013-02-10 21:21:00,
2013-02-10 16:22:00,78.8,63.3,30.07,SSW,201,0.0,2.0,59,0.00,,---,0.00,VWS V13.00,2013-02-10 21:22:00,
2013-02-10 16:23:00,78.8,63.3,30.07,SSW,201,0.0,2.0,59,0.00,,---,0.00,VWS V13.00,2013-02-10 21:23:00,
2013-02-10 16:24:00,78.8,63.3,30.07,SSW,201,0.0,2.0,59,0.00,,---,0.00,VWS V13.00,2013-02-10 21:24:00,
2013-02-10 16:25:00,78.6,63.1,30.07,SSW,201,1.0,2.0,59,0.00,,---,0.00,VWS V13.00,2013-02-10 21:25:00,
2013-02-10 16:26:00,78.6,63.1,30.07,SSW,201,0.0,1.0,59,0.00,,---,0.00,VWS V13.00,2013-02-10 21:26:00,
2013-02-10 16:27:00,78.6,63.1,30.07,SSW,201,1.0,2.0,59,0.00,,---,0.00,VWS V13.00,2013-02-10 21:27:00,
2013-02-10 16:28:00,78.6,63.1,30.07,SSW,201,0.0,2.0,59,0.00,,---,0.00,VWS V13.00,2013-02-10 21:28:00,
2013-02-10 16:29:00,78.4,62.9,30.07,SSW,201,1.0,2.0,59,0.00,,---,0.00,VWS V13.00,2013-02-10 21:29:00,
2013-02-10 16:30:00,78.4,62.9,30.07,SSW,201,1.0,2.0,59,0.00,,---,0.00,VWS V13.00,2013-02-10 21:30:00,
2013-02-10 16:31:00,78.4,62.9,30.07,SSW,201,1.0,2.0,59,0.00,,---,0.00,VWS V13.00,2013-02-10 21:31:00,
2013-02-10 16:32:00,78.4,62.9,30.07,SSW,201,2.0,2.0,59,0.00,,---,0.00,VWS V13.00,2013-02-10 21:32:00,
2013-02-10 16:33:00,78.3,62.8,30.07,SSW,201,0.0,2.0,59,0.00,,---,0.00,VWS V13.00,2013-02-10 21:33:00,
2013-02-10 16:34:00,78.3,62.8,30.07,SSW,201,0.0,2.0,59,0.00,,---,0.00,VWS V13.00,2013-02-10 21:34:00,
2013-02-10 16:35:00,78.3,62.8,30.07,SSW,201,1.0,2.0,59,0.00,,---,0.00,VWS V13.00,2013-02-10 21:35:00,
2013-02-10 16:36:00,78.3,63.3,30.07,SSW,201,1.0,1.0,60,0.00,,---,0.00,VWS V13.00,2013-02-10 21:36:00,
2013-02-10 16:37:00,78.3,63.3,30.07,SSW,201,3.0,3.0,60,0.00,,---,0.00,VWS V13.00,2013-02-10 21:37:00,
2013-02-10 16:38:00,78.1,63.1,30.07,SSW,201,1.0,3.0,60,0.00,,---,0.00,VWS V13.00,2013-02-10 21:38:00,
2013-02-10 16:39:00,78.1,62.6,30.07,SSW,201,2.0,3.0,59,0.00,,---,0.00,VWS V13.00,2013-02-10 21:39:00,
2013-02-10 16:40:00,78.1,63.1,30.07,SSW,201,3.0,3.0,60,0.00,,---,0.00,VWS V13.00,2013-02-10 21:40:00,
2013-02-10 16:41:00,78.1,63.1,30.07,SSW,201,1.0,3.0,60,0.00,,---,0.00,VWS V13.00,2013-02-10 21:41:00,
2013-02-10 16:42:00,78.1,63.1,30.07,SSW,201,2.0,3.0,60,0.00,,---,0.00,VWS V13.00,2013-02-10 21:42:00,
2013-02-10 16:43:00,78.1,63.1,30.07,SSW,201,2.0,3.0,60,0.00,,---,0.00,VWS V13.00,2013-02-10 21:43:00,
2013-02-10 16:44:00,78.1,63.1,30.07,SSW,201,2.0,3.0,60,0.00,,---,0.00,VWS V13.00,2013-02-10 21:44:00,
2013-02-10 16:45:00,78.1,63.1,30.07,SSW,201,2.0,3.0,60,0.00,,---,0.00,VWS V13.00,2013-02-10 21:45:00,
2013-02-10 16:46:00,78.1,63.1,30.07,SSW,201,2.0,3.0,60,0.00,,---,0.00,VWS V13.00,2013-02-10 21:46:00,
2013-02-10 16:47:00,77.9,62.9,30.07,SSW,201,2.0,4.0,60,0.00,,---,0.00,VWS V13.00,2013-02-10 21:47:00,
2013-02-10 16:48:00,77.9,62.9,30.07,SSW,201,1.0,4.0,60,0.00,,---,0.00,VWS V13.00,2013-02-10 21:48:00,
2013-02-10 16:49:00,77.9,62.9,30.07,SSW,201,1.0,4.0,60,0.00,,---,0.00,VWS V13.00,2013-02-10 21:49:00,
2013-02-10 16:50:00,77.9,62.9,30.07,SSW,201,2.0,4.0,60,0.00,,---,0.00,VWS V13.00,2013-02-10 21:50:00,
2013-02-10 16:51:00,77.9,62.9,30.07,SSW,201,1.0,2.0,60,0.00,,---,0.00,VWS V13.00,2013-02-10 21:51:00,
2013-02-10 16:52:00,77.7,62.7,30.07,SSW,201,2.0,3.0,60,0.00,,---,0.00,VWS V13.00,2013-02-10 21:52:00,
2013-02-10 16:53:00,77.7,62.7,30.07,SSW,201,0.0,3.0,60,0.00,,---,0.00,VWS V13.00,2013-02-10 21:53:00,
2013-02-10 16:54:00,77.7,62.7,30.07,SSW,201,1.0,3.0,60,0.00,,---,0.00,VWS V13.00,2013-02-10 21:54:00,
2013-02-10 16:55:00,77.7,62.7,30.07,SSW,201,2.0,3.0,60,0.00,,---,0.00,VWS V13.00,2013-02-10 21:55:00,
2013-02-10 16:56:00,77.6,62.6,30.07,South,181,1.0,5.0,60,0.00,,---,0.00,VWS V13.00,2013-02-10 21:56:00,
2013-02-10 16:57:00,77.6,62.6,30.07,South,181,1.0,5.0,60,0.00,,---,0.00,VWS V13.00,2013-02-10 21:57:00,
2013-02-10 16:58:00,77.4,62.4,30.07,South,181,1.0,5.0,60,0.00,,---,0.00,VWS V13.00,2013-02-10 21:58:00,
2013-02-10 16:59:00,77.4,62.9,30.07,South,182,2.0,5.0,61,0.00,,---,0.00,VWS V13.00,2013-02-10 21:59:00,
2013-02-10 17:00:00,77.4,62.4,30.07,South,182,3.0,5.0,60,0.00,,---,0.00,VWS V13.00,2013-02-10 22:00:00,
2013-02-10 17:01:00,77.2,62.7,30.07,South,182,0.0,3.0,61,0.00,,---,0.00,VWS V13.00,2013-02-10 22:01:00,
2013-02-10 17:02:00,77.2,62.7,30.07,South,182,1.0,3.0,61,0.00,,---,0.00,VWS V13.00,2013-02-10 22:02:00,
2013-02-10 17:03:00,77.0,62.5,30.07,South,182,1.0,3.0,61,0.00,,---,0.00,VWS V13.00,2013-02-10 22:03:00,
2013-02-10 17:04:00,77.0,62.5,30.07,South,182,1.0,3.0,61,0.00,,---,0.00,VWS V13.00,2013-02-10 22:04:00,
2013-02-10 17:05:00,77.0,63.0,30.07,South,182,0.0,3.0,62,0.00,,---,0.00,VWS V13.00,2013-02-10 22:05:00,
2013-02-10 17:06:00,76.9,62.9,30.07,South,182,0.0,1.0,62,0.00,,---,0.00,VWS V13.00,2013-02-10 22:06:00,
2013-02-10 17:07:00,76.9,62.9,30.07,South,182,0.0,1.0,62,0.00,,---,0.00,VWS V13.00,2013-02-10 22:07:00,
2013-02-10 17:08:00,76.7,62.7,30.07,South,182,0.0,1.0,62,0.00,,---,0.00,VWS V13.00,2013-02-10 22:08:00,
2013-02-10 17:09:00,76.7,62.7,30.07,South,182,0.0,1.0,62,0.00,,---,0.00,VWS V13.00,2013-02-10 22:09:00,
2013-02-10 17:10:00,76.7,62.7,30.07,South,182,2.0,2.0,62,0.00,,---,0.00,VWS V13.00,2013-02-10 22:10:00,
2013-02-10 17:11:00,76.5,62.5,30.07,South,182,0.0,2.0,62,0.00,,---,0.00,VWS V13.00,2013-02-10 22:11:00,
2013-02-10 17:12:00,76.5,63.0,30.07,South,182,0.0,2.0,63,0.00,,---,0.00,VWS V13.00,2013-02-10 22:12:00,
2013-02-10 17:13:00,76.3,62.8,30.07,South,182,0.0,2.0,63,0.00,,---,0.00,VWS V13.00,2013-02-10 22:13:00,
2013-02-10 17:14:00,76.3,62.8,30.07,South,182,0.0,2.0,63,0.00,,---,0.00,VWS V13.00,2013-02-10 22:14:00,
2013-02-10 17:15:00,76.3,62.8,30.07,South,182,2.0,2.0,63,0.00,,---,0.00,VWS V13.00,2013-02-10 22:15:00,
2013-02-10 17:16:00,76.2,63.1,30.07,South,182,2.0,3.0,64,0.00,,---,0.00,VWS V13.00,2013-02-10 22:16:00,
2013-02-10 17:17:00,76.2,63.1,30.07,South,182,0.0,3.0,64,0.00,,---,0.00,VWS V13.00,2013-02-10 22:17:00,
2013-02-10 17:18:00,76.0,63.0,30.07,South,182,0.0,3.0,64,0.00,,---,0.00,VWS V13.00,2013-02-10 22:18:00,
2013-02-10 17:19:00,76.0,63.0,30.07,South,182,0.0,3.0,64,0.00,,---,0.00,VWS V13.00,2013-02-10 22:19:00,
2013-02-10 17:20:00,75.8,62.8,30.07,South,182,0.0,3.0,64,0.00,,---,0.00,VWS V13.00,2013-02-10 22:20:00,
2013-02-10 17:21:00,75.8,63.2,30.07,South,182,0.0,0.0,65,0.00,,---,0.00,VWS V13.00,2013-02-10 22:21:00,
2013-02-10 17:22:00,75.6,63.0,30.07,South,182,0.0,0.0,65,0.00,,---,0.00,VWS V13.00,2013-02-10 22:22:00,
2013-02-10 17:23:00,75.6,63.0,30.07,South,182,0.0,0.0,65,0.00,,---,0.00,VWS V13.00,2013-02-10 22:23:00,
2013-02-10 17:24:00,75.6,63.0,30.07,South,182,0.0,0.0,65,0.00,,---,0.00,VWS V13.00,2013-02-10 22:24:00,
2013-02-10 17:25:00,75.5,62.9,30.07,South,182,0.0,1.0,65,0.00,,---,0.00,VWS V13.00,2013-02-10 22:25:00,
2013-02-10 17:26:00,75.5,62.9,30.07,South,182,0.0,0.0,65,0.00,,---,0.00,VWS V13.00,2013-02-10 22:26:00,
2013-02-10 17:27:00,75.5,62.9,30.07,South,182,0.0,0.0,65,0.00,,---,0.00,VWS V13.00,2013-02-10 22:27:00,
2013-02-10 17:28:00,75.3,62.7,30.07,South,182,0.0,0.0,65,0.00,,---,0.00,VWS V13.00,2013-02-10 22:28:00,
2013-02-10 17:29:00,75.3,63.2,30.07,South,182,1.0,1.0,66,0.00,,---,0.00,VWS V13.00,2013-02-10 22:29:00,
2013-02-10 17:30:00,75.3,63.2,30.08,South,182,0.0,1.0,66,0.00,,---,0.00,VWS V13.00,2013-02-10 22:30:00,
2013-02-10 17:31:00,75.1,63.0,30.08,South,182,0.0,1.0,66,0.00,,---,0.00,VWS V13.00,2013-02-10 22:31:00,
2013-02-10 17:32:00,75.1,63.0,30.08,South,182,0.0,1.0,66,0.00,,---,0.00,VWS V13.00,2013-02-10 22:32:00,
2013-02-10 17:33:00,75.1,63.0,30.08,South,182,1.0,2.0,66,0.00,,---,0.00,VWS V13.00,2013-02-10 22:33:00,
2013-02-10 17:34:00,74.9,63.2,30.08,South,182,0.0,2.0,67,0.00,,---,0.00,VWS V13.00,2013-02-10 22:34:00,
2013-02-10 17:35:00,74.9,63.2,30.08,South,182,1.0,3.0,67,0.00,,---,0.00,VWS V13.00,2013-02-10 22:35:00,
2013-02-10 17:36:00,74.9,63.2,30.08,South,182,0.0,1.0,67,0.00,,---,0.00,VWS V13.00,2013-02-10 22:36:00,
2013-02-10 17:37:00,74.8,63.1,30.08,South,182,0.0,1.0,67,0.00,,---,0.00,VWS V13.00,2013-02-10 22:37:00,
2013-02-10 17:38:00,74.8,63.1,30.08,South,182,1.0,2.0,67,0.00,,---,0.00,VWS V13.00,2013-02-10 22:38:00,
2013-02-10 17:39:00,74.6,62.9,30.08,South,180,4.0,4.0,67,0.00,,---,0.00,VWS V13.00,2013-02-10 22:39:00,
2013-02-10 17:40:00,74.6,62.9,30.08,South,180,0.0,4.0,67,0.00,,---,0.00,VWS V13.00,2013-02-10 22:40:00,
2013-02-10 17:41:00,74.6,63.3,30.08,South,181,0.0,2.0,68,0.00,,---,0.00,VWS V13.00,2013-02-10 22:41:00,
2013-02-10 17:42:00,74.4,63.2,30.08,South,181,2.0,2.0,68,0.00,,---,0.00,VWS V13.00,2013-02-10 22:42:00,
2013-02-10 17:43:00,74.4,63.2,30.08,South,181,0.0,2.0,68,0.00,,---,0.00,VWS V13.00,2013-02-10 22:43:00,
2013-02-10 17:44:00,74.3,63.1,30.08,South,181,0.0,2.0,68,0.00,,---,0.00,VWS V13.00,2013-02-10 22:44:00,
2013-02-10 17:45:00,74.3,63.1,30.08,South,181,0.0,2.0,68,0.00,,---,0.00,VWS V13.00,2013-02-10 22:45:00,
2013-02-10 17:46:00,74.3,63.1,30.08,South,181,1.0,2.0,68,0.00,,---,0.00,VWS V13.00,2013-02-10 22:46:00,
2013-02-10 17:47:00,74.1,62.9,30.08,South,181,0.0,2.0,68,0.00,,---,0.00,VWS V13.00,2013-02-10 22:47:00,
2013-02-10 17:48:00,74.1,63.3,30.08,South,181,0.0,2.0,69,0.00,,---,0.00,VWS V13.00,2013-02-10 22:48:00,
2013-02-10 17:49:00,74.1,63.3,30.08,South,181,0.0,2.0,69,0.00,,---,0.00,VWS V13.00,2013-02-10 22:49:00,
2013-02-10 17:50:00,73.9,63.1,30.08,South,181,0.0,2.0,69,0.00,,---,0.00,VWS V13.00,2013-02-10 22:50:00,
2013-02-10 17:51:00,73.9,63.1,30.08,South,181,1.0,3.0,69,0.00,,---,0.00,VWS V13.00,2013-02-10 22:51:00,
2013-02-10 17:52:00,73.9,63.1,30.08,South,181,0.0,3.0,69,0.00,,---,0.00,VWS V13.00,2013-02-10 22:52:00,
2013-02-10 17:53:00,73.7,62.9,30.08,South,181,0.0,3.0,69,0.00,,---,0.00,VWS V13.00,2013-02-10 22:53:00,
2013-02-10 17:54:00,73.7,62.9,30.08,South,181,0.0,3.0,69,0.00,,---,0.00,VWS V13.00,2013-02-10 22:54:00,
2013-02-10 17:55:00,73.7,62.9,30.08,South,181,0.0,3.0,69,0.00,,---,0.00,VWS V13.00,2013-02-10 22:55:00,
2013-02-10 17:56:00,73.7,62.9,30.08,South,181,0.0,1.0,69,0.00,,---,0.00,VWS V13.00,2013-02-10 22:56:00,
2013-02-10 17:57:00,73.6,62.8,30.08,South,181,0.0,1.0,69,0.00,,---,0.00,VWS V13.00,2013-02-10 22:57:00,
2013-02-10 17:58:00,73.6,62.8,30.08,South,181,0.0,1.0,69,0.00,,---,0.00,VWS V13.00,2013-02-10 22:58:00,
2013-02-10 17:59:00,73.6,63.2,30.09,South,181,0.0,1.0,70,0.00,,---,0.00,VWS V13.00,2013-02-10 22:59:00,
2013-02-10 18:00:00,73.4,63.0,30.09,South,181,0.0,1.0,70,0.00,,---,0.00,VWS V13.00,2013-02-10 23:00:00,
2013-02-10 18:01:00,73.4,63.0,30.09,South,181,0.0,0.0,70,0.00,,---,0.00,VWS V13.00,2013-02-10 23:01:00,
2013-02-10 18:02:00,73.4,63.0,30.09,South,181,0.0,0.0,70,0.00,,---,0.00,VWS V13.00,2013-02-10 23:02:00,
2013-02-10 18:03:00,73.4,63.0,30.09,South,181,0.0,0.0,70,0.00,,---,0.00,VWS V13.00,2013-02-10 23:03:00,
2013-02-10 18:04:00,73.2,62.8,30.09,South,181,0.0,0.0,70,0.00,,---,0.00,VWS V13.00,2013-02-10 23:04:00,
2013-02-10 18:05:00,73.2,62.8,30.09,South,181,0.0,0.0,70,0.00,,---,0.00,VWS V13.00,2013-02-10 23:05:00,
2013-02-10 18:06:00,73.2,63.2,30.09,South,181,0.0,0.0,71,0.00,,---,0.00,VWS V13.00,2013-02-10 23:06:00,
2013-02-10 18:07:00,73.2,63.2,30.09,South,181,0.0,0.0,71,0.00,,---,0.00,VWS V13.00,2013-02-10 23:07:00,
2013-02-10 18:08:00,73.1,63.2,30.09,South,181,0.0,0.0,71,0.00,,---,0.00,VWS V13.00,2013-02-10 23:08:00,
2013-02-10 18:09:00,73.1,63.2,30.09,South,181,0.0,0.0,71,0.00,,---,0.00,VWS V13.00,2013-02-10 23:09:00,
2013-02-10 18:10:00,73.1,63.2,30.09,South,181,0.0,0.0,71,0.00,,---,0.00,VWS V13.00,2013-02-10 23:10:00,
2013-02-10 18:11:00,73.1,63.5,30.09,South,181,0.0,1.0,72,0.00,,---,0.00,VWS V13.00,2013-02-10 23:11:00,
2013-02-10 18:12:00,72.9,63.3,30.09,South,181,0.0,1.0,72,0.00,,---,0.00,VWS V13.00,2013-02-10 23:12:00,
2013-02-10 18:13:00,72.9,63.3,30.09,South,181,0.0,2.0,72,0.00,,---,0.00,VWS V13.00,2013-02-10 23:13:00,
2013-02-10 18:14:00,72.9,63.3,30.09,South,181,0.0,2.0,72,0.00,,---,0.00,VWS V13.00,2013-02-10 23:14:00,
2013-02-10 18:15:00,72.7,63.2,30.09,South,181,0.0,2.0,72,0.00,,---,0.00,VWS V13.00,2013-02-10 23:15:00,
2013-02-10 18:16:00,72.7,63.2,30.09,South,181,0.0,0.0,72,0.00,,---,0.00,VWS V13.00,2013-02-10 23:16:00,
2013-02-10 18:17:00,72.7,63.2,30.09,South,181,0.0,0.0,72,0.00,,---,0.00,VWS V13.00,2013-02-10 23:17:00,
2013-02-10 18:18:00,72.7,63.2,30.09,South,181,0.0,0.0,72,0.00,,---,0.00,VWS V13.00,2013-02-10 23:18:00,
2013-02-10 18:19:00,72.7,63.2,30.09,South,181,0.0,0.0,72,0.00,,---,0.00,VWS V13.00,2013-02-10 23:19:00,
2013-02-10 18:20:00,72.7,63.2,30.09,South,181,0.0,0.0,72,0.00,,---,0.00,VWS V13.00,2013-02-10 23:20:00,
2013-02-10 18:21:00,72.5,63.0,30.09,South,181,0.0,1.0,72,0.00,,---,0.00,VWS V13.00,2013-02-10 23:21:00,
2013-02-10 18:22:00,72.5,63.4,30.09,South,181,0.0,1.0,73,0.00,,---,0.00,VWS V13.00,2013-02-10 23:22:00,
2013-02-10 18:23:00,72.5,63.4,30.09,South,181,0.0,1.0,73,0.00,,---,0.00,VWS V13.00,2013-02-10 23:23:00,
2013-02-10 18:24:00,72.5,63.4,30.09,South,181,0.0,1.0,73,0.00,,---,0.00,VWS V13.00,2013-02-10 23:24:00,
2013-02-10 18:25:00,72.5,63.4,30.09,South,181,0.0,1.0,73,0.00,,---,0.00,VWS V13.00,2013-02-10 23:25:00,
2013-02-10 18:26:00,72.5,63.4,30.09,South,181,0.0,0.0,73,0.00,,---,0.00,VWS V13.00,2013-02-10 23:26:00,
2013-02-10 18:27:00,72.5,63.4,30.09,South,181,0.0,0.0,73,0.00,,---,0.00,VWS V13.00,2013-02-10 23:27:00,
2013-02-10 18:28:00,72.5,63.4,30.09,South,181,0.0,0.0,73,0.00,,---,0.00,VWS V13.00,2013-02-10 23:28:00,
2013-02-10 18:29:00,72.4,63.3,30.09,South,181,0.0,1.0,73,0.00,,---,0.00,VWS V13.00,2013-02-10 23:29:00,
2013-02-10 18:30:00,72.4,63.3,30.10,South,181,0.0,1.0,73,0.00,,---,0.00,VWS V13.00,2013-02-10 23:30:00,
2013-02-10 18:31:00,72.4,63.3,30.10,South,181,0.0,0.0,73,0.00,,---,0.00,VWS V13.00,2013-02-10 23:31:00,
2013-02-10 18:32:00,72.4,63.3,30.10,South,181,0.0,0.0,73,0.00,,---,0.00,VWS V13.00,2013-02-10 23:32:00,
2013-02-10 18:33:00,72.4,63.3,30.10,South,181,0.0,0.0,73,0.00,,---,0.00,VWS V13.00,2013-02-10 23:33:00,
2013-02-10 18:34:00,72.4,63.7,30.10,South,181,0.0,0.0,74,0.00,,---,0.00,VWS V13.00,2013-02-10 23:34:00,
2013-02-10 18:35:00,72.4,63.7,30.10,South,181,0.0,0.0,74,0.00,,---,0.00,VWS V13.00,2013-02-10 23:35:00,
2013-02-10 18:36:00,72.4,63.7,30.10,South,181,0.0,0.0,74,0.00,,---,0.00,VWS V13.00,2013-02-10 23:36:00,
2013-02-10 18:37:00,72.4,63.7,30.10,South,181,0.0,0.0,74,0.00,,---,0.00,VWS V13.00,2013-02-10 23:37:00,
2013-02-10 18:38:00,72.2,63.5,30.10,South,181,0.0,1.0,74,0.00,,---,0.00,VWS V13.00,2013-02-10 23:38:00,
2013-02-10 18:39:00,72.2,63.5,30.10,South,181,1.0,1.0,74,0.00,,---,0.00,VWS V13.00,2013-02-10 23:39:00,
2013-02-10 18:40:00,72.2,63.5,30.10,South,181,1.0,3.0,74,0.00,,---,0.00,VWS V13.00,2013-02-10 23:40:00,
2013-02-10 18:41:00,72.2,63.5,30.10,South,181,2.0,2.0,74,0.00,,---,0.00,VWS V13.00,2013-02-10 23:41:00,
2013-02-10 18:42:00,72.2,63.5,30.10,South,180,2.0,3.0,74,0.00,,---,0.00,VWS V13.00,2013-02-10 23:42:00,
2013-02-10 18:43:00,72.0,63.3,30.10,South,180,0.0,3.0,74,0.00,,---,0.00,VWS V13.00,2013-02-10 23:43:00,
2013-02-10 18:44:00,72.0,63.7,30.10,South,180,0.0,3.0,75,0.00,,---,0.00,VWS V13.00,2013-02-10 23:44:00,
2013-02-10 18:45:00,72.0,63.7,30.09,South,180,0.0,3.0,75,0.00,,---,0.00,VWS V13.00,2013-02-10 23:45:00,
2013-02-10 18:46:00,72.0,63.7,30.09,South,180,0.0,0.0,75,0.00,,---,0.00,VWS V13.00,2013-02-10 23:46:00,
2013-02-10 18:47:00,72.0,63.7,30.09,South,180,0.0,1.0,75,0.00,,---,0.00,VWS V13.00,2013-02-10 23:47:00,
2013-02-10 18:48:00,71.9,63.5,30.09,South,180,2.0,2.0,75,0.00,,---,0.00,VWS V13.00,2013-02-10 23:48:00,
2013-02-10 18:49:00,71.9,63.5,30.09,South,180,2.0,3.0,75,0.00,,---,0.00,VWS V13.00,2013-02-10 23:49:00,
2013-02-10 18:50:00,71.9,63.5,30.09,South,180,2.0,3.0,75,0.00,,---,0.00,VWS V13.00,2013-02-10 23:50:00,
2013-02-10 18:51:00,71.9,63.5,30.09,South,180,2.0,3.0,75,0.00,,---,0.00,VWS V13.00,2013-02-10 23:51:00,
2013-02-10 18:52:00,71.9,63.5,30.09,South,180,2.0,3.0,75,0.00,,---,0.00,VWS V13.00,2013-02-10 23:52:00,
2013-02-10 18:53:00,71.9,63.5,30.09,South,180,0.0,3.0,75,0.00,,---,0.00,VWS V13.00,2013-02-10 23:53:00,
2013-02-10 18:54:00,71.7,63.7,30.09,South,180,1.0,3.0,76,0.00,,---,0.00,VWS V13.00,2013-02-10 23:54:00,
2013-02-10 18:55:00,71.7,63.7,30.09,South,180,2.0,3.0,76,0.00,,---,0.00,VWS V13.00,2013-02-10 23:55:00,
2013-02-10 18:56:00,71.7,63.7,30.09,South,180,0.0,2.0,76,0.00,,---,0.00,VWS V13.00,2013-02-10 23:56:00,
2013-02-10 18:57:00,71.7,63.7,30.09,South,180,1.0,2.0,76,0.00,,---,0.00,VWS V13.00,2013-02-10 23:57:00,
2013-02-10 18:58:00,71.7,63.7,30.09,South,180,1.0,2.0,76,0.00,,---,0.00,VWS V13.00,2013-02-10 23:58:00,
2013-02-10 18:59:00,71.7,63.7,30.09,South,180,1.0,3.0,76,0.00,,---,0.00,VWS V13.00,2013-02-10 23:59:00,
2013-02-10 19:00:00,71.5,63.5,30.09,South,179,0.0,3.0,76,0.00,,---,0.00,VWS V13.00,2013-02-11 00:00:00,
2013-02-10 19:01:00,71.5,63.5,30.09,South,179,0.0,1.0,76,0.00,,---,0.00,VWS V13.00,2013-02-11 00:01:00,
2013-02-10 19:02:00,71.5,63.5,30.09,South,179,0.0,1.0,76,0.00,,---,0.00,VWS V13.00,2013-02-11 00:02:00,
2013-02-10 19:03:00,71.5,63.5,30.09,South,178,2.0,4.0,76,0.00,,---,0.00,VWS V13.00,2013-02-11 00:03:00,
2013-02-10 19:04:00,71.5,63.5,30.09,South,178,1.0,4.0,76,0.00,,---,0.00,VWS V13.00,2013-02-11 00:04:00,
2013-02-10 19:05:00,71.5,63.9,30.09,SSE,153,2.0,6.0,77,0.00,,---,0.00,VWS V13.00,2013-02-11 00:05:00,
2013-02-10 19:06:00,71.4,63.8,30.09,SSE,153,0.0,3.0,77,0.00,,---,0.00,VWS V13.00,2013-02-11 00:06:00,
2013-02-10 19:07:00,71.4,63.8,30.09,SSE,153,1.0,3.0,77,0.00,,---,0.00,VWS V13.00,2013-02-11 00:07:00,
2013-02-10 19:08:00,71.4,63.8,30.09,SSE,153,1.0,3.0,77,0.00,,---,0.00,VWS V13.00,2013-02-11 00:08:00,
2013-02-10 19:09:00,71.4,63.8,30.09,SSE,153,0.0,3.0,77,0.00,,---,0.00,VWS V13.00,2013-02-11 00:09:00,
2013-02-10 19:10:00,71.4,63.8,30.09,SSE,153,2.0,3.0,77,0.00,,---,0.00,VWS V13.00,2013-02-11 00:10:00,
2013-02-10 19:11:00,71.4,63.8,30.09,SSE,153,0.0,2.0,77,0.00,,---,0.00,VWS V13.00,2013-02-11 00:11:00,
2013-02-10 19:12:00,71.4,63.8,30.09,SSE,153,0.0,2.0,77,0.00,,---,0.00,VWS V13.00,2013-02-11 00:12:00,
2013-02-10 19:13:00,71.2,63.6,30.09,SSE,153,0.0,2.0,77,0.00,,---,0.00,VWS V13.00,2013-02-11 00:13:00,
2013-02-10 19:14:00,71.2,63.6,30.09,SSE,153,1.0,2.0,77,0.00,,---,0.00,VWS V13.00,2013-02-11 00:14:00,
2013-02-10 19:15:00,71.2,63.6,30.10,SSE,153,0.0,2.0,77,0.00,,---,0.00,VWS V13.00,2013-02-11 00:15:00,
2013-02-10 19:16:00,71.2,63.6,30.10,SSE,153,1.0,3.0,77,0.00,,---,0.00,VWS V13.00,2013-02-11 00:16:00,
2013-02-10 19:17:00,71.2,63.6,30.10,SSE,155,3.0,4.0,77,0.00,,---,0.00,VWS V13.00,2013-02-11 00:17:00,
2013-02-10 19:18:00,71.2,63.6,30.10,SSE,148,0.0,5.0,77,0.00,,---,0.00,VWS V13.00,2013-02-11 00:18:00,
2013-02-10 19:19:00,71.2,63.6,30.10,SSE,148,0.0,5.0,77,0.00,,---,0.00,VWS V13.00,2013-02-11 00:19:00,
2013-02-10 19:20:00,71.0,63.4,30.10,SSE,148,0.0,5.0,77,0.00,,---,0.00,VWS V13.00,2013-02-11 00:20:00,
2013-02-10 19:21:00,71.0,63.4,30.10,SSE,148,0.0,1.0,77,0.00,,---,0.00,VWS V13.00,2013-02-11 00:21:00,
2013-02-10 19:22:00,71.0,63.4,30.10,SSE,148,1.0,1.0,77,0.00,,---,0.00,VWS V13.00,2013-02-11 00:22:00,
2013-02-10 19:23:00,71.0,63.4,30.10,SSE,148,0.0,2.0,77,0.00,,---,0.00,VWS V13.00,2013-02-11 00:23:00,
2013-02-10 19:24:00,71.0,63.4,30.10,SSE,148,0.0,3.0,77,0.00,,---,0.00,VWS V13.00,2013-02-11 00:24:00,
2013-02-10 19:25:00,71.0,63.4,30.10,SSE,148,0.0,3.0,77,0.00,,---,0.00,VWS V13.00,2013-02-11 00:25:00,
2013-02-10 19:26:00,71.0,63.4,30.10,SSE,148,1.0,1.0,77,0.00,,---,0.00,VWS V13.00,2013-02-11 00:26:00,
2013-02-10 19:27:00,71.0,63.4,30.10,SSE,148,0.0,2.0,77,0.00,,---,0.00,VWS V13.00,2013-02-11 00:27:00,
2013-02-10 19:28:00,71.0,63.4,30.10,SSE,148,0.0,2.0,77,0.00,,---,0.00,VWS V13.00,2013-02-11 00:28:00,
2013-02-10 19:29:00,71.0,63.8,30.10,SSE,148,1.0,2.0,78,0.00,,---,0.00,VWS V13.00,2013-02-11 00:29:00,
2013-02-10 19:30:00,71.0,63.8,30.10,SSE,148,0.0,2.0,78,0.00,,---,0.00,VWS V13.00,2013-02-11 00:30:00,
2013-02-10 19:31:00,70.9,63.7,30.10,SSE,148,1.0,4.0,78,0.00,,---,0.00,VWS V13.00,2013-02-11 00:31:00,
2013-02-10 19:32:00,70.9,63.7,30.10,SSE,148,0.0,4.0,78,0.00,,---,0.00,VWS V13.00,2013-02-11 00:32:00,
2013-02-10 19:33:00,70.9,63.7,30.10,SSE,148,0.0,4.0,78,0.00,,---,0.00,VWS V13.00,2013-02-11 00:33:00,
2013-02-10 19:34:00,70.9,63.7,30.10,SSE,148,0.0,4.0,78,0.00,,---,0.00,VWS V13.00,2013-02-11 00:34:00,
2013-02-10 19:35:00,70.9,63.7,30.10,SSE,148,0.0,4.0,78,0.00,,---,0.00,VWS V13.00,2013-02-11 00:35:00,
2013-02-10 19:36:00,70.9,63.7,30.10,SSE,148,0.0,0.0,78,0.00,,---,0.00,VWS V13.00,2013-02-11 00:36:00,
2013-02-10 19:37:00,70.9,63.7,30.10,SSE,148,1.0,3.0,78,0.00,,---,0.00,VWS V13.00,2013-02-11 00:37:00,
2013-02-10 19:38:00,70.9,63.7,30.10,SSE,148,0.0,3.0,78,0.00,,---,0.00,VWS V13.00,2013-02-11 00:38:00,
2013-02-10 19:39:00,70.9,63.7,30.10,SSE,148,0.0,3.0,78,0.00,,---,0.00,VWS V13.00,2013-02-11 00:39:00,
2013-02-10 19:40:00,70.9,63.7,30.10,SSE,148,1.0,3.0,78,0.00,,---,0.00,VWS V13.00,2013-02-11 00:40:00,
2013-02-10 19:41:00,70.9,63.7,30.10,SSE,148,0.0,1.0,78,0.00,,---,0.00,VWS V13.00,2013-02-11 00:41:00,
2013-02-10 19:42:00,70.9,63.7,30.10,SSE,148,0.0,1.0,78,0.00,,---,0.00,VWS V13.00,2013-02-11 00:42:00,
2013-02-10 19:43:00,70.7,63.5,30.10,SSE,148,1.0,3.0,78,0.00,,---,0.00,VWS V13.00,2013-02-11 00:43:00,
2013-02-10 19:44:00,70.7,63.5,30.10,SSE,148,3.0,3.0,78,0.00,,---,0.00,VWS V13.00,2013-02-11 00:44:00,
2013-02-10 19:45:00,70.7,63.5,30.11,SSE,148,2.0,3.0,78,0.00,,---,0.00,VWS V13.00,2013-02-11 00:45:00,
2013-02-10 19:46:00,70.7,63.5,30.11,SSE,148,0.0,2.0,78,0.00,,---,0.00,VWS V13.00,2013-02-11 00:46:00,
2013-02-10 19:47:00,70.7,63.5,30.11,SSE,148,0.0,2.0,78,0.00,,---,0.00,VWS V13.00,2013-02-11 00:47:00,
2013-02-10 19:48:00,70.7,63.5,30.11,SSE,148,0.0,3.0,78,0.00,,---,0.00,VWS V13.00,2013-02-11 00:48:00,
2013-02-10 19:49:00,70.7,63.5,30.11,SSE,148,0.0,3.0,78,0.00,,---,0.00,VWS V13.00,2013-02-11 00:49:00,
2013-02-10 19:50:00,70.7,63.5,30.11,SSE,148,0.0,3.0,78,0.00,,---,0.00,VWS V13.00,2013-02-11 00:50:00,
2013-02-10 19:51:00,70.7,63.5,30.11,SSE,148,0.0,2.0,78,0.00,,---,0.00,VWS V13.00,2013-02-11 00:51:00,
2013-02-10 19:52:00,70.7,63.5,30.11,SSE,148,1.0,2.0,78,0.00,,---,0.00,VWS V13.00,2013-02-11 00:52:00,
2013-02-10 19:53:00,70.7,63.5,30.11,SSE,148,1.0,2.0,78,0.00,,---,0.00,VWS V13.00,2013-02-11 00:53:00,
2013-02-10 19:54:00,70.5,63.3,30.11,SSE,148,1.0,2.0,78,0.00,,---,0.00,VWS V13.00,2013-02-11 00:54:00,
2013-02-10 19:55:00,70.5,63.3,30.11,SSE,148,0.0,2.0,78,0.00,,---,0.00,VWS V13.00,2013-02-11 00:55:00,
2013-02-10 19:56:00,70.5,63.3,30.11,SSE,148,0.0,0.0,78,0.00,,---,0.00,VWS V13.00,2013-02-11 00:56:00,
2013-02-10 19:57:00,70.5,63.3,30.11,SSE,148,2.0,3.0,78,0.00,,---,0.00,VWS V13.00,2013-02-11 00:57:00,
2013-02-10 19:58:00,70.5,63.7,30.11,SSE,148,0.0,3.0,79,0.00,,---,0.00,VWS V13.00,2013-02-11 00:58:00,
2013-02-10 19:59:00,70.5,63.7,30.11,SSE,148,1.0,3.0,79,0.00,,---,0.00,VWS V13.00,2013-02-11 00:59:00,
2013-02-10 20:00:00,70.5,63.7,30.11,SSE,148,0.0,3.0,79,0.00,,---,0.00,VWS V13.00,2013-02-11 01:00:00,
2013-02-10 20:01:00,70.4,63.6,30.11,SSE,148,2.0,4.0,79,0.00,,---,0.00,VWS V13.00,2013-02-11 01:01:00,
2013-02-10 20:02:00,70.4,63.6,30.11,SSE,148,0.0,4.0,79,0.00,,---,0.00,VWS V13.00,2013-02-11 01:02:00,
2013-02-10 20:03:00,70.4,63.6,30.11,SSE,148,0.0,4.0,79,0.00,,---,0.00,VWS V13.00,2013-02-11 01:03:00,
2013-02-10 20:04:00,70.4,63.6,30.11,SSE,148,0.0,4.0,79,0.00,,---,0.00,VWS V13.00,2013-02-11 01:04:00,
2013-02-10 20:05:00,70.4,63.6,30.11,SSE,148,0.0,4.0,79,0.00,,---,0.00,VWS V13.00,2013-02-11 01:05:00,
2013-02-10 20:06:00,70.4,63.6,30.11,SSE,148,1.0,3.0,79,0.00,,---,0.00,VWS V13.00,2013-02-11 01:06:00,
2013-02-10 20:07:00,70.4,63.6,30.11,SSE,148,0.0,3.0,79,0.00,,---,0.00,VWS V13.00,2013-02-11 01:07:00,
2013-02-10 20:08:00,70.4,63.6,30.11,SSE,148,1.0,3.0,79,0.00,,---,0.00,VWS V13.00,2013-02-11 01:08:00,
2013-02-10 20:09:00,70.4,63.6,30.11,SSE,148,4.0,4.0,79,0.00,,---,0.00,VWS V13.00,2013-02-11 01:09:00,
2013-02-10 20:10:00,70.2,63.4,30.11,SSE,148,0.0,4.0,79,0.00,,---,0.00,VWS V13.00,2013-02-11 01:10:00,
2013-02-10 20:11:00,70.2,63.4,30.11,SSE,148,2.0,3.0,79,0.00,,---,0.00,VWS V13.00,2013-02-11 01:11:00,
2013-02-10 20:12:00,70.2,63.4,30.11,SSE,148,1.0,3.0,79,0.00,,---,0.00,VWS V13.00,2013-02-11 01:12:00,
2013-02-10 20:13:00,70.2,63.4,30.11,SSE,148,1.0,3.0,79,0.00,,---,0.00,VWS V13.00,2013-02-11 01:13:00,
2013-02-10 20:14:00,70.2,63.4,30.12,SSE,148,0.0,3.0,79,0.00,,---,0.00,VWS V13.00,2013-02-11 01:14:00,
2013-02-10 20:15:00,70.2,63.4,30.12,SSE,148,1.0,3.0,79,0.00,,---,0.00,VWS V13.00,2013-02-11 01:15:00,
2013-02-10 20:16:00,70.2,63.4,30.12,SSE,148,4.0,4.0,79,0.00,,---,0.00,VWS V13.00,2013-02-11 01:16:00,
2013-02-10 20:17:00,70.2,63.4,30.12,SSE,148,3.0,4.0,79,0.00,,---,0.00,VWS V13.00,2013-02-11 01:17:00,
2013-02-10 20:18:00,70.2,63.4,30.12,SSE,148,3.0,4.0,79,0.00,,---,0.00,VWS V13.00,2013-02-11 01:18:00,
2013-02-10 20:19:00,70.2,63.4,30.12,SSE,148,1.0,4.0,79,0.00,,---,0.00,VWS V13.00,2013-02-11 01:19:00,
2013-02-10 20:20:00,70.2,63.4,30.12,SSE,148,2.0,4.0,79,0.00,,---,0.00,VWS V13.00,2013-02-11 01:20:00,
2013-02-10 20:21:00,70.2,63.4,30.12,SSE,148,3.0,4.0,79,0.00,,---,0.00,VWS V13.00,2013-02-11 01:21:00,
2013-02-10 20:22:00,70.2,63.4,30.12,SSE,148,3.0,5.0,79,0.00,,---,0.00,VWS V13.00,2013-02-11 01:22:00,
2013-02-10 20:23:00,70.2,63.4,30.12,SSE,148,2.0,5.0,79,0.00,,---,0.00,VWS V13.00,2013-02-11 01:23:00,
2013-02-10 20:24:00,70.2,63.4,30.12,SSE,148,0.0,5.0,79,0.00,,---,0.00,VWS V13.00,2013-02-11 01:24:00,
2013-02-10 20:25:00,70.2,63.4,30.12,SSE,148,3.0,5.0,79,0.00,,---,0.00,VWS V13.00,2013-02-11 01:25:00,
2013-02-10 20:26:00,70.2,63.8,30.12,SSE,148,2.0,4.0,80,0.00,,---,0.00,VWS V13.00,2013-02-11 01:26:00,
2013-02-10 20:27:00,70.2,63.8,30.12,SSE,148,0.0,4.0,80,0.00,,---,0.00,VWS V13.00,2013-02-11 01:27:00,
2013-02-10 20:28:00,70.0,63.5,30.12,SSE,148,5.0,5.0,80,0.00,,---,0.00,VWS V13.00,2013-02-11 01:28:00,
2013-02-10 20:29:00,70.0,63.5,30.12,SSE,148,0.0,5.0,80,0.00,,---,0.00,VWS V13.00,2013-02-11 01:29:00,
2013-02-10 20:30:00,70.0,63.5,30.12,SSE,148,4.0,5.0,80,0.00,,---,0.00,VWS V13.00,2013-02-11 01:30:00,
2013-02-10 20:31:00,70.0,63.5,30.12,SSE,148,1.0,4.0,80,0.00,,---,0.00,VWS V13.00,2013-02-11 01:31:00,
2013-02-10 20:32:00,70.0,63.5,30.12,SSE,148,1.0,4.0,80,0.00,,---,0.00,VWS V13.00,2013-02-11 01:32:00,
2013-02-10 20:33:00,70.0,63.5,30.12,SSE,148,5.0,5.0,80,0.00,,---,0.00,VWS V13.00,2013-02-11 01:33:00,
2013-02-10 20:34:00,70.0,63.2,30.12,SSE,147,3.0,6.0,79,0.00,,---,0.00,VWS V13.00,2013-02-11 01:34:00,
2013-02-10 20:35:00,70.0,63.2,30.12,SSE,163,2.0,6.0,79,0.00,,---,0.00,VWS V13.00,2013-02-11 01:35:00,
2013-02-10 20:36:00,70.0,63.2,30.12,SE,140,2.0,9.0,79,0.00,,---,0.00,VWS V13.00,2013-02-11 01:36:00,
2013-02-10 20:37:00,70.0,63.2,30.12,SE,138,1.0,9.0,79,0.00,,---,0.00,VWS V13.00,2013-02-11 01:37:00,
2013-02-10 20:38:00,70.0,63.2,30.12,SE,138,3.0,9.0,79,0.00,,---,0.00,VWS V13.00,2013-02-11 01:38:00,
2013-02-10 20:39:00,70.0,62.8,30.12,SE,140,3.0,9.0,78,0.00,,---,0.00,VWS V13.00,2013-02-11 01:39:00,
2013-02-10 20:40:00,70.0,62.8,30.12,SSE,149,3.0,9.0,78,0.00,,---,0.00,VWS V13.00,2013-02-11 01:40:00,
2013-02-10 20:41:00,70.0,62.5,30.12,SSE,149,3.0,5.0,77,0.00,,---,0.00,VWS V13.00,2013-02-11 01:41:00,
2013-02-10 20:42:00,70.0,62.5,30.12,SE,137,5.0,5.0,77,0.00,,---,0.00,VWS V13.00,2013-02-11 01:42:00,
2013-02-10 20:43:00,70.0,62.5,30.12,SE,137,3.0,5.0,77,0.00,,---,0.00,VWS V13.00,2013-02-11 01:43:00,
2013-02-10 20:44:00,70.0,62.5,30.12,ESE,122,2.0,5.0,77,0.00,,---,0.00,VWS V13.00,2013-02-11 01:44:00,
2013-02-10 20:45:00,70.0,62.5,30.12,SE,136,5.0,5.0,77,0.00,,---,0.00,VWS V13.00,2013-02-11 01:45:00,
2013-02-10 20:46:00,70.0,62.5,30.12,ESE,123,4.0,5.0,77,0.00,,---,0.00,VWS V13.00,2013-02-11 01:46:00,
2013-02-10 20:47:00,70.0,62.1,30.12,SE,135,4.0,6.0,76,0.00,,---,0.00,VWS V13.00,2013-02-11 01:47:00,
2013-02-10 20:48:00,70.0,62.1,30.12,SE,135,2.0,6.0,76,0.00,,---,0.00,VWS V13.00,2013-02-11 01:48:00,
2013-02-10 20:49:00,70.0,62.1,30.12,SE,140,5.0,7.0,76,0.00,,---,0.00,VWS V13.00,2013-02-11 01:49:00,
2013-02-10 20:50:00,70.0,61.7,30.12,SE,126,6.0,10.0,75,0.00,,---,0.00,VWS V13.00,2013-02-11 01:50:00,
2013-02-10 20:51:00,70.0,61.7,30.12,SE,127,4.0,6.0,75,0.00,,---,0.00,VWS V13.00,2013-02-11 01:51:00,
2013-02-10 20:52:00,70.2,61.5,30.12,SE,146,6.0,10.0,74,0.00,,---,0.00,VWS V13.00,2013-02-11 01:52:00,
2013-02-10 20:53:00,70.2,61.5,30.12,SSE,157,9.0,10.0,74,0.00,,---,0.00,VWS V13.00,2013-02-11 01:53:00,
2013-02-10 20:54:00,70.2,61.5,30.12,SE,130,4.0,10.0,74,0.00,,---,0.00,VWS V13.00,2013-02-11 01:54:00,
2013-02-10 20:55:00,70.4,61.7,30.12,ESE,119,5.0,10.0,74,0.00,,---,0.00,VWS V13.00,2013-02-11 01:55:00,
2013-02-10 20:56:00,70.4,61.3,30.12,SSE,156,10.0,10.0,73,0.00,,---,0.00,VWS V13.00,2013-02-11 01:56:00,
2013-02-10 20:57:00,70.4,61.3,30.12,SSE,150,8.0,14.0,73,0.00,,---,0.00,VWS V13.00,2013-02-11 01:57:00,
2013-02-10 20:58:00,70.5,61.4,30.12,SE,130,10.0,14.0,73,0.00,,---,0.00,VWS V13.00,2013-02-11 01:58:00,
2013-02-10 20:59:00,70.5,61.0,30.12,SE,139,8.0,14.0,72,0.00,,---,0.00,VWS V13.00,2013-02-11 01:59:00,
2013-02-10 21:00:00,70.5,61.0,30.12,SE,143,4.0,14.0,72,0.00,,---,0.00,VWS V13.00,2013-02-11 02:00:00,
2013-02-10 21:01:00,70.7,61.2,30.12,SSE,148,11.0,11.0,72,0.00,,---,0.00,VWS V13.00,2013-02-11 02:01:00,
2013-02-10 21:02:00,70.7,61.2,30.12,SE,131,3.0,12.0,72,0.00,,---,0.00,VWS V13.00,2013-02-11 02:02:00,
2013-02-10 21:03:00,70.7,61.2,30.12,SE,126,4.0,12.0,72,0.00,,---,0.00,VWS V13.00,2013-02-11 02:03:00,
2013-02-10 21:04:00,70.7,61.2,30.12,SSE,156,10.0,12.0,72,0.00,,---,0.00,VWS V13.00,2013-02-11 02:04:00,
2013-02-10 21:05:00,70.9,61.4,30.12,SSE,156,7.0,12.0,72,0.00,,---,0.00,VWS V13.00,2013-02-11 02:05:00,
2013-02-10 21:06:00,70.9,61.4,30.12,SE,127,5.0,14.0,72,0.00,,---,0.00,VWS V13.00,2013-02-11 02:06:00,
2013-02-10 21:07:00,70.9,61.4,30.12,ESE,123,4.0,14.0,72,0.00,,---,0.00,VWS V13.00,2013-02-11 02:07:00,
2013-02-10 21:08:00,70.9,61.4,30.12,SSE,149,7.0,15.0,72,0.00,,---,0.00,VWS V13.00,2013-02-11 02:08:00,
2013-02-10 21:09:00,70.9,61.4,30.12,SE,138,5.0,15.0,72,0.00,,---,0.00,VWS V13.00,2013-02-11 02:09:00,
2013-02-10 21:10:00,70.9,61.4,30.12,SSE,151,6.0,15.0,72,0.00,,---,0.00,VWS V13.00,2013-02-11 02:10:00,
2013-02-10 21:11:00,70.9,61.4,30.12,SE,133,5.0,9.0,72,0.00,,---,0.00,VWS V13.00,2013-02-11 02:11:00,
2013-02-10 21:12:00,70.9,61.4,30.12,SE,136,9.0,10.0,72,0.00,,---,0.00,VWS V13.00,2013-02-11 02:12:00,
2013-02-10 21:13:00,70.9,61.4,30.12,SE,138,5.0,13.0,72,0.00,,---,0.00,VWS V13.00,2013-02-11 02:13:00,
2013-02-10 21:14:00,70.9,61.4,30.12,SE,126,6.0,13.0,72,0.00,,---,0.00,VWS V13.00,2013-02-11 02:14:00,
2013-02-10 21:15:00,70.9,61.0,30.12,SE,133,5.0,13.0,71,0.00,,---,0.00,VWS V13.00,2013-02-11 02:15:00,
2013-02-10 21:16:00,70.9,61.0,30.12,SE,133,6.0,10.0,71,0.00,,---,0.00,VWS V13.00,2013-02-11 02:16:00,
2013-02-10 21:17:00,70.9,61.0,30.12,SE,130,9.0,13.0,71,0.00,,---,0.00,VWS V13.00,2013-02-11 02:17:00,
2013-02-10 21:18:00,70.9,61.0,30.12,SE,131,5.0,13.0,71,0.00,,---,0.00,VWS V13.00,2013-02-11 02:18:00,
2013-02-10 21:19:00,70.9,61.4,30.12,SE,132,6.0,13.0,72,0.00,,---,0.00,VWS V13.00,2013-02-11 02:19:00,
2013-02-10 21:20:00,70.9,61.0,30.12,SE,146,9.0,13.0,71,0.00,,---,0.00,VWS V13.00,2013-02-11 02:20:00,
2013-02-10 21:21:00,70.9,61.0,30.12,SE,125,5.0,12.0,71,0.00,,---,0.00,VWS V13.00,2013-02-11 02:21:00,
2013-02-10 21:22:00,70.9,61.0,30.12,SE,126,6.0,12.0,71,0.00,,---,0.00,VWS V13.00,2013-02-11 02:22:00,
2013-02-10 21:23:00,70.9,61.0,30.12,SE,142,5.0,12.0,71,0.00,,---,0.00,VWS V13.00,2013-02-11 02:23:00,
2013-02-10 21:24:00,70.9,61.4,30.12,SE,140,1.0,12.0,72,0.00,,---,0.00,VWS V13.00,2013-02-11 02:24:00,
2013-02-10 21:25:00,70.9,61.4,30.12,SE,144,5.0,12.0,72,0.00,,---,0.00,VWS V13.00,2013-02-11 02:25:00,
2013-02-10 21:26:00,70.9,61.4,30.12,SSE,153,6.0,10.0,72,0.00,,---,0.00,VWS V13.00,2013-02-11 02:26:00,
2013-02-10 21:27:00,70.9,61.4,30.12,SE,131,3.0,10.0,72,0.00,,---,0.00,VWS V13.00,2013-02-11 02:27:00,
2013-02-10 21:28:00,70.7,61.2,30.12,SE,138,8.0,10.0,72,0.00,,---,0.00,VWS V13.00,2013-02-11 02:28:00,
2013-02-10 21:29:00,70.7,61.2,30.12,SSE,152,5.0,10.0,72,0.00,,---,0.00,VWS V13.00,2013-02-11 02:29:00,
2013-02-10 21:30:00,70.7,61.2,30.12,SE,138,3.0,10.0,72,0.00,,---,0.00,VWS V13.00,2013-02-11 02:30:00,
2013-02-10 21:31:00,70.7,61.2,30.12,SE,139,3.0,4.0,72,0.00,,---,0.00,VWS V13.00,2013-02-11 02:31:00,
2013-02-10 21:32:00,70.7,61.2,30.12,SE,137,4.0,9.0,72,0.00,,---,0.00,VWS V13.00,2013-02-11 02:32:00,
2013-02-10 21:33:00,70.7,61.2,30.12,SE,142,4.0,9.0,72,0.00,,---,0.00,VWS V13.00,2013-02-11 02:33:00,
2013-02-10 21:34:00,70.5,61.0,30.12,SE,126,3.0,9.0,72,0.00,,---,0.00,VWS V13.00,2013-02-11 02:34:00,
2013-02-10 21:35:00,70.5,61.0,30.12,SSE,155,7.0,11.0,72,0.00,,---,0.00,VWS V13.00,2013-02-11 02:35:00,
2013-02-10 21:36:00,70.5,61.0,30.12,SE,138,3.0,9.0,72,0.00,,---,0.00,VWS V13.00,2013-02-11 02:36:00,
2013-02-10 21:37:00,70.5,61.0,30.12,SE,130,3.0,9.0,72,0.00,,---,0.00,VWS V13.00,2013-02-11 02:37:00,
2013-02-10 21:38:00,70.4,61.0,30.12,ESE,121,5.0,9.0,72,0.00,,---,0.00,VWS V13.00,2013-02-11 02:38:00,
2013-02-10 21:39:00,70.4,61.0,30.12,SSE,155,5.0,10.0,72,0.00,,---,0.00,VWS V13.00,2013-02-11 02:39:00,
2013-02-10 21:40:00,70.4,61.0,30.12,SSE,150,4.0,10.0,72,0.00,,---,0.00,VWS V13.00,2013-02-11 02:40:00,
2013-02-10 21:41:00,70.4,61.0,30.12,SSE,153,3.0,5.0,72,0.00,,---,0.00,VWS V13.00,2013-02-11 02:41:00,
2013-02-10 21:42:00,70.4,61.3,30.12,SE,136,5.0,7.0,73,0.00,,---,0.00,VWS V13.00,2013-02-11 02:42:00,
2013-02-10 21:43:00,70.4,61.0,30.12,ESE,111,3.0,7.0,72,0.00,,---,0.00,VWS V13.00,2013-02-11 02:43:00,
2013-02-10 21:44:00,70.4,61.3,30.12,SE,124,6.0,7.0,73,0.00,,---,0.00,VWS V13.00,2013-02-11 02:44:00,
2013-02-10 21:45:00,70.2,61.2,30.12,SE,132,5.0,7.0,73,0.00,,---,0.00,VWS V13.00,2013-02-11 02:45:00,
2013-02-10 21:46:00,70.2,61.2,30.12,ESE,114,3.0,11.0,73,0.00,,---,0.00,VWS V13.00,2013-02-11 02:46:00,
2013-02-10 21:47:00,70.2,61.2,30.12,SE,139,5.0,11.0,73,0.00,,---,0.00,VWS V13.00,2013-02-11 02:47:00,
2013-02-10 21:48:00,70.2,61.2,30.12,SE,140,4.0,11.0,73,0.00,,---,0.00,VWS V13.00,2013-02-11 02:48:00,
2013-02-10 21:49:00,70.2,61.2,30.12,ESE,123,4.0,11.0,73,0.00,,---,0.00,VWS V13.00,2013-02-11 02:49:00,
2013-02-10 21:50:00,70.2,61.2,30.12,ESE,117,4.0,11.0,73,0.00,,---,0.00,VWS V13.00,2013-02-11 02:50:00,
2013-02-10 21:51:00,70.2,61.2,30.12,ESE,121,7.0,7.0,73,0.00,,---,0.00,VWS V13.00,2013-02-11 02:51:00,
2013-02-10 21:52:00,70.2,61.2,30.12,SE,134,6.0,9.0,73,0.00,,---,0.00,VWS V13.00,2013-02-11 02:52:00,
2013-02-10 21:53:00,70.2,61.2,30.12,SE,136,3.0,9.0,73,0.00,,---,0.00,VWS V13.00,2013-02-11 02:53:00,
2013-02-10 21:54:00,70.0,61.0,30.12,SE,144,2.0,9.0,73,0.00,,---,0.00,VWS V13.00,2013-02-11 02:54:00,
2013-02-10 21:55:00,70.0,61.0,30.12,SE,143,3.0,9.0,73,0.00,,---,0.00,VWS V13.00,2013-02-11 02:55:00,
2013-02-10 21:56:00,70.0,61.0,30.12,SE,142,2.0,5.0,73,0.00,,---,0.00,VWS V13.00,2013-02-11 02:56:00,
2013-02-10 21:57:00,70.0,61.0,30.12,SE,136,4.0,5.0,73,0.00,,---,0.00,VWS V13.00,2013-02-11 02:57:00,
2013-02-10 21:58:00,70.0,61.0,30.12,ESE,106,4.0,5.0,73,0.00,,---,0.00,VWS V13.00,2013-02-11 02:58:00,
2013-02-10 21:59:00,70.0,61.0,30.12,SE,143,6.0,10.0,73,0.00,,---,0.00,VWS V13.00,2013-02-11 02:59:00,
2013-02-10 22:00:00,70.0,61.0,30.12,SE,136,4.0,10.0,73,0.00,,---,0.00,VWS V13.00,2013-02-11 03:00:00,
2013-02-10 22:01:00,69.9,60.9,30.12,SE,140,2.0,7.0,73,0.00,,---,0.00,VWS V13.00,2013-02-11 03:01:00,
2013-02-10 22:02:00,69.9,60.9,30.12,SE,140,2.0,7.0,73,0.00,,---,0.00,VWS V13.00,2013-02-11 03:02:00,
2013-02-10 22:03:00,69.9,60.9,30.12,SSE,153,5.0,7.0,73,0.00,,---,0.00,VWS V13.00,2013-02-11 03:03:00,
2013-02-10 22:04:00,69.9,61.2,30.12,SE,125,2.0,7.0,74,0.00,,---,0.00,VWS V13.00,2013-02-11 03:04:00,
2013-02-10 22:05:00,69.9,61.2,30.12,SE,129,3.0,7.0,74,0.00,,---,0.00,VWS V13.00,2013-02-11 03:05:00,
2013-02-10 22:06:00,69.9,61.2,30.12,SE,144,3.0,9.0,74,0.00,,---,0.00,VWS V13.00,2013-02-11 03:06:00,
2013-02-10 22:07:00,69.9,61.2,30.12,SE,126,6.0,11.0,74,0.00,,---,0.00,VWS V13.00,2013-02-11 03:07:00,
2013-02-10 22:08:00,69.7,61.0,30.12,SE,146,7.0,11.0,74,0.00,,---,0.00,VWS V13.00,2013-02-11 03:08:00,
2013-02-10 22:09:00,69.7,61.0,30.12,SE,133,7.0,11.0,74,0.00,,---,0.00,VWS V13.00,2013-02-11 03:09:00,
2013-02-10 22:10:00,69.7,61.0,30.12,ESE,117,5.0,11.0,74,0.00,,---,0.00,VWS V13.00,2013-02-11 03:10:00,
2013-02-10 22:11:00,69.7,61.0,30.12,ESE,122,4.0,5.0,74,0.00,,---,0.00,VWS V13.00,2013-02-11 03:11:00,
2013-02-10 22:12:00,69.7,61.0,30.12,SE,131,4.0,7.0,74,0.00,,---,0.00,VWS V13.00,2013-02-11 03:12:00,
2013-02-10 22:13:00,69.7,61.0,30.12,ESE,111,4.0,7.0,74,0.00,,---,0.00,VWS V13.00,2013-02-11 03:13:00,
2013-02-10 22:14:00,69.7,61.0,30.11,ESE,111,3.0,7.0,74,0.00,,---,0.00,VWS V13.00,2013-02-11 03:14:00,
2013-02-10 22:15:00,69.7,61.0,30.11,ESE,111,1.0,7.0,74,0.00,,---,0.00,VWS V13.00,2013-02-11 03:15:00,
2013-02-10 22:16:00,69.7,61.0,30.11,SE,140,7.0,7.0,74,0.00,,---,0.00,VWS V13.00,2013-02-11 03:16:00,
2013-02-10 22:17:00,69.7,61.0,30.11,ESE,105,5.0,7.0,74,0.00,,---,0.00,VWS V13.00,2013-02-11 03:17:00,
2013-02-10 22:18:00,69.7,61.0,30.11,SE,136,6.0,12.0,74,0.00,,---,0.00,VWS V13.00,2013-02-11 03:18:00,
2013-02-10 22:19:00,69.7,61.0,30.11,SE,138,4.0,12.0,74,0.00,,---,0.00,VWS V13.00,2013-02-11 03:19:00,
2013-02-10 22:20:00,69.7,61.0,30.11,ESE,105,4.0,12.0,74,0.00,,---,0.00,VWS V13.00,2013-02-11 03:20:00,
2013-02-10 22:21:00,69.7,61.0,30.11,East,93,2.0,8.0,74,0.00,,---,0.00,VWS V13.00,2013-02-11 03:21:00,
2013-02-10 22:22:00,69.7,61.0,30.11,SE,128,3.0,8.0,74,0.00,,---,0.00,VWS V13.00,2013-02-11 03:22:00,
2013-02-10 22:23:00,69.7,61.0,30.11,ESE,120,3.0,8.0,74,0.00,,---,0.00,VWS V13.00,2013-02-11 03:23:00,
2013-02-10 22:24:00,69.7,61.0,30.11,SE,130,9.0,11.0,74,0.00,,---,0.00,VWS V13.00,2013-02-11 03:24:00,
2013-02-10 22:25:00,69.7,61.0,30.11,SE,138,4.0,11.0,74,0.00,,---,0.00,VWS V13.00,2013-02-11 03:25:00,
2013-02-10 22:26:00,69.7,61.0,30.11,SE,136,4.0,4.0,74,0.00,,---,0.00,VWS V13.00,2013-02-11 03:26:00,
2013-02-10 22:27:00,69.7,61.0,30.11,SE,138,3.0,9.0,74,0.00,,---,0.00,VWS V13.00,2013-02-11 03:27:00,
2013-02-10 22:28:00,69.7,61.0,30.11,SE,145,9.0,10.0,74,0.00,,---,0.00,VWS V13.00,2013-02-11 03:28:00,
2013-02-10 22:29:00,69.7,61.0,30.11,SSE,159,2.0,10.0,74,0.00,,---,0.00,VWS V13.00,2013-02-11 03:29:00,
2013-02-10 22:30:00,69.7,61.0,30.11,SSE,148,3.0,10.0,74,0.00,,---,0.00,VWS V13.00,2013-02-11 03:30:00,
2013-02-10 22:31:00,69.7,61.0,30.11,SE,142,5.0,9.0,74,0.00,,---,0.00,VWS V13.00,2013-02-11 03:31:00,
2013-02-10 22:32:00,69.7,61.0,30.11,SE,143,10.0,10.0,74,0.00,,---,0.00,VWS V13.00,2013-02-11 03:32:00,
2013-02-10 22:33:00,69.7,61.0,30.11,ESE,115,6.0,11.0,74,0.00,,---,0.00,VWS V13.00,2013-02-11 03:33:00,
2013-02-10 22:34:00,69.7,61.0,30.11,SSE,148,4.0,11.0,74,0.00,,---,0.00,VWS V13.00,2013-02-11 03:34:00,
2013-02-10 22:35:00,69.7,61.0,30.11,SE,143,2.0,11.0,74,0.00,,---,0.00,VWS V13.00,2013-02-11 03:35:00,
2013-02-10 22:36:00,69.5,61.2,30.11,SSE,157,7.0,12.0,75,0.00,,---,0.00,VWS V13.00,2013-02-11 03:36:00,
2013-02-10 22:37:00,69.5,61.2,30.11,SE,138,3.0,12.0,75,0.00,,---,0.00,VWS V13.00,2013-02-11 03:37:00,
2013-02-10 22:38:00,69.5,61.2,30.11,ESE,108,3.0,12.0,75,0.00,,---,0.00,VWS V13.00,2013-02-11 03:38:00,
2013-02-10 22:39:00,69.5,61.2,30.11,SE,138,4.0,12.0,75,0.00,,---,0.00,VWS V13.00,2013-02-11 03:39:00,
2013-02-10 22:40:00,69.5,61.2,30.11,SSE,154,5.0,12.0,75,0.00,,---,0.00,VWS V13.00,2013-02-11 03:40:00,
2013-02-10 22:41:00,69.5,61.2,30.11,ESE,108,4.0,6.0,75,0.00,,---,0.00,VWS V13.00,2013-02-11 03:41:00,
2013-02-10 22:42:00,69.5,61.2,30.11,ESE,107,2.0,6.0,75,0.00,,---,0.00,VWS V13.00,2013-02-11 03:42:00,
2013-02-10 22:43:00,69.4,61.1,30.11,SSE,159,7.0,9.0,75,0.00,,---,0.00,VWS V13.00,2013-02-11 03:43:00,
2013-02-10 22:44:00,69.4,61.1,30.11,SSE,151,11.0,11.0,75,0.00,,---,0.00,VWS V13.00,2013-02-11 03:44:00,
2013-02-10 22:45:00,69.4,61.1,30.11,SE,138,6.0,12.0,75,0.00,,---,0.00,VWS V13.00,2013-02-11 03:45:00,
2013-02-10 22:46:00,69.4,61.1,30.11,SE,136,4.0,11.0,75,0.00,,---,0.00,VWS V13.00,2013-02-11 03:46:00,
2013-02-10 22:47:00,69.4,61.1,30.11,ESE,111,4.0,11.0,75,0.00,,---,0.00,VWS V13.00,2013-02-11 03:47:00,
2013-02-10 22:48:00,69.4,61.1,30.11,East,95,4.0,11.0,75,0.00,,---,0.00,VWS V13.00,2013-02-11 03:48:00,
2013-02-10 22:49:00,69.4,61.1,30.11,ESE,122,6.0,11.0,75,0.00,,---,0.00,VWS V13.00,2013-02-11 03:49:00,
2013-02-10 22:50:00,69.2,61.3,30.11,SE,135,3.0,11.0,76,0.00,,---,0.00,VWS V13.00,2013-02-11 03:50:00,
2013-02-10 22:51:00,69.2,61.3,30.11,SE,140,4.0,9.0,76,0.00,,---,0.00,VWS V13.00,2013-02-11 03:51:00,
2013-02-10 22:52:00,69.2,61.3,30.11,SE,139,4.0,9.0,76,0.00,,---,0.00,VWS V13.00,2013-02-11 03:52:00,
2013-02-10 22:53:00,69.2,61.3,30.11,SE,126,2.0,9.0,76,0.00,,---,0.00,VWS V13.00,2013-02-11 03:53:00,
2013-02-10 22:54:00,69.2,61.3,30.11,SE,146,4.0,9.0,76,0.00,,---,0.00,VWS V13.00,2013-02-11 03:54:00,
2013-02-10 22:55:00,69.2,61.3,30.11,SE,140,8.0,9.0,76,0.00,,---,0.00,VWS V13.00,2013-02-11 03:55:00,
2013-02-10 22:56:00,69.0,61.1,30.11,SE,125,1.0,8.0,76,0.00,,---,0.00,VWS V13.00,2013-02-11 03:56:00,
2013-02-10 22:57:00,69.0,61.1,30.11,East,99,5.0,8.0,76,0.00,,---,0.00,VWS V13.00,2013-02-11 03:57:00,
2013-02-10 22:58:00,69.0,61.1,30.11,SE,146,6.0,11.0,76,0.00,,---,0.00,VWS V13.00,2013-02-11 03:58:00,
2013-02-10 22:59:00,69.0,61.1,30.11,SE,132,6.0,11.0,76,0.00,,---,0.00,VWS V13.00,2013-02-11 03:59:00,
2013-02-10 23:00:00,68.9,61.4,30.10,SE,132,7.0,11.0,77,0.00,,---,0.00,VWS V13.00,2013-02-11 04:00:00,
2013-02-10 23:01:00,68.9,61.4,30.10,SE,131,5.0,10.0,77,0.00,,---,0.00,VWS V13.00,2013-02-11 04:01:00,
2013-02-10 23:02:00,68.9,61.4,30.10,SE,128,5.0,10.0,77,0.00,,---,0.00,VWS V13.00,2013-02-11 04:02:00,
2013-02-10 23:03:00,68.9,61.4,30.10,SE,127,3.0,10.0,77,0.00,,---,0.00,VWS V13.00,2013-02-11 04:03:00,
2013-02-10 23:04:00,68.9,61.4,30.10,SE,144,12.0,12.0,77,0.00,,---,0.00,VWS V13.00,2013-02-11 04:04:00,
2013-02-10 23:05:00,68.9,61.4,30.10,SE,132,4.0,12.0,77,0.00,,---,0.00,VWS V13.00,2013-02-11 04:05:00,
2013-02-10 23:06:00,68.9,61.4,30.10,SSE,155,9.0,9.0,77,0.00,,---,0.00,VWS V13.00,2013-02-11 04:06:00,
2013-02-10 23:07:00,68.7,61.2,30.10,SE,144,7.0,9.0,77,0.00,,---,0.00,VWS V13.00,2013-02-11 04:07:00,
2013-02-10 23:08:00,68.7,61.2,30.10,SE,127,5.0,9.0,77,0.00,,---,0.00,VWS V13.00,2013-02-11 04:08:00,
2013-02-10 23:09:00,68.7,61.2,30.10,SE,140,4.0,9.0,77,0.00,,---,0.00,VWS V13.00,2013-02-11 04:09:00,
2013-02-10 23:10:00,68.7,61.2,30.10,SE,139,5.0,9.0,77,0.00,,---,0.00,VWS V13.00,2013-02-11 04:10:00,
2013-02-10 23:11:00,68.7,61.2,30.10,SE,139,2.0,5.0,77,0.00,,---,0.00,VWS V13.00,2013-02-11 04:11:00,
2013-02-10 23:12:00,68.7,61.2,30.10,SE,146,7.0,11.0,77,0.00,,---,0.00,VWS V13.00,2013-02-11 04:12:00,
2013-02-10 23:13:00,68.7,61.2,30.10,SE,141,4.0,11.0,77,0.00,,---,0.00,VWS V13.00,2013-02-11 04:13:00,
2013-02-10 23:14:00,68.7,61.2,30.10,SE,137,4.0,11.0,77,0.00,,---,0.00,VWS V13.00,2013-02-11 04:14:00,
2013-02-10 23:15:00,68.7,61.2,30.10,SE,134,5.0,11.0,77,0.00,,---,0.00,VWS V13.00,2013-02-11 04:15:00,
2013-02-10 23:16:00,68.5,61.0,30.10,ESE,117,5.0,9.0,77,0.00,,---,0.00,VWS V13.00,2013-02-11 04:16:00,
2013-02-10 23:17:00,68.5,61.0,30.10,ESE,123,3.0,9.0,77,0.00,,---,0.00,VWS V13.00,2013-02-11 04:17:00,
2013-02-10 23:18:00,68.5,61.0,30.10,SE,129,4.0,9.0,77,0.00,,---,0.00,VWS V13.00,2013-02-11 04:18:00,
2013-02-10 23:19:00,68.5,61.4,30.10,SE,146,9.0,9.0,78,0.00,,---,0.00,VWS V13.00,2013-02-11 04:19:00,
2013-02-10 23:20:00,68.5,61.4,30.10,SSE,148,6.0,11.0,78,0.00,,---,0.00,VWS V13.00,2013-02-11 04:20:00,
2013-02-10 23:21:00,68.5,61.4,30.10,SE,146,3.0,9.0,78,0.00,,---,0.00,VWS V13.00,2013-02-11 04:21:00,
2013-02-10 23:22:00,68.5,61.4,30.10,SE,143,3.0,9.0,78,0.00,,---,0.00,VWS V13.00,2013-02-11 04:22:00,
2013-02-10 23:23:00,68.5,61.4,30.10,SE,138,6.0,9.0,78,0.00,,---,0.00,VWS V13.00,2013-02-11 04:23:00,
2013-02-10 23:24:00,68.5,61.4,30.10,SE,136,4.0,9.0,78,0.00,,---,0.00,VWS V13.00,2013-02-11 04:24:00,
2013-02-10 23:25:00,68.5,61.4,30.10,SE,139,7.0,9.0,78,0.00,,---,0.00,VWS V13.00,2013-02-11 04:25:00,
2013-02-10 23:26:00,68.5,61.4,30.10,SE,133,4.0,11.0,78,0.00,,---,0.00,VWS V13.00,2013-02-11 04:26:00,
2013-02-10 23:27:00,68.5,61.4,30.10,SE,138,4.0,11.0,78,0.00,,---,0.00,VWS V13.00,2013-02-11 04:27:00,
2013-02-10 23:28:00,68.4,61.3,30.10,SSE,147,4.0,11.0,78,0.00,,---,0.00,VWS V13.00,2013-02-11 04:28:00,
2013-02-10 23:29:00,68.4,61.3,30.10,SE,138,1.0,11.0,78,0.00,,---,0.00,VWS V13.00,2013-02-11 04:29:00,
2013-02-10 23:30:00,68.4,61.3,30.10,SE,133,3.0,11.0,78,0.00,,---,0.00,VWS V13.00,2013-02-11 04:30:00,
2013-02-10 23:31:00,68.4,61.3,30.10,SE,132,3.0,4.0,78,0.00,,---,0.00,VWS V13.00,2013-02-11 04:31:00,
2013-02-10 23:32:00,68.4,61.3,30.10,SE,135,5.0,5.0,78,0.00,,---,0.00,VWS V13.00,2013-02-11 04:32:00,
2013-02-10 23:33:00,68.4,61.3,30.10,SE,141,6.0,9.0,78,0.00,,---,0.00,VWS V13.00,2013-02-11 04:33:00,
2013-02-10 23:34:00,68.4,61.3,30.10,SE,140,2.0,9.0,78,0.00,,---,0.00,VWS V13.00,2013-02-11 04:34:00,
2013-02-10 23:35:00,68.4,61.3,30.10,SE,140,3.0,9.0,78,0.00,,---,0.00,VWS V13.00,2013-02-11 04:35:00,
2013-02-10 23:36:00,68.4,61.3,30.10,SE,138,4.0,6.0,78,0.00,,---,0.00,VWS V13.00,2013-02-11 04:36:00,
2013-02-10 23:37:00,68.4,61.3,30.10,SE,128,4.0,10.0,78,0.00,,---,0.00,VWS V13.00,2013-02-11 04:37:00,
2013-02-10 23:38:00,68.4,61.3,30.10,SE,136,6.0,10.0,78,0.00,,---,0.00,VWS V13.00,2013-02-11 04:38:00,
2013-02-10 23:39:00,68.2,61.1,30.10,SE,146,3.0,10.0,78,0.00,,---,0.00,VWS V13.00,2013-02-11 04:39:00,
2013-02-10 23:40:00,68.2,61.5,30.10,SE,142,2.0,10.0,79,0.00,,---,0.00,VWS V13.00,2013-02-11 04:40:00,
2013-02-10 23:41:00,68.2,61.5,30.10,SE,135,6.0,10.0,79,0.00,,---,0.00,VWS V13.00,2013-02-11 04:41:00,
2013-02-10 23:42:00,68.2,61.5,30.10,SE,145,3.0,10.0,79,0.00,,---,0.00,VWS V13.00,2013-02-11 04:42:00,
2013-02-10 23:43:00,68.2,61.5,30.10,SE,138,1.0,10.0,79,0.00,,---,0.00,VWS V13.00,2013-02-11 04:43:00,
2013-02-10 23:44:00,68.2,61.5,30.10,SE,138,3.0,10.0,79,0.00,,---,0.00,VWS V13.00,2013-02-11 04:44:00,
2013-02-10 23:45:00,68.2,61.5,30.10,SE,145,7.0,7.0,79,0.00,,---,0.00,VWS V13.00,2013-02-11 04:45:00,
2013-02-10 23:46:00,68.2,61.5,30.10,SE,143,7.0,7.0,79,0.00,,---,0.00,VWS V13.00,2013-02-11 04:46:00,
2013-02-10 23:47:00,68.2,61.5,30.10,SE,144,6.0,9.0,79,0.00,,---,0.00,VWS V13.00,2013-02-11 04:47:00,
2013-02-10 23:48:00,68.2,61.5,30.10,SE,136,2.0,9.0,79,0.00,,---,0.00,VWS V13.00,2013-02-11 04:48:00,
2013-02-10 23:49:00,68.0,61.2,30.10,SE,138,5.0,10.0,79,0.00,,---,0.00,VWS V13.00,2013-02-11 04:49:00,
2013-02-10 23:50:00,68.0,61.2,30.10,SE,130,3.0,10.0,79,0.00,,---,0.00,VWS V13.00,2013-02-11 04:50:00,
2013-02-10 23:51:00,68.0,61.2,30.10,East,94,6.0,6.0,79,0.00,,---,0.00,VWS V13.00,2013-02-11 04:51:00,
2013-02-10 23:52:00,68.0,61.2,30.10,ESE,116,3.0,6.0,79,0.00,,---,0.00,VWS V13.00,2013-02-11 04:52:00,
2013-02-10 23:53:00,68.0,61.2,30.10,ESE,119,1.0,6.0,79,0.00,,---,0.00,VWS V13.00,2013-02-11 04:53:00,
2013-02-10 23:54:00,68.0,61.2,30.10,ESE,117,4.0,6.0,79,0.00,,---,0.00,VWS V13.00,2013-02-11 04:54:00,
2013-02-10 23:55:00,68.0,61.2,30.10,ESE,117,3.0,6.0,79,0.00,,---,0.00,VWS V13.00,2013-02-11 04:55:00,
2013-02-10 23:56:00,68.0,61.2,30.10,SE,138,5.0,7.0,79,0.00,,---,0.00,VWS V13.00,2013-02-11 04:56:00,
2013-02-10 23:57:00,68.0,61.2,30.10,East,94,4.0,7.0,79,0.00,,---,0.00,VWS V13.00,2013-02-11 04:57:00,
2013-02-10 23:58:00,67.9,61.2,30.10,East,94,3.0,7.0,79,0.00,,---,0.00,VWS V13.00,2013-02-11 04:58:00,
2013-02-10 23:59:00,67.9,61.5,30.10,ESE,123,3.0,7.0,80,0.00,,---,0.00,VWS V13.00,2013-02-11 04:59:00,